ftp/pub/palmer/observations_modified/2019/June/AR190422_BASE.txt

Download

Sample DateTime	Unit Id	WS Avg 2min	WD Avg 2min	WGS 10min	WGD 10min	Air Temp	Rel Humidity	Dew Point	Pyranometer	Quantum	Air Pressure	Snow Level	Rainfall	PW Current	Visibility	CBase 1	CBase 2	CBase 3	Vert Vis
2019/04/22 00:00:00	BASE	3.66	28	4.32	22	-5.5	95	-6.2	0	0	998.4	NA	0.0000		9999	0	0	0	0
2019/04/22 00:01:00	BASE	3.46	30	4.32	22	-5.5	95	-6.2	0	0	998.4	NA	0.0000		9999	0	0	0	0
2019/04/22 00:02:00	BASE	3.31	36	4.32	22	-5.5	95	-6.2	0	0	998.4	NA	0.0000		9999	0	0	0	0
2019/04/22 00:03:00	BASE	3.14	42	4.32	22	-5.6	95	-6.3	0	0	998.4	NA	0.0000		9999	0	0	0	0
2019/04/22 00:04:00	BASE	3.02	45	4.32	22	-5.6	95	-6.2	0	0	998.4	NA	0.0000		9999	0	0	0	0
2019/04/22 00:05:00	BASE	2.72	43	4.32	22	-5.6	95	-6.3	0	0	998.4	NA	0.0000		9999	0	0	0	0
2019/04/22 00:06:00	BASE	2.50	38	4.32	22	-5.6	95	-6.3	0	0	998.4	NA	0.0000		9999	1840	0	0	0
2019/04/22 00:07:00	BASE	2.74	37	4.32	22	-5.6	95	-6.2	0	0	998.4	NA	0.0000		9999	0	0	0	0
2019/04/22 00:08:00	BASE	2.92	37	4.06	29	-5.6	95	-6.2	0	0	998.4	NA	0.0000		9999	0	0	0	0
2019/04/22 00:09:00	BASE	2.85	38	3.76	23	-5.6	95	-6.2	0	0	998.4	NA	0.0000		9999	0	0	0	0
2019/04/22 00:10:00	BASE	2.71	40	3.76	23	-5.6	95	-6.2	0	0	998.4	NA	0.0000		9999	0	0	0	0
2019/04/22 00:11:00	BASE	2.59	41	3.50	47	-5.6	95	-6.2	0	0	998.4	NA	0.0000		9999	0	0	0	0
2019/04/22 00:12:00	BASE	2.74	41	3.40	51	-5.6	95	-6.2	0	0	998.3	NA	0.0000		9999	0	0	0	0
2019/04/22 00:13:00	BASE	3.05	42	3.50	43	-5.6	95	-6.2	0	0	998.3	NA	0.0000		9999	0	0	0	0
2019/04/22 00:14:00	BASE	3.13	43	3.50	43	-5.6	95	-6.3	0	0	998.3	NA	0.0000		9999	0	0	0	0
2019/04/22 00:15:00	BASE	3.00	42	3.50	43	-5.7	95	-6.3	0	0	998.3	NA	0.0000		9999	0	0	0	0
2019/04/22 00:16:00	BASE	3.01	40	3.50	43	-5.7	95	-6.4	0	0	998.3	NA	0.0000		9999	0	0	0	0
2019/04/22 00:17:00	BASE	3.07	37	3.50	43	-5.7	95	-6.4	0	0	998.3	NA	0.0000		9999	0	0	0	0
2019/04/22 00:18:00	BASE	3.11	34	3.50	43	-5.8	95	-6.4	0	0	998.3	NA	0.0000		9999	0	0	0	0
2019/04/22 00:19:00	BASE	3.31	30	3.91	32	-5.8	95	-6.5	0	0	998.3	NA	0.0000		9999	0	0	0	0
2019/04/22 00:20:00	BASE	3.41	30	3.91	28	-5.8	95	-6.5	0	0	998.2	NA	0.0000		9999	0	0	0	0
2019/04/22 00:21:00	BASE	3.28	34	3.91	28	-5.8	95	-6.4	0	0	998.3	NA	0.0000		9999	0	0	0	0
2019/04/22 00:22:00	BASE	3.06	38	3.91	28	-5.8	95	-6.4	0	0	998.3	NA	0.0000		9999	0	0	0	0
2019/04/22 00:23:01	BASE	2.75	39	3.91	28	-5.8	96	-6.4	0	0	998.3	NA	0.0000		9999	0	0	0	0
2019/04/22 00:24:00	BASE	2.88	34	4.32	34	-5.8	96	-6.4	0	0	998.3	NA	0.0000		9999	0	0	0	0
2019/04/22 00:25:00	BASE	3.76	34	4.84	39	-5.8	96	-6.3	0	0	998.3	NA	0.0000		9999	0	0	0	0
2019/04/22 00:26:00	BASE	4.13	35	4.84	39	-5.8	96	-6.3	0	0	998.3	NA	0.0000		9999	0	0	0	0
2019/04/22 00:27:00	BASE	3.87	34	4.84	39	-5.8	96	-6.4	0	0	998.3	NA	0.0000		9999	0	0	0	0
2019/04/22 00:28:00	BASE	3.99	39	4.84	39	-5.8	96	-6.4	0	0	998.3	NA	0.0000		9999	0	0	0	0
2019/04/22 00:29:00	BASE	4.33	40	5.25	41	-5.9	96	-6.4	0	0	998.3	NA	0.0000		9999	0	0	0	0
2019/04/22 00:30:00	BASE	4.75	38	5.25	41	-5.9	96	-6.5	0	0	998.3	NA	0.0000		9999	0	0	0	0
2019/04/22 00:31:00	BASE	4.95	37	5.30	40	-6.0	96	-6.5	0	0	998.3	NA	0.0000		9999	0	0	0	0
2019/04/22 00:32:00	BASE	5.13	38	5.71	38	-6.0	96	-6.5	0	0	998.3	NA	0.0000		9999	0	0	0	0
2019/04/22 00:33:00	BASE	5.11	43	5.71	38	-6.0	97	-6.5	0	0	998.3	NA	0.0000		9999	0	0	0	0
2019/04/22 00:34:00	BASE	4.37	48	5.71	38	-6.0	97	-6.4	0	0	998.3	NA	0.0000		9999	0	0	0	0
2019/04/22 00:35:00	BASE	3.81	52	5.71	38	-6.0	97	-6.4	0	0	998.3	NA	0.0000		9999	0	0	0	0
2019/04/22 00:36:00	BASE	3.80	53	5.71	38	-5.9	97	-6.3	0	0	998.3	NA	0.0000		9999	0	0	0	0
2019/04/22 00:37:00	BASE	3.71	50	5.71	38	-5.9	97	-6.3	0	0	998.3	NA	0.0000		9999	0	0	0	0
2019/04/22 00:38:00	BASE	3.90	50	5.71	38	-5.9	97	-6.3	0	0	998.3	NA	0.0000		9999	0	0	0	0
2019/04/22 00:39:00	BASE	3.70	54	5.71	38	-5.9	97	-6.3	0	0	998.3	NA	0.0000		9999	0	0	0	0
2019/04/22 00:40:00	BASE	3.18	54	5.71	38	-5.9	97	-6.3	0	0	998.3	NA	0.0000		9999	0	0	0	0
2019/04/22 00:41:00	BASE	3.37	52	5.71	38	-5.9	97	-6.3	0	0	998.3	NA	0.0000		9999	0	0	0	0
2019/04/22 00:42:00	BASE	3.78	54	5.61	45	-5.9	97	-6.3	0	0	998.3	NA	0.0000		9999	0	0	0	0
2019/04/22 00:43:00	BASE	3.77	54	5.14	41	-5.9	97	-6.3	0	0	998.3	NA	0.0000		9999	0	0	0	0
2019/04/22 00:44:00	BASE	3.71	56	5.14	41	-5.8	97	-6.2	0	0	998.3	NA	0.0000		9999	0	0	0	0
2019/04/22 00:45:00	BASE	3.63	57	5.14	41	-5.8	97	-6.2	0	0	998.3	NA	0.0000		9999	0	0	0	0
2019/04/22 00:46:00	BASE	3.43	55	5.14	41	-5.8	97	-6.2	0	0	998.2	NA	0.0000		9999	0	0	0	0
2019/04/22 00:47:00	BASE	3.47	48	5.14	41	-5.8	97	-6.2	0	0	998.2	NA	0.0000		9999	0	0	0	0
2019/04/22 00:48:00	BASE	3.41	41	4.63	56	-5.8	97	-6.2	0	0	998.2	NA	0.0000		9999	0	0	0	0
2019/04/22 00:49:00	BASE	3.37	41	4.63	56	-5.8	97	-6.2	0	0	998.2	NA	0.0000		9999	0	0	0	0
2019/04/22 00:50:00	BASE	3.54	41	4.63	56	-5.9	97	-6.3	0	0	998.3	NA	0.0000		9999	0	0	0	0
2019/04/22 00:51:00	BASE	3.76	39	4.63	56	-5.9	97	-6.3	0	0	998.3	NA	0.0000		9999	0	0	0	0
2019/04/22 00:52:00	BASE	3.71	37	4.63	56	-5.9	97	-6.3	0	0	998.3	NA	0.0000		9999	0	0	0	0
2019/04/22 00:53:00	BASE	3.67	38	4.63	56	-5.9	97	-6.3	0	0	998.3	NA	0.0000		9999	0	0	0	0
2019/04/22 00:54:00	BASE	3.79	38	4.37	33	-5.9	97	-6.3	0	0	998.3	NA	0.0000		9999	0	0	0	0
2019/04/22 00:55:00	BASE	3.57	38	4.37	33	-5.9	97	-6.3	0	0	998.3	NA	0.0000		9999	0	0	0	0
2019/04/22 00:56:00	BASE	3.35	40	4.37	33	-5.8	97	-6.2	0	0	998.3	NA	0.0000		9999	0	0	0	0
2019/04/22 00:57:00	BASE	3.43	38	4.37	33	-5.8	97	-6.2	0	0	998.3	NA	0.0000		9999	0	0	0	0
2019/04/22 00:58:00	BASE	3.34	36	4.37	33	-5.8	97	-6.2	0	0	998.3	NA	0.0000		9999	0	0	0	0
2019/04/22 00:59:00	BASE	3.16	33	4.37	33	-5.8	97	-6.2	0	0	998.3	NA	0.0000		9999	0	0	0	0
2019/04/22 01:00:00	BASE	3.23	29	4.37	33	-5.9	97	-6.3	0	0	998.4	NA	0.0000		9999	0	0	0	0
2019/04/22 01:01:00	BASE	3.62	31	4.48	31	-5.9	97	-6.3	0	0	998.4	NA	0.0000		9999	0	0	0	0
2019/04/22 01:02:00	BASE	3.63	37	4.48	31	-5.9	97	-6.3	0	0	998.4	NA	0.0000		9999	0	0	0	0
2019/04/22 01:03:00	BASE	3.35	44	4.48	31	-5.9	97	-6.3	0	0	998.4	NA	0.0000		9999	0	0	0	0
2019/04/22 01:04:00	BASE	3.20	46	4.48	31	-5.9	97	-6.3	0	0	998.4	NA	0.0000		9999	0	0	0	0
2019/04/22 01:05:00	BASE	3.39	45	4.53	48	-5.9	97	-6.3	0	0	998.4	NA	0.0000		9999	0	0	0	0
2019/04/22 01:06:00	BASE	4.14	48	5.25	49	-6.0	97	-6.4	0	0	998.4	NA	0.0000		9999	0	0	0	0
2019/04/22 01:07:00	BASE	4.38	53	5.25	49	-6.0	97	-6.4	0	0	998.3	NA	0.0000		9999	0	0	0	0
2019/04/22 01:08:00	BASE	3.94	55	5.25	49	-6.0	97	-6.4	0	0	998.3	NA	0.0000		9999	0	0	0	0
2019/04/22 01:09:00	BASE	3.80	57	5.25	49	-6.0	97	-6.4	0	0	998.3	NA	0.0000		9999	0	0	0	0
2019/04/22 01:10:00	BASE	3.57	61	5.25	49	-6.0	97	-6.4	0	0	998.3	NA	0.0000		9999	0	0	0	0
2019/04/22 01:11:00	BASE	3.23	63	5.25	49	-6.0	97	-6.4	0	0	998.3	NA	0.0000		9999	0	0	0	0
2019/04/22 01:12:00	BASE	3.02	67	5.25	49	-6.0	97	-6.4	0	0	998.3	NA	0.0000		9999	0	0	0	0
2019/04/22 01:13:00	BASE	3.45	71	5.25	49	-6.0	97	-6.3	0	0	998.3	NA	0.0000		9999	0	0	0	0
2019/04/22 01:14:00	BASE	3.91	73	5.25	49	-5.9	97	-6.3	0	0	998.3	NA	0.0000		9999	0	0	0	0
2019/04/22 01:15:00	BASE	3.68	71	5.25	49	-5.9	98	-6.2	0	0	998.3	NA	0.0000		9999	0	0	0	0
2019/04/22 01:16:00	BASE	3.48	65	4.73	50	-5.8	98	-6.1	0	0	998.3	NA	0.0000		9999	0	0	0	0
2019/04/22 01:17:00	BASE	3.29	65	4.63	58	-5.8	98	-6.1	0	0	998.3	NA	0.0000		9999	0	0	0	0
2019/04/22 01:18:00	BASE	3.04	62	4.63	58	-5.8	98	-6.0	0	0	998.4	NA	0.0000		9999	0	0	0	0
2019/04/22 01:19:00	BASE	2.61	59	4.63	58	-5.7	98	-6.0	0	0	998.4	NA	0.0000		9999	0	0	0	0
2019/04/22 01:20:00	BASE	2.55	61	4.63	58	-5.7	97	-6.1	0	0	998.4	NA	0.0000		9999	0	0	0	0
2019/04/22 01:21:00	BASE	2.87	57	4.63	58	-5.7	97	-6.1	0	0	998.4	NA	0.0000		9999	0	0	0	0
2019/04/22 01:22:00	BASE	2.76	65	4.63	58	-5.8	97	-6.2	0	0	998.4	NA	0.0000		9999	0	0	0	0
2019/04/22 01:23:00	BASE	2.58	72	4.17	73	-5.8	97	-6.2	0	0	998.4	NA	0.0000		9999	0	0	0	0
2019/04/22 01:24:00	BASE	2.74	70	3.86	67	-5.8	97	-6.2	0	0	998.4	NA	0.0000		9999	0	0	0	0
2019/04/22 01:25:00	BASE	3.02	77	3.81	64	-5.8	97	-6.2	0	0	998.4	NA	0.0000		9999	0	0	0	0
2019/04/22 01:26:00	BASE	3.09	82	3.65	86	-5.8	97	-6.1	0	0	998.3	NA	0.0000		9999	0	0	0	0
2019/04/22 01:27:00	BASE	2.91	82	3.65	86	-5.7	97	-6.1	0	0	998.3	NA	0.0000		9999	0	0	0	0
2019/04/22 01:28:00	BASE	2.87	78	3.65	86	-5.7	97	-6.1	0	0	998.3	NA	0.0000		9999	0	0	0	0
2019/04/22 01:29:00	BASE	3.22	77	4.27	74	-5.7	97	-6.1	0	0	998.3	NA	0.0000		9999	0	0	0	0
2019/04/22 01:30:00	BASE	3.64	77	4.32	77	-5.7	97	-6.1	0	0	998.3	NA	0.0000		9999	0	0	0	0
2019/04/22 01:31:00	BASE	3.76	76	4.32	77	-5.7	97	-6.1	0	0	998.2	NA	0.0000		9999	0	0	0	0
2019/04/22 01:32:00	BASE	3.61	71	4.32	77	-5.7	97	-6.1	0	0	998.2	NA	0.0000		9999	0	0	0	0
2019/04/22 01:33:00	BASE	3.16	71	4.32	77	-5.7	97	-6.1	0	0	998.2	NA	0.0000		9999	0	0	0	0
2019/04/22 01:34:00	BASE	2.94	79	4.32	77	-5.6	97	-6.1	0	0	998.2	NA	0.0000		9999	0	0	0	0
2019/04/22 01:35:00	BASE	3.14	87	4.32	77	-5.6	96	-6.1	0	0	998.2	NA	0.0000		9999	0	0	0	0
2019/04/22 01:36:00	BASE	3.16	88	4.32	77	-5.6	96	-6.1	0	0	998.2	NA	0.0000		9999	0	0	0	0
2019/04/22 01:37:00	BASE	3.15	85	4.32	77	-5.5	96	-6.1	0	0	998.2	NA	0.0000		9999	0	0	0	0
2019/04/22 01:38:00	BASE	2.95	78	4.32	77	-5.5	96	-6.1	0	0	998.2	NA	0.0000		9999	0	0	0	0
2019/04/22 01:39:00	BASE	2.56	77	4.32	77	-5.5	96	-6.1	0	0	998.2	NA	0.0000		9999	0	0	0	0
2019/04/22 01:40:00	BASE	2.57	82	4.12	78	-5.6	96	-6.1	0	0	998.2	NA	0.0000		9999	0	0	0	0
2019/04/22 01:41:00	BASE	2.51	74	3.96	66	-5.6	96	-6.2	0	0	998.2	NA	0.0000		9999	0	0	0	0
2019/04/22 01:42:00	BASE	2.45	72	3.76	86	-5.7	96	-6.2	0	0	998.3	NA	0.0000		9999	0	0	0	0
2019/04/22 01:43:00	BASE	2.45	82	3.76	86	-5.8	96	-6.3	0	0	998.3	NA	0.0000		9999	0	0	0	0
2019/04/22 01:44:00	BASE	2.55	77	3.76	86	-5.8	96	-6.4	0	0	998.3	NA	0.0000		9999	0	0	0	0
2019/04/22 01:45:00	BASE	3.05	65	4.48	52	-5.9	96	-6.5	0	0	998.3	NA	0.0000		9999	0	0	0	0
2019/04/22 01:46:00	BASE	3.31	69	4.48	52	-6.0	96	-6.6	0	0	998.3	NA	0.0000		9999	0	0	0	0
2019/04/22 01:47:00	BASE	3.22	71	4.48	52	-6.2	96	-6.7	0	0	998.3	NA	0.0000		9999	0	0	0	0
2019/04/22 01:48:00	BASE	3.33	73	4.48	52	-6.2	96	-6.8	0	0	998.3	NA	0.0000		9999	0	0	0	0
2019/04/22 01:49:00	BASE	3.59	80	4.48	52	-6.3	96	-6.8	0	0	998.3	NA	0.0000		9999	0	0	0	0
2019/04/22 01:50:00	BASE	3.78	78	4.73	66	-6.3	96	-6.8	0	0	998.3	NA	0.0000		9999	0	0	0	0
2019/04/22 01:51:00	BASE	3.93	76	4.73	66	-6.3	96	-6.7	0	0	998.2	NA	0.0000		9999	0	0	0	0
2019/04/22 01:52:00	BASE	4.24	77	5.14	82	-6.3	96	-6.7	0	0	998.2	NA	0.0000		9999	0	0	0	0
2019/04/22 01:53:00	BASE	4.60	75	5.14	70	-6.2	97	-6.7	0	0	998.2	NA	0.0000		9999	0	0	0	0
2019/04/22 01:54:00	BASE	4.70	72	5.25	66	-6.2	97	-6.7	0	0	998.2	NA	0.0000		9999	0	0	0	0
2019/04/22 01:55:00	BASE	4.77	68	5.25	63	-6.2	96	-6.6	0	0	998.2	NA	0.0000		9999	0	0	0	0
2019/04/22 01:56:00	BASE	5.14	66	5.97	72	-6.2	96	-6.7	0	0	998.2	NA	0.0000		9999	0	0	0	0
2019/04/22 01:57:00	BASE	5.60	68	6.53	68	-6.1	96	-6.7	0	0	998.2	NA	0.0000		9999	0	0	0	0
2019/04/22 01:58:00	BASE	5.57	67	6.53	68	-6.1	96	-6.7	0	0	998.2	NA	0.0000		9999	0	0	0	0
2019/04/22 01:59:00	BASE	5.42	66	6.53	68	-6.1	95	-6.7	0	0	998.2	NA	0.0000		9999	0	0	0	0
2019/04/22 02:00:00	BASE	5.33	67	6.53	68	-6.1	95	-6.8	0	0	998.2	NA	0.0000		9999	0	0	0	0
2019/04/22 02:01:00	BASE	5.32	69	6.53	68	-6.1	95	-6.8	0	0	998.1	NA	0.0000		9999	0	0	0	0
2019/04/22 02:02:00	BASE	5.43	69	6.53	68	-6.1	94	-6.8	0	0	998.0	NA	0.0000		9999	0	0	0	0
2019/04/22 02:03:00	BASE	5.49	69	6.53	68	-6.0	94	-6.8	0	0	998.1	NA	0.0000		9999	0	0	0	0
2019/04/22 02:04:00	BASE	5.23	68	6.53	68	-6.0	94	-6.8	0	0	998.1	NA	0.0000		9999	0	0	0	0
2019/04/22 02:05:00	BASE	4.73	63	6.53	68	-5.9	93	-6.8	0	0	998.2	NA	0.0000		9999	0	0	0	0
2019/04/22 02:06:00	BASE	4.66	57	6.53	68	-5.9	93	-6.8	0	0	998.2	NA	0.0000		9999	0	0	0	0
2019/04/22 02:07:00	BASE	4.59	52	6.07	68	-5.9	93	-6.9	0	0	998.2	NA	0.0000		9999	0	0	0	0
2019/04/22 02:08:00	BASE	4.44	52	6.07	68	-5.9	92	-6.9	0	0	998.2	NA	0.0000		9999	0	0	0	0
2019/04/22 02:09:00	BASE	4.62	55	6.07	68	-5.9	92	-6.9	0	0	998.2	NA	0.0000		9999	0	0	0	0
2019/04/22 02:10:00	BASE	5.02	60	6.07	68	-5.9	92	-7.0	0	0	998.1	NA	0.0000		9999	0	0	0	0
2019/04/22 02:11:00	BASE	5.47	67	6.22	72	-5.9	92	-7.0	0	0	998.0	NA	0.0000		9999	0	0	0	0
2019/04/22 02:12:00	BASE	5.62	73	6.22	72	-5.9	92	-6.9	0	0	998.0	NA	0.0000		9999	0	0	0	0
2019/04/22 02:13:00	BASE	5.35	77	6.22	72	-5.9	92	-7.0	0	0	998.0	NA	0.0000		9999	0	0	0	0
2019/04/22 02:14:00	BASE	5.27	73	6.22	72	-5.9	92	-7.0	0	0	998.0	NA	0.0000		9999	0	0	0	0
2019/04/22 02:15:00	BASE	5.25	67	6.22	72	-5.9	92	-7.0	0	0	997.9	NA	0.0000		9999	0	0	0	0
2019/04/22 02:16:00	BASE	5.03	65	6.22	72	-5.9	92	-7.0	0	0	997.9	NA	0.0000		9999	0	0	0	0
2019/04/22 02:17:00	BASE	5.06	68	6.22	72	-5.9	92	-7.0	0	0	997.9	NA	0.0000		9999	0	0	0	0
2019/04/22 02:18:00	BASE	4.94	70	6.22	72	-5.9	91	-7.0	0	0	998.0	NA	0.0000		9999	0	0	0	0
2019/04/22 02:19:00	BASE	4.56	70	6.22	72	-5.8	91	-7.0	0	0	998.0	NA	0.0000		9999	0	0	0	0
2019/04/22 02:20:00	BASE	4.61	69	6.22	72	-5.7	91	-7.0	0	0	997.9	NA	0.0000		9999	0	0	0	0
2019/04/22 02:21:00	BASE	4.56	63	6.07	71	-5.7	91	-6.9	0	0	998.0	NA	0.0000		9999	0	0	0	0
2019/04/22 02:22:00	BASE	3.89	57	6.07	71	-5.6	91	-6.9	0	0	998.0	NA	0.0000		9999	5910	0	0	0
2019/04/22 02:23:00	BASE	3.24	59	5.86	71	-5.5	90	-6.8	0	0	998.0	NA	0.0000		9999	5870	0	0	0
2019/04/22 02:24:00	BASE	3.07	62	5.61	62	-5.4	90	-6.8	0	0	998.0	NA	0.0000		9999	5910	0	0	0
2019/04/22 02:25:00	BASE	3.29	67	5.50	67	-5.4	89	-6.9	0	0	998.0	NA	0.0000		9999	5810	0	0	0
2019/04/22 02:26:00	BASE	3.57	69	5.50	67	-5.4	89	-6.9	0	0	997.9	NA	0.0000		9999	5810	0	0	0
2019/04/22 02:27:00	BASE	3.44	69	5.04	59	-5.5	89	-7.0	0	0	997.9	NA	0.0000		9999	5810	0	0	0
2019/04/22 02:28:00	BASE	3.29	72	5.04	59	-5.5	89	-7.1	0	0	997.9	NA	0.0000		9999	5810	0	0	0
2019/04/22 02:29:00	BASE	3.52	74	5.04	59	-5.5	88	-7.2	0	0	997.9	NA	0.0000		9999	0	0	0	0
2019/04/22 02:30:00	BASE	3.85	72	5.04	59	-5.6	88	-7.3	0	0	997.8	NA	0.0000		9999	0	0	0	0
2019/04/22 02:31:00	BASE	4.04	71	4.48	71	-5.6	87	-7.4	0	0	997.8	NA	0.0000		9999	0	0	0	0
2019/04/22 02:32:00	BASE	4.05	71	4.48	71	-5.7	87	-7.5	0	0	997.9	NA	0.0000		9999	0	0	0	0
2019/04/22 02:33:00	BASE	3.91	66	4.48	64	-5.8	87	-7.6	0	0	997.9	NA	0.0000		9999	0	0	0	0
2019/04/22 02:34:00	BASE	3.71	63	4.48	64	-5.8	87	-7.7	0	0	997.9	NA	0.0000		9999	0	0	0	0
2019/04/22 02:35:00	BASE	3.28	55	4.48	64	-5.8	87	-7.7	0	0	998.0	NA	0.0000		9999	0	0	0	0
2019/04/22 02:36:00	BASE	2.75	45	4.48	64	-5.8	86	-7.8	0	0	998.0	NA	0.0000		9999	0	0	0	0
2019/04/22 02:37:00	BASE	2.36	39	4.48	64	-5.8	86	-7.8	0	0	998.0	NA	0.0000		9999	0	0	0	0
2019/04/22 02:38:00	BASE	1.90	37	4.48	64	-5.8	86	-7.8	0	0	998.0	NA	0.0000		9999	0	0	0	0
2019/04/22 02:39:00	BASE	1.61	40	4.48	64	-5.6	85	-7.7	0	0	998.0	NA	0.0000		9999	0	0	0	0
2019/04/22 02:40:00	BASE	1.65	48	4.48	64	-5.5	85	-7.7	0	0	998.0	NA	0.0000		9999	0	0	0	0
2019/04/22 02:41:00	BASE	1.55	59	4.48	64	-5.4	84	-7.7	0	0	998.0	NA	0.0000		9999	0	0	0	0
2019/04/22 02:42:00	BASE	1.44	67	4.48	64	-5.3	83	-7.7	0	0	998.0	NA	0.0000		9999	0	0	0	0
2019/04/22 02:43:00	BASE	1.65	73	4.01	59	-5.2	83	-7.7	0	0	998.0	NA	0.0000		9999	0	0	0	0
2019/04/22 02:44:00	BASE	1.71	77	3.19	52	-5.1	82	-7.6	0	0	998.0	NA	0.0000		9999	0	0	0	0
2019/04/22 02:45:00	BASE	1.48	75	2.68	40	-5.0	82	-7.6	0	0	998.0	NA	0.0000		9999	0	0	0	0
2019/04/22 02:46:00	BASE	1.20	72	2.47	38	-5.0	82	-7.6	0	0	998.0	NA	0.0000		9999	0	0	0	0
2019/04/22 02:47:00	BASE	0.57	58	2.11	83	-5.1	82	-7.7	0	0	998.0	NA	0.0000		9999	0	0	0	0
2019/04/22 02:48:00	BASE	0.49	29	2.11	83	-5.1	81	-7.8	0	0	998.0	NA	0.0000		9999	0	0	0	0
2019/04/22 02:49:00	BASE	1.08	18	2.11	83	-5.2	81	-7.9	0	0	998.0	NA	0.0000		9999	0	0	0	0
2019/04/22 02:50:00	BASE	1.41	23	2.11	83	-5.3	81	-8.0	0	0	997.9	NA	0.0000		9999	0	0	0	0
2019/04/22 02:51:00	BASE	1.55	20	2.11	83	-5.3	81	-8.1	0	0	998.0	NA	0.0000		9999	0	0	0	0
2019/04/22 02:52:00	BASE	1.56	1	2.31	316	-5.4	81	-8.1	0	0	998.0	NA	0.0000		9999	0	0	0	0
2019/04/22 02:53:00	BASE	1.85	358	3.24	10	-5.3	81	-8.2	0	0	997.9	NA	0.0000		9999	0	0	0	0
2019/04/22 02:54:00	BASE	1.27	23	3.24	10	-5.3	80	-8.2	0	0	997.9	NA	0.0000		9999	0	0	0	0
2019/04/22 02:55:00	BASE	0.61	45	3.24	10	-5.3	80	-8.2	0	0	997.9	NA	0.0000		9999	0	0	0	0
2019/04/22 02:56:00	BASE	1.35	74	3.24	10	-5.3	80	-8.2	0	0	997.8	NA	0.0000		9999	0	0	0	0
2019/04/22 02:57:00	BASE	2.24	95	3.24	85	-5.4	80	-8.3	0	0	997.8	NA	0.0000		9999	0	0	0	0
2019/04/22 02:58:00	BASE	2.72	85	4.01	83	-5.5	80	-8.3	0	0	997.8	NA	0.0000		9999	0	0	0	0
2019/04/22 02:59:00	BASE	2.76	81	4.01	83	-5.5	81	-8.4	0	0	997.8	NA	0.0000		9999	0	0	0	0
2019/04/22 03:00:00	BASE	2.86	76	4.01	83	-5.6	80	-8.5	0	0	997.8	NA	0.0000		9999	0	0	0	0
2019/04/22 03:01:00	BASE	2.94	70	4.01	83	-5.7	80	-8.5	0	0	997.7	NA	0.0000		9999	6140	0	0	0
2019/04/22 03:02:00	BASE	3.24	73	4.58	82	-5.7	80	-8.5	0	0	997.7	NA	0.0000		9999	6070	0	0	0
2019/04/22 03:03:00	BASE	3.99	76	5.04	68	-5.7	80	-8.5	0	0	997.7	NA	0.0000		9999	5940	0	0	0
2019/04/22 03:04:00	BASE	4.26	71	5.04	68	-5.7	80	-8.5	0	0	997.7	NA	0.0000		9999	5910	0	0	0
2019/04/22 03:05:00	BASE	4.01	64	5.04	68	-5.6	81	-8.4	0	0	997.7	NA	0.0000		9999	5940	0	0	0
2019/04/22 03:06:00	BASE	3.37	59	5.04	68	-5.6	81	-8.4	0	0	997.7	NA	0.0000		9999	5910	0	0	0
2019/04/22 03:07:00	BASE	2.92	62	5.04	68	-5.6	81	-8.3	0	0	997.7	NA	0.0000		9999	0	0	0	0
2019/04/22 03:08:00	BASE	2.79	61	5.04	68	-5.5	81	-8.3	0	0	997.7	NA	0.0000		9999	5940	0	0	0
2019/04/22 03:09:00	BASE	2.41	54	5.04	68	-5.5	81	-8.2	0	0	997.7	NA	0.0000		9999	5870	0	0	0
2019/04/22 03:10:00	BASE	2.16	52	5.04	68	-5.4	81	-8.2	0	0	997.7	NA	0.0000		9999	5710	0	0	0
2019/04/22 03:11:00	BASE	2.20	61	5.04	68	-5.4	81	-8.1	0	0	997.7	NA	0.0000		9999	5640	0	0	0
2019/04/22 03:12:00	BASE	2.24	68	5.04	68	-5.4	81	-8.1	0	0	997.7	NA	0.0000		9999	5770	0	0	0
2019/04/22 03:13:00	BASE	2.38	70	4.63	65	-5.4	81	-8.1	0	0	997.7	NA	0.0000		9999	5770	0	0	0
2019/04/22 03:14:00	BASE	2.62	71	4.37	65	-5.4	81	-8.1	0	0	997.6	NA	0.0000		9999	5680	0	0	0
2019/04/22 03:15:00	BASE	2.40	65	3.40	76	-5.4	81	-8.1	0	0	997.6	NA	0.0000		9999	5810	0	0	0
2019/04/22 03:16:00	BASE	2.11	56	3.34	64	-5.4	82	-8.0	0	0	997.6	NA	0.0000		9999	5810	0	0	0
2019/04/22 03:17:00	BASE	2.11	54	3.24	71	-5.3	82	-7.9	0	0	997.6	NA	0.0000		9999	5450	5840	0	0
2019/04/22 03:18:00	BASE	1.95	58	3.24	71	-5.3	82	-7.9	0	0	997.5	NA	0.0000		9999	5410	5910	0	0
2019/04/22 03:19:00	BASE	1.88	68	3.24	71	-5.3	82	-7.9	0	0	997.5	NA	0.0000		9999	5410	5970	6430	0
2019/04/22 03:20:00	BASE	1.72	76	3.24	71	-5.3	82	-7.9	0	0	997.6	NA	0.0000		9999	5380	0	0	0
2019/04/22 03:21:00	BASE	1.34	81	3.24	71	-5.3	82	-7.9	0	0	997.6	NA	0.0000		9999	5350	6230	0	0
2019/04/22 03:22:00	BASE	0.59	78	3.24	71	-5.3	82	-7.8	0	0	997.6	NA	0.0000		9999	5350	6170	0	0
2019/04/22 03:23:00	BASE	0.00	73	3.19	78	-5.2	82	-7.8	0	0	997.6	NA	0.0000		9999	6140	0	0	0
2019/04/22 03:24:00	BASE	0.00	74	2.62	60	-5.2	82	-7.8	0	0	997.6	NA	0.0000		9999	5640	6100	0	0
2019/04/22 03:25:00	BASE	0.00	75	2.62	60	-5.2	82	-7.8	0	0	997.7	NA	0.0000		9999	5740	6300	0	0
2019/04/22 03:26:00	BASE	0.00	75	2.31	52	-5.2	82	-7.8	0	0	997.7	NA	0.0000		9999	5710	0	0	0
2019/04/22 03:27:00	BASE	0.00	75	2.06	74	-5.1	81	-7.8	0	0	997.7	NA	0.0000		9999	5770	0	0	0
2019/04/22 03:28:00	BASE	0.00	75	2.06	74	-5.1	81	-7.8	0	0	997.7	NA	0.0000		9999	5770	6330	0	0
2019/04/22 03:29:00	BASE	0.00	75	1.90	79	-5.0	80	-7.9	0	0	997.7	NA	0.0000		9999	5770	6530	0	0
2019/04/22 03:30:00	BASE	0.00	75	1.65	84	-5.0	80	-7.9	0	0	997.7	NA	0.0000		9999	5840	0	0	0
2019/04/22 03:31:00	BASE	0.00	86	M	M	-4.9	80	-7.9	0	0	997.7	NA	0.0000		9999	6230	0	0	0
2019/04/22 03:32:00	BASE	0.00	115	M	M	-4.9	79	-7.9	0	0	997.7	NA	0.0000		9999	6170	0	0	0
2019/04/22 03:33:00	BASE	0.67	132	1.44	132	-5.0	79	-8.0	0	0	997.7	NA	0.0000		9999	6100	0	0	0
2019/04/22 03:34:00	BASE	1.29	132	1.44	132	-5.0	79	-8.1	0	0	997.7	NA	0.0000		9999	5940	0	0	0
2019/04/22 03:35:00	BASE	1.21	131	1.65	133	-5.1	78	-8.2	0	0	997.7	NA	0.0000		9999	6140	0	0	0
2019/04/22 03:36:00	BASE	1.33	128	1.65	133	-5.1	78	-8.3	0	0	997.7	NA	0.0000		9999	6270	0	0	0
2019/04/22 03:37:00	BASE	1.36	123	1.65	133	-5.1	78	-8.3	0	0	997.7	NA	0.0000		9999	6140	0	0	0
2019/04/22 03:38:00	BASE	1.32	117	1.85	107	-5.1	79	-8.3	0	0	997.7	NA	0.0000		9999	6100	0	0	0
2019/04/22 03:39:00	BASE	1.12	112	1.85	107	-5.1	79	-8.2	0	0	997.7	NA	0.0000		9999	6140	0	0	0
2019/04/22 03:40:00	BASE	0.41	116	1.85	107	-5.0	79	-8.1	0	0	997.7	NA	0.0000		9999	6000	0	0	0
2019/04/22 03:41:00	BASE	0.09	140	1.85	107	-4.9	79	-8.0	0	0	997.7	NA	0.0000		9999	6200	0	0	0
2019/04/22 03:42:00	BASE	0.09	147	1.85	107	-4.9	79	-8.0	0	0	997.7	NA	0.0000		9999	6170	0	0	0
2019/04/22 03:43:00	BASE	0.00	143	1.85	107	-4.8	79	-7.9	0	0	997.7	NA	0.0000		9999	6170	12040	0	0
2019/04/22 03:44:00	BASE	0.45	146	1.85	107	-4.8	79	-7.9	0	0	997.6	NA	0.0000		9999	5810	12040	0	0
2019/04/22 03:45:00	BASE	0.90	125	1.85	107	-4.7	79	-7.8	0	0	997.6	NA	0.0000		9999	5680	6560	12040	0
2019/04/22 03:46:00	BASE	1.80	100	3.60	94	-4.7	79	-7.8	0	0	997.5	NA	0.0000		9999	6530	12070	0	0
2019/04/22 03:47:00	BASE	3.01	95	3.65	100	-4.8	80	-7.7	0	0	997.5	NA	0.0000		9999	6660	0	0	0
2019/04/22 03:48:00	BASE	3.73	100	4.48	102	-4.8	80	-7.7	0	0	997.4	NA	0.0000		9999	6590	0	0	0
2019/04/22 03:49:00	BASE	4.05	95	5.09	86	-4.8	81	-7.6	0	0	997.3	NA	0.0000		9999	6590	0	0	0
2019/04/22 03:50:00	BASE	3.75	82	5.09	86	-4.8	81	-7.5	0	0	997.3	NA	0.0000		9999	6590	0	0	0
2019/04/22 03:51:00	BASE	3.35	82	5.09	86	-4.7	82	-7.4	0	0	997.3	NA	0.0000		9999	6460	0	0	0
2019/04/22 03:52:00	BASE	3.31	91	5.09	86	-4.7	82	-7.3	0	0	997.4	NA	0.0000		9999	6500	0	0	0
2019/04/22 03:53:00	BASE	3.39	98	5.09	86	-4.7	82	-7.3	0	0	997.5	NA	0.0000		9999	6400	0	0	0
2019/04/22 03:54:00	BASE	3.59	101	5.09	86	-4.7	82	-7.2	0	0	997.4	NA	0.0000		9999	6270	0	0	0
2019/04/22 03:55:00	BASE	4.24	105	5.09	86	-4.7	82	-7.3	0	0	997.3	NA	0.0000		9999	6200	0	0	0
2019/04/22 03:56:00	BASE	4.52	109	5.09	86	-4.8	83	-7.2	0	0	997.3	NA	0.0000		9999	6200	7120	0	0
2019/04/22 03:57:00	BASE	4.29	107	5.09	86	-4.8	83	-7.2	0	0	997.3	NA	0.0000		9999	6070	6630	0	0
2019/04/22 03:58:00	BASE	3.74	104	5.09	86	-4.8	84	-7.1	0	0	997.3	NA	0.0000		9999	6040	6630	0	0
2019/04/22 03:59:00	BASE	3.15	105	4.89	110	-4.8	85	-7.0	0	0	997.3	NA	0.0000		9999	5970	6690	0	0
2019/04/22 04:00:00	BASE	2.89	110	4.89	110	-4.8	85	-6.9	0	0	997.4	NA	0.0000		9999	5810	6690	0	0
2019/04/22 04:01:00	BASE	2.53	103	4.89	110	-4.8	86	-6.8	0	0	997.4	NA	0.0000		9999	5770	0	0	0
2019/04/22 04:02:00	BASE	1.98	95	4.89	110	-4.8	86	-6.8	0	0	997.5	NA	0.0000		9999	5810	0	0	0
2019/04/22 04:03:00	BASE	1.73	102	4.89	110	-4.7	86	-6.8	0	0	997.5	NA	0.0000		9999	5740	0	0	0
2019/04/22 04:04:00	BASE	1.65	103	4.89	110	-4.7	86	-6.8	0	0	997.5	NA	0.0000		9999	5710	0	0	0
2019/04/22 04:05:00	BASE	0.95	107	4.73	105	-4.7	85	-6.8	0	0	997.5	NA	0.0000		9999	5680	0	0	0
2019/04/22 04:06:00	BASE	0.56	117	4.48	107	-4.7	85	-6.8	0	0	997.5	NA	0.0000		9999	5710	0	0	0
2019/04/22 04:07:00	BASE	0.97	129	3.81	106	-4.7	85	-6.8	0	0	997.5	NA	0.0000		9999	5610	0	0	0
2019/04/22 04:08:00	BASE	0.61	139	3.24	109	-4.6	85	-6.8	0	0	997.5	NA	0.0000		9999	5640	0	0	0
2019/04/22 04:09:00	BASE	0.00	145	3.09	103	-4.6	84	-6.8	0	0	997.4	NA	0.0000		9999	5640	0	0	0
2019/04/22 04:10:00	BASE	0.00	155	2.98	112	-4.5	84	-6.9	0	0	997.4	NA	0.0000		9999	5580	6890	0	0
2019/04/22 04:11:00	BASE	0.00	161	2.06	104	-4.5	83	-7.0	0	0	997.3	NA	0.0000		9999	5540	6920	0	0
2019/04/22 04:12:00	BASE	0.00	163	2.06	104	-4.4	82	-7.0	0	0	997.3	NA	0.0000		9999	5680	0	0	0
2019/04/22 04:13:00	BASE	0.00	163	1.65	96	-4.4	82	-7.1	0	0	997.3	NA	0.0000		9999	5710	0	0	0
2019/04/22 04:14:00	BASE	0.05	163	1.34	142	-4.4	81	-7.1	0	0	997.3	NA	0.0000		9999	5680	0	0	0
2019/04/22 04:15:00	BASE	0.75	160	2.01	153	-4.4	81	-7.1	0	0	997.3	NA	0.0000		9999	5680	0	0	0
2019/04/22 04:16:00	BASE	1.65	155	2.11	159	-4.4	82	-7.1	0	0	997.3	NA	0.0000		9999	5680	0	0	0
2019/04/22 04:17:00	BASE	2.13	148	2.88	149	-4.4	82	-7.0	0	0	997.3	NA	0.0000		9999	5640	0	0	0
2019/04/22 04:18:01	BASE	2.56	144	3.14	143	-4.4	82	-7.0	0	0	997.3	NA	0.0000		9999	5580	0	0	0
2019/04/22 04:19:00	BASE	2.92	145	3.29	144	-4.4	83	-6.9	0	0	997.3	NA	0.0000		9999	5580	0	0	0
2019/04/22 04:20:00	BASE	3.33	147	3.91	147	-4.4	83	-6.8	0	0	997.3	NA	0.0000		9999	5540	0	0	0
2019/04/22 04:21:00	BASE	3.63	147	4.01	149	-4.4	84	-6.8	0	0	997.3	NA	0.0000		9999	5610	0	0	0
2019/04/22 04:22:00	BASE	3.84	145	4.58	140	-4.4	84	-6.7	0	0	997.3	NA	0.0000		9999	5540	0	0	0
2019/04/22 04:23:00	BASE	4.20	146	4.63	148	-4.4	85	-6.6	0	0	997.3	NA	0.0000		9999	5580	6960	0	0
2019/04/22 04:24:00	BASE	4.20	148	4.63	148	-4.4	85	-6.5	0	0	997.4	NA	0.0000		9999	5540	6890	0	0
2019/04/22 04:25:00	BASE	3.55	147	4.63	148	-4.4	86	-6.4	0	0	997.5	NA	0.0000		9999	5610	6790	0	0
2019/04/22 04:26:00	BASE	3.00	142	4.63	148	-4.4	86	-6.4	0	0	997.5	NA	0.0000		9999	6890	0	0	0
2019/04/22 04:27:00	BASE	2.62	138	4.63	148	-4.4	87	-6.3	0	0	997.5	NA	0.0000		9999	6960	0	0	0
2019/04/22 04:28:00	BASE	2.60	135	4.63	148	-4.4	87	-6.2	0	0	997.4	NA	0.0000		9999	6920	0	0	0
2019/04/22 04:29:00	BASE	2.85	130	4.63	148	-4.4	88	-6.1	0	0	997.3	NA	0.0000		9999	6860	0	0	0
2019/04/22 04:30:00	BASE	3.47	133	4.63	148	-4.4	88	-6.1	0	0	997.3	NA	0.0000		9999	6990	0	0	0
2019/04/22 04:31:00	BASE	3.94	139	4.63	148	-4.4	89	-6.0	0	0	997.3	NA	0.0000		9999	7120	0	0	0
2019/04/22 04:32:00	BASE	3.67	141	4.63	148	-4.4	89	-6.0	0	0	997.4	NA	0.0000		9999	7050	0	0	0
2019/04/22 04:33:00	BASE	3.54	136	4.58	135	-4.4	89	-5.9	0	0	997.5	NA	0.0000		9999	7220	0	0	0
2019/04/22 04:34:00	BASE	3.39	132	4.58	135	-4.4	90	-5.9	0	0	997.5	NA	0.0000		9999	7220	0	0	0
2019/04/22 04:35:00	BASE	2.93	128	4.58	135	-4.4	90	-5.8	0	0	997.4	NA	0.0000		9999	5510	7120	0	0
2019/04/22 04:36:00	BASE	2.49	125	4.58	135	-4.4	90	-5.8	0	0	997.4	NA	0.0000		9999	5540	7280	0	0
2019/04/22 04:37:00	BASE	2.03	123	4.58	135	-4.4	90	-5.8	0	0	997.5	NA	0.0000		9999	5580	7480	0	0
2019/04/22 04:38:00	BASE	1.82	121	4.58	135	-4.5	90	-5.8	0	0	997.5	NA	0.0000		9999	5480	0	0	0
2019/04/22 04:39:00	BASE	2.15	120	4.58	135	-4.5	90	-5.9	0	0	997.5	NA	0.0000		9999	5380	0	0	0
2019/04/22 04:40:00	BASE	2.29	123	4.32	148	-4.5	90	-5.9	0	0	997.4	NA	0.0000		9999	5350	7510	0	0
2019/04/22 04:41:00	BASE	2.01	129	4.01	141	-4.5	90	-5.9	0	0	997.5	NA	0.0000		9999	5320	0	0	0
2019/04/22 04:42:00	BASE	1.71	133	3.76	136	-4.5	90	-5.8	0	0	997.5	NA	0.0000		9999	5320	7480	0	0
2019/04/22 04:43:00	BASE	1.70	137	3.65	130	-4.5	90	-5.8	0	0	997.5	NA	0.0000		9999	5350	7450	0	0
2019/04/22 04:44:00	BASE	1.77	142	3.09	123	-4.5	90	-5.8	0	0	997.5	NA	0.0000		9999	5280	7380	0	0
2019/04/22 04:45:00	BASE	1.63	143	2.62	121	-4.4	90	-5.8	0	0	997.5	NA	0.0000		9999	5280	7380	0	0
2019/04/22 04:46:00	BASE	1.40	136	2.62	121	-4.4	90	-5.8	0	0	997.4	NA	0.0000		9999	7380	0	0	0
2019/04/22 04:47:00	BASE	1.31	129	2.62	121	-4.4	90	-5.7	0	0	997.4	NA	0.0000		9999	7350	11420	0	0
2019/04/22 04:48:00	BASE	0.98	125	2.62	121	-4.4	91	-5.7	0	0	997.5	NA	0.0000		9999	5350	11350	0	0
2019/04/22 04:49:00	BASE	0.91	126	2.42	121	-4.4	91	-5.7	0	0	997.5	NA	0.0000		9999	5350	11350	0	0
2019/04/22 04:50:00	BASE	1.05	135	2.06	135	-4.4	91	-5.6	0	0	997.5	NA	0.0000		9999	5280	11320	0	0
2019/04/22 04:51:00	BASE	0.76	137	1.95	145	-4.3	91	-5.6	0	0	997.5	NA	0.0000		9999	5280	11220	0	0
2019/04/22 04:52:00	BASE	0.33	130	1.95	145	-4.3	90	-5.7	0	0	997.5	NA	0.0000		9999	5280	11320	0	0
2019/04/22 04:53:00	BASE	0.05	122	1.95	145	-4.3	90	-5.7	0	0	997.5	NA	0.0000		9999	5250	11250	0	0
2019/04/22 04:54:00	BASE	0.00	117	1.75	146	-4.3	90	-5.7	0	0	997.5	NA	0.0000		9999	5250	7450	11320	0
2019/04/22 04:55:00	BASE	0.00	113	1.59	130	-4.3	90	-5.7	0	0	997.5	NA	0.0000		9999	5320	7450	0	0
2019/04/22 04:56:00	BASE	0.00	109	1.54	127	-4.3	90	-5.8	0	0	997.5	NA	0.0000		9999	5280	7420	11350	0
2019/04/22 04:57:00	BASE	0.00	104	1.34	136	-4.3	89	-5.8	0	0	997.5	NA	0.0000		9999	5250	7350	0	0
2019/04/22 04:58:00	BASE	0.00	88	1.34	136	-4.3	89	-5.8	0	0	997.5	NA	0.0000		9999	5220	7250	0	0
2019/04/22 04:59:00	BASE	0.00	53	1.29	138	-4.3	88	-5.9	0	0	997.5	NA	0.0000		9999	7250	0	0	0
2019/04/22 05:00:00	BASE	0.05	34	1.18	126	-4.2	88	-5.9	0	0	997.5	NA	0.0000		9999	5320	7280	0	0
2019/04/22 05:01:00	BASE	0.09	41	1.13	126	-4.2	88	-6.0	0	0	997.4	NA	0.0000		9999	7250	11120	0	0
2019/04/22 05:02:00	BASE	0.23	57	1.29	73	-4.2	87	-6.0	0	0	997.3	NA	0.0000		9999	11090	0	0	0
2019/04/22 05:03:00	BASE	0.76	71	1.29	73	-4.2	87	-6.1	0	0	997.3	NA	0.0000		9999	11160	0	0	0
2019/04/22 05:04:00	BASE	1.13	75	1.29	73	-4.2	86	-6.1	0	0	997.3	NA	0.0000		9999	7280	11120	0	0
2019/04/22 05:05:00	BASE	1.16	74	1.29	86	-4.2	86	-6.2	0	0	997.3	NA	0.0000		9999	7450	11090	0	0
2019/04/22 05:06:00	BASE	1.35	77	1.85	83	-4.2	86	-6.2	0	0	997.3	NA	0.0000		9999	7450	11120	0	0
2019/04/22 05:07:00	BASE	1.62	80	1.85	78	-4.2	85	-6.3	0	0	997.3	NA	0.0000		9999	7320	11160	0	0
2019/04/22 05:08:00	BASE	1.56	74	1.85	78	-4.2	85	-6.3	0	0	997.3	NA	0.0000		9999	7220	11160	0	0
2019/04/22 05:09:00	BASE	1.35	66	1.85	78	-4.2	85	-6.3	0	0	997.3	NA	0.0000		9999	7150	0	0	0
2019/04/22 05:10:00	BASE	1.34	64	1.85	78	-4.2	85	-6.3	0	0	997.3	NA	0.0000		9999	7280	0	0	0
2019/04/22 05:11:00	BASE	1.37	67	1.85	78	-4.2	85	-6.3	0	0	997.3	NA	0.0000		9999	7090	11190	0	0
2019/04/22 05:12:00	BASE	1.36	75	1.85	78	-4.2	85	-6.3	0	0	997.3	NA	0.0000		9999	7320	11120	0	0
2019/04/22 05:13:00	BASE	1.39	85	1.85	78	-4.2	85	-6.3	0	0	997.3	NA	0.0000		9999	11120	0	0	0
2019/04/22 05:14:00	BASE	1.35	91	1.85	78	-4.2	85	-6.4	0	0	997.3	NA	0.0000		9999	11090	0	0	0
2019/04/22 05:15:00	BASE	1.25	97	1.85	78	-4.2	85	-6.4	0	0	997.3	NA	0.0000		9999	7090	11190	0	0
2019/04/22 05:16:00	BASE	1.22	101	1.85	78	-4.2	84	-6.5	0	0	997.3	NA	0.0000		9999	11190	0	0	0
2019/04/22 05:17:00	BASE	1.20	103	1.65	70	-4.3	84	-6.5	0	0	997.2	NA	0.0000		9999	11190	0	0	0
2019/04/22 05:18:00	BASE	1.17	104	1.54	88	-4.3	84	-6.5	0	0	997.2	NA	0.0000		9999	11190	0	0	0
2019/04/22 05:19:00	BASE	1.01	104	1.54	88	-4.3	84	-6.5	0	0	997.2	NA	0.0000		9999	11190	0	0	0
2019/04/22 05:20:00	BASE	0.79	103	1.54	88	-4.3	85	-6.5	0	0	997.2	NA	0.0000		9999	5910	11160	0	0
2019/04/22 05:21:00	BASE	0.49	102	1.54	88	-4.3	85	-6.5	0	0	997.2	NA	0.0000		9999	5870	11190	0	0
2019/04/22 05:22:00	BASE	0.13	102	1.54	88	-4.2	85	-6.5	0	0	997.2	NA	0.0000		9999	5940	11220	0	0
2019/04/22 05:23:00	BASE	0.00	95	1.39	97	-4.2	84	-6.4	0	0	997.2	NA	0.0000		9999	5910	11290	0	0
2019/04/22 05:24:00	BASE	0.00	81	1.34	102	-4.1	84	-6.4	0	0	997.2	NA	0.0000		9999	5940	11420	0	0
2019/04/22 05:25:00	BASE	0.00	66	1.34	102	-4.1	84	-6.5	0	0	997.2	NA	0.0000		9999	5910	11350	0	0
2019/04/22 05:26:00	BASE	0.00	46	1.29	102	-4.1	83	-6.5	0	0	997.2	NA	0.0000		9999	5870	0	0	0
2019/04/22 05:27:00	BASE	0.00	33	1.29	102	-4.0	83	-6.5	0	0	997.2	NA	0.0000		9999	5870	0	0	0
2019/04/22 05:28:00	BASE	0.00	33	1.29	102	-4.0	83	-6.5	0	0	997.2	NA	0.0000		9999	5870	0	0	0
2019/04/22 05:29:00	BASE	0.00	48	1.13	102	-4.0	83	-6.4	0	0	997.2	NA	0.0000		9999	5970	0	0	0
2019/04/22 05:30:00	BASE	0.00	143	1.08	102	-3.9	83	-6.4	0	0	997.2	NA	0.0000		9999	5910	0	0	0
2019/04/22 05:31:00	BASE	0.00	181	M	M	-3.9	83	-6.4	0	0	997.2	NA	0.0000		9999	5870	0	0	0
2019/04/22 05:32:00	BASE	0.00	184	M	M	-3.9	83	-6.4	0	0	997.1	NA	0.0000		9999	5970	0	0	0
2019/04/22 05:33:00	BASE	0.00	184	M	M	-4.0	83	-6.4	0	0	997.1	NA	0.0000		9999	5910	0	0	0
2019/04/22 05:34:00	BASE	0.00	187	M	M	-4.0	83	-6.5	0	0	997.1	NA	0.0000		9999	5940	0	0	0
2019/04/22 05:35:00	BASE	0.00	189	M	M	-4.0	83	-6.5	0	0	997.1	NA	0.0000		9999	5910	0	0	0
2019/04/22 05:36:00	BASE	0.13	183	1.08	174	-4.1	83	-6.6	0	0	997.1	NA	0.0000		9999	5910	0	0	0
2019/04/22 05:37:00	BASE	0.76	173	1.39	169	-4.1	83	-6.5	0	0	997.1	NA	0.0000		9999	5940	0	0	0
2019/04/22 05:38:00	BASE	1.39	168	1.65	162	-4.1	84	-6.5	0	0	997.1	NA	0.0000		9999	5840	0	0	0
2019/04/22 05:39:00	BASE	1.65	161	1.85	155	-4.2	84	-6.4	0	0	997.1	NA	0.0000		9999	5910	0	0	0
2019/04/22 05:40:00	BASE	1.73	151	1.95	159	-4.2	85	-6.4	0	0	997.1	NA	0.0000		9999	6000	0	0	0
2019/04/22 05:41:00	BASE	1.85	147	2.26	155	-4.2	86	-6.3	0	0	997.1	NA	0.0000		9999	5970	0	0	0
2019/04/22 05:42:00	BASE	2.25	151	2.73	152	-4.2	86	-6.2	0	0	997.1	NA	0.0000		9999	6000	0	0	0
2019/04/22 05:43:00	BASE	2.58	151	3.29	145	-4.3	87	-6.1	0	0	997.2	NA	0.0000		9999	6040	0	0	0
2019/04/22 05:44:00	BASE	3.02	145	3.81	141	-4.3	87	-6.1	0	0	997.2	NA	0.0000		9999	5970	0	0	0
2019/04/22 05:45:00	BASE	3.62	137	5.25	128	-4.3	88	-6.0	0	0	997.2	NA	0.0000		9999	5970	0	0	0
2019/04/22 05:46:00	BASE	4.21	130	5.50	126	-4.3	88	-5.9	0	0	997.2	NA	0.0000		9999	6000	0	0	0
2019/04/22 05:47:00	BASE	4.24	127	5.50	126	-4.3	89	-5.9	0	0	997.2	NA	0.0000		9999	5870	0	0	0
2019/04/22 05:48:00	BASE	3.43	120	5.50	126	-4.3	89	-5.8	0	0	997.2	NA	0.0000		9999	5940	0	0	0
2019/04/22 05:49:00	BASE	2.96	116	5.50	126	-4.3	89	-5.8	0	0	997.2	NA	0.0000		9999	5840	0	0	0
2019/04/22 05:50:00	BASE	3.16	118	5.50	126	-4.3	90	-5.7	0	0	997.2	NA	0.0000		9999	5910	0	0	0
2019/04/22 05:51:00	BASE	4.04	118	5.50	126	-4.2	90	-5.7	0	0	997.2	NA	0.0000		9999	6040	0	0	0
2019/04/22 05:52:00	BASE	4.92	118	5.71	122	-4.2	90	-5.6	0	0	997.1	NA	0.0000		9999	6040	11940	0	0
2019/04/22 05:53:00	BASE	5.09	122	5.71	125	-4.2	90	-5.6	0	0	997.1	NA	0.0000		9999	5970	0	0	0
2019/04/22 05:54:00	BASE	4.95	122	5.86	127	-4.2	90	-5.6	0	0	997.2	NA	0.0000		9999	6070	0	0	0
2019/04/22 05:55:00	BASE	4.86	122	5.86	127	-4.2	90	-5.6	0	0	997.1	NA	0.0000		9999	6000	0	0	0
2019/04/22 05:56:00	BASE	4.79	123	5.86	127	-4.2	90	-5.5	0	0	997.2	NA	0.0000		9999	6040	0	0	0
2019/04/22 05:57:00	BASE	4.61	122	5.86	127	-4.1	90	-5.5	0	0	997.1	NA	0.0000		9999	6070	0	0	0
2019/04/22 05:58:00	BASE	4.66	122	5.86	127	-4.1	90	-5.5	0	0	997.1	NA	0.0000		9999	6040	0	0	0
2019/04/22 05:59:00	BASE	4.87	125	5.86	127	-4.1	90	-5.5	0	0	997.1	NA	0.0000		9999	6000	0	0	0
2019/04/22 06:00:00	BASE	4.56	127	5.86	127	-4.2	90	-5.6	0	0	997.1	NA	0.0000		9999	0	0	0	0
2019/04/22 06:01:00	BASE	4.32	127	5.86	127	-4.2	90	-5.6	0	0	997.1	NA	0.0000		9999	6140	0	0	0
2019/04/22 06:02:00	BASE	4.49	126	5.86	127	-4.2	90	-5.6	0	0	997.1	NA	0.0000		9999	6070	0	0	0
2019/04/22 06:03:00	BASE	4.69	124	5.86	127	-4.2	90	-5.6	0	0	997.1	NA	0.0000		9999	6170	0	0	0
2019/04/22 06:04:00	BASE	4.82	122	6.12	118	-4.3	90	-5.7	0	0	997.1	NA	0.0000		9999	6140	0	0	0
2019/04/22 06:05:00	BASE	5.35	120	6.33	120	-4.2	90	-5.6	0	0	997.1	NA	0.0000		9999	6070	0	0	0
2019/04/22 06:06:00	BASE	5.78	120	6.33	120	-4.2	90	-5.6	0	0	997.0	NA	0.0000		9999	6100	0	0	0
2019/04/22 06:07:00	BASE	5.34	123	6.33	120	-4.2	90	-5.6	0	0	997.0	NA	0.0000		9999	6070	0	0	0
2019/04/22 06:08:00	BASE	4.96	122	6.33	120	-4.2	90	-5.6	0	0	997.0	NA	0.0000		9999	6100	0	0	0
2019/04/22 06:09:00	BASE	4.91	122	6.33	120	-4.2	90	-5.6	0	0	997.0	NA	0.0000		9999	19100	0	0	0
2019/04/22 06:10:00	BASE	5.06	122	6.33	120	-4.2	90	-5.5	0	0	997.0	NA	0.0000		9999	19030	0	0	0
2019/04/22 06:11:00	BASE	5.11	122	6.33	120	-4.2	90	-5.5	0	0	997.0	NA	0.0000		9999	18930	0	0	0
2019/04/22 06:12:00	BASE	4.71	119	6.33	120	-4.2	90	-5.5	0	0	997.0	NA	0.0000		9999	18900	0	0	0
2019/04/22 06:13:00	BASE	4.86	118	6.33	120	-4.2	90	-5.5	0	0	997.0	NA	0.0000		9999	18870	0	0	0
2019/04/22 06:14:00	BASE	5.13	119	6.33	120	-4.3	91	-5.6	0	0	997.0	NA	0.0000		9999	18870	0	0	0
2019/04/22 06:15:00	BASE	4.64	118	6.22	118	-4.3	91	-5.6	0	0	997.0	NA	0.0000		9999	18870	0	0	0
2019/04/22 06:16:00	BASE	4.68	119	6.22	118	-4.3	91	-5.6	0	0	996.9	NA	0.0000		9999	18800	0	0	0
2019/04/22 06:17:00	BASE	4.91	118	6.22	118	-4.4	91	-5.7	0	0	996.8	NA	0.0000		9999	18800	0	0	0
2019/04/22 06:18:00	BASE	5.27	116	6.22	118	-4.4	91	-5.7	0	0	996.8	NA	0.0000		9999	18800	0	0	0
2019/04/22 06:19:00	BASE	5.59	118	6.38	127	-4.4	91	-5.6	0	0	996.8	NA	0.0000		9999	18800	0	0	0
2019/04/22 06:20:00	BASE	5.46	121	6.38	127	-4.4	91	-5.6	0	0	996.8	NA	0.0000		9999	18800	0	0	0
2019/04/22 06:21:00	BASE	5.17	123	6.38	127	-4.4	92	-5.5	0	0	996.8	NA	0.0000		9999	18770	0	0	0
2019/04/22 06:22:00	BASE	4.83	125	6.38	127	-4.3	92	-5.4	0	0	996.8	NA	0.0000		9999	18770	0	0	0
2019/04/22 06:23:00	BASE	4.69	123	6.38	127	-4.2	92	-5.3	0	0	996.8	NA	0.0000		9999	18770	0	0	0
2019/04/22 06:24:00	BASE	4.50	120	6.38	127	-4.1	92	-5.3	0	0	996.8	NA	0.0000		9999	11480	18730	0	0
2019/04/22 06:25:00	BASE	4.64	121	6.38	127	-4.1	92	-5.3	0	0	996.8	NA	0.0000		9999	18700	0	0	0
2019/04/22 06:26:01	BASE	5.02	122	6.38	127	-4.1	91	-5.3	0	0	996.8	NA	0.0000		9999	11450	18700	0	0
2019/04/22 06:27:01	BASE	5.17	121	6.38	127	-4.1	91	-5.3	0	0	996.8	NA	0.0000		9999	11420	18670	0	0
2019/04/22 06:28:00	BASE	5.64	121	6.79	120	-4.1	91	-5.4	0	0	996.8	NA	0.0000		9999	18670	0	0	0
2019/04/22 06:29:00	BASE	6.40	119	7.51	124	-4.2	91	-5.4	0	0	996.7	NA	0.0000		9999	11350	18670	0	0
2019/04/22 06:30:00	BASE	6.86	118	8.03	124	-4.2	91	-5.4	0	0	996.7	NA	0.0000		9999	11320	18640	0	0
2019/04/22 06:31:00	BASE	7.03	119	8.03	124	-4.2	91	-5.5	0	0	996.7	NA	0.0000		9999	11290	18600	0	0
2019/04/22 06:32:00	BASE	6.88	119	8.03	124	-4.1	91	-5.5	0	0	996.7	NA	0.0000		9999	11250	18640	0	0
2019/04/22 06:33:01	BASE	6.32	119	8.03	124	-4.1	90	-5.5	0	0	996.7	NA	0.0000		9999	11250	0	0	0
2019/04/22 06:34:00	BASE	6.36	118	8.03	124	-4.1	90	-5.5	0	0	996.7	NA	0.0000		9999	11190	18640	0	0
2019/04/22 06:35:00	BASE	7.05	118	8.03	124	-4.1	90	-5.5	0	0	996.6	NA	0.0000		9999	9910	11220	18570	0
2019/04/22 06:36:00	BASE	6.74	116	8.03	124	-4.1	90	-5.5	0	0	996.6	NA	0.0000		9999	11190	18600	0	0
2019/04/22 06:37:00	BASE	6.25	118	8.03	124	-4.1	90	-5.5	0	0	996.6	NA	0.0000		9999	10270	18640	0	0
2019/04/22 06:38:00	BASE	5.96	123	8.03	124	-4.1	90	-5.5	0	0	996.6	NA	0.0000		9999	10240	11120	0	0
2019/04/22 06:39:01	BASE	5.73	120	8.03	124	-4.1	89	-5.6	0	0	996.6	NA	0.0000		9999	11160	18670	0	0
2019/04/22 06:40:01	BASE	5.13	117	7.82	122	-4.0	89	-5.6	0	0	996.6	NA	0.0000		9999	11090	0	0	0
2019/04/22 06:41:00	BASE	4.97	123	7.82	122	-4.0	89	-5.6	0	0	996.6	NA	0.0000		9999	10010	0	0	0
2019/04/22 06:42:00	BASE	5.02	123	7.82	122	-4.0	89	-5.6	0	0	996.6	NA	0.0000		9999	11060	0	0	0
2019/04/22 06:43:00	BASE	4.32	115	7.82	122	-4.0	89	-5.6	0	0	996.6	NA	0.0000		9999	11090	0	0	0
2019/04/22 06:44:00	BASE	4.39	119	7.82	122	-4.0	89	-5.6	0	0	996.6	NA	0.0000		9999	9650	11060	0	0
2019/04/22 06:45:00	BASE	4.85	123	7.20	117	-4.0	89	-5.6	0	0	996.6	NA	0.0000		9999	11060	0	0	0
2019/04/22 06:46:00	BASE	4.93	119	7.20	117	-4.0	89	-5.6	0	0	996.6	NA	0.0000		9999	10990	0	0	0
2019/04/22 06:47:00	BASE	5.11	116	7.20	117	-4.0	89	-5.5	0	0	996.6	NA	0.0000		9999	10960	0	0	0
2019/04/22 06:48:00	BASE	5.47	116	7.20	117	-3.9	89	-5.5	0	0	996.6	NA	0.0000		9999	10960	0	0	0
2019/04/22 06:49:00	BASE	5.63	117	6.33	116	-3.9	89	-5.5	0	0	996.6	NA	0.0000		9999	10960	0	0	0
2019/04/22 06:50:00	BASE	5.50	117	6.33	116	-3.8	88	-5.5	0	0	996.6	NA	0.0000		9999	10960	0	0	0
2019/04/22 06:51:00	BASE	4.67	114	6.33	116	-3.8	88	-5.5	0	0	996.6	NA	0.0000		9999	10930	0	0	0
2019/04/22 06:52:00	BASE	3.92	114	6.33	116	-3.8	88	-5.6	0	0	996.6	NA	0.0000		9999	10890	0	0	0
2019/04/22 06:53:00	BASE	3.64	115	6.33	116	-3.9	87	-5.6	0	0	996.6	NA	0.0000		9999	10960	0	0	0
2019/04/22 06:54:00	BASE	3.50	111	6.33	116	-3.9	87	-5.6	0	0	996.6	NA	0.0000		9999	10890	0	0	0
2019/04/22 06:55:00	BASE	3.37	104	6.33	116	-3.9	87	-5.7	0	0	996.5	NA	0.0000		9999	10830	0	0	0
2019/04/22 06:56:00	BASE	3.04	103	6.33	116	-3.9	88	-5.7	0	0	996.5	NA	0.0000		9999	10830	0	0	0
2019/04/22 06:57:00	BASE	2.97	101	6.33	116	-3.9	88	-5.6	0	0	996.5	NA	0.0000		9999	10760	0	0	0
2019/04/22 06:58:00	BASE	2.71	95	6.22	119	-3.9	88	-5.6	0	0	996.5	NA	0.0000		9999	10790	0	0	0
2019/04/22 06:59:00	BASE	2.02	104	5.86	118	-3.9	88	-5.5	0	0	996.5	NA	0.0000		9999	10760	0	0	0
2019/04/22 07:00:00	BASE	1.97	106	4.84	117	-3.8	88	-5.5	0	0	996.5	NA	0.0000		9999	10700	0	0	0
2019/04/22 07:01:00	BASE	2.19	102	4.32	120	-3.7	88	-5.4	0	0	996.5	NA	0.0000		9999	10700	0	0	0
2019/04/22 07:02:00	BASE	2.37	108	4.32	120	-3.7	88	-5.4	0	0	996.5	NA	0.0000		9999	10730	0	0	0
2019/04/22 07:03:00	BASE	2.70	108	4.01	111	-3.7	88	-5.4	0	0	996.5	NA	0.0000		9999	10660	0	0	0
2019/04/22 07:04:00	BASE	2.69	110	3.96	98	-3.7	88	-5.4	0	0	996.5	NA	0.0000		9999	10630	0	0	0
2019/04/22 07:05:00	BASE	2.43	114	3.55	94	-3.7	88	-5.5	0	0	996.5	NA	0.0000		9999	10530	0	0	0
2019/04/22 07:06:00	BASE	2.26	113	3.55	94	-3.8	88	-5.5	0	0	996.5	NA	0.0000		9999	10500	0	0	0
2019/04/22 07:07:00	BASE	2.17	104	2.98	109	-3.8	88	-5.5	0	0	996.5	NA	0.0000		9999	10500	0	0	0
2019/04/22 07:08:00	BASE	1.92	92	2.98	109	-3.8	88	-5.4	0	0	996.5	NA	0.0000		9999	10530	0	0	0
2019/04/22 07:09:00	BASE	1.87	84	2.98	109	-3.7	88	-5.4	0	0	996.5	NA	0.0000		9999	10500	0	0	0
2019/04/22 07:10:00	BASE	2.00	81	2.98	109	-3.7	88	-5.5	0	0	996.5	NA	0.0000		9999	10400	0	0	0
2019/04/22 07:11:00	BASE	1.99	78	2.98	109	-3.7	88	-5.4	0	0	996.5	NA	0.0000		9999	10340	0	0	0
2019/04/22 07:12:00	BASE	2.08	79	2.98	109	-3.6	88	-5.3	0	0	996.5	NA	0.0000		9999	10170	0	0	0
2019/04/22 07:13:00	BASE	2.28	83	2.83	106	-3.5	87	-5.3	0	0	996.4	NA	0.0000		9999	10200	0	0	0
2019/04/22 07:14:00	BASE	2.42	90	2.73	90	-3.4	87	-5.3	0	0	996.4	NA	0.0000		9999	10170	0	0	0
2019/04/22 07:15:00	BASE	2.39	96	2.78	94	-3.3	86	-5.2	0	0	996.4	NA	0.0000		9999	10200	0	0	0
2019/04/22 07:16:00	BASE	2.66	96	3.19	94	-3.2	85	-5.3	0	0	996.4	NA	0.0000		9999	10200	0	0	0
2019/04/22 07:17:00	BASE	3.01	97	3.81	105	-3.2	85	-5.4	0	0	996.3	NA	0.0000		9999	10240	0	0	0
2019/04/22 07:18:00	BASE	3.13	106	3.81	105	-3.2	84	-5.5	0	0	996.3	NA	0.0000		9999	10270	0	0	0
2019/04/22 07:19:00	BASE	3.20	110	3.81	105	-3.3	84	-5.6	0	0	996.3	NA	0.0000		9999	10170	0	0	0
2019/04/22 07:20:00	BASE	3.16	112	3.81	105	-3.3	84	-5.7	0	0	996.2	NA	0.0000		9999	10110	0	0	0
2019/04/22 07:21:00	BASE	3.17	115	3.81	105	-3.4	84	-5.7	0	0	996.1	NA	0.0000		9999	10240	0	0	0
2019/04/22 07:22:00	BASE	3.19	113	3.81	105	-3.5	85	-5.7	0	0	996.1	NA	0.0000		9999	10300	0	0	0
2019/04/22 07:23:00	BASE	3.14	113	3.81	105	-3.6	85	-5.7	0	0	996.1	NA	0.0000		9999	10270	0	0	0
2019/04/22 07:24:00	BASE	3.01	120	3.81	105	-3.6	86	-5.6	0	0	996.1	NA	0.0000		9999	10240	0	0	0
2019/04/22 07:25:00	BASE	2.70	119	3.81	105	-3.5	86	-5.5	0	0	996.1	NA	0.0000		9999	10140	0	0	0
2019/04/22 07:26:00	BASE	2.38	115	3.81	105	-3.5	86	-5.4	0	0	996.1	NA	0.0000		9999	7480	10070	0	0
2019/04/22 07:27:00	BASE	2.44	112	3.65	109	-3.4	86	-5.4	0	0	996.1	NA	0.0000		9999	7450	10170	0	0
2019/04/22 07:28:00	BASE	2.74	113	3.65	109	-3.4	86	-5.3	0	0	996.1	NA	0.0000		9999	10140	0	0	0
2019/04/22 07:29:00	BASE	2.91	115	3.55	124	-3.3	86	-5.3	0	0	996.1	NA	0.0000		9999	10140	0	0	0
2019/04/22 07:30:00	BASE	3.18	113	4.06	120	-3.4	86	-5.4	0	0	996.1	NA	0.0000		9999	10140	0	0	0
2019/04/22 07:31:00	BASE	3.36	113	4.06	112	-3.4	86	-5.4	0	0	996.1	NA	0.0000		9999	10140	0	0	0
2019/04/22 07:32:00	BASE	3.17	119	4.06	112	-3.4	85	-5.5	0	0	996.0	NA	0.0000		9999	10070	0	0	0
2019/04/22 07:33:00	BASE	3.07	123	4.06	112	-3.3	84	-5.7	0	0	996.0	NA	0.0000		9999	10010	0	0	0
2019/04/22 07:34:00	BASE	3.16	121	4.06	112	-3.3	83	-5.8	0	0	996.0	NA	0.0000		9999	9970	0	0	0
2019/04/22 07:35:00	BASE	3.09	123	4.06	112	-3.3	81	-6.1	0	0	996.0	NA	0.0000		9999	9970	0	0	0
2019/04/22 07:36:00	BASE	2.69	125	4.06	112	-3.2	80	-6.2	0	0	996.1	NA	0.0000		9999	9940	0	0	0
2019/04/22 07:37:00	BASE	2.23	112	4.06	112	-3.3	79	-6.3	0	0	996.1	NA	0.0000		9999	9940	0	0	0
2019/04/22 07:38:00	BASE	2.25	98	4.06	112	-3.3	79	-6.4	0	0	996.1	NA	0.0000		9999	9940	0	0	0
2019/04/22 07:39:00	BASE	2.25	96	4.06	112	-3.4	79	-6.4	0	0	996.1	NA	0.0000		9999	10040	0	0	0
2019/04/22 07:40:00	BASE	2.88	101	5.35	113	-3.4	80	-6.4	0	0	996.1	NA	0.0000		9999	9940	0	0	0
2019/04/22 07:41:00	BASE	4.54	113	6.07	123	-3.4	79	-6.5	0	0	996.1	NA	0.0000		9999	9940	0	0	0
2019/04/22 07:42:00	BASE	5.48	117	6.07	123	-3.5	79	-6.6	0	0	996.1	NA	0.0000		9999	9910	0	0	0
2019/04/22 07:43:00	BASE	4.93	118	6.07	123	-3.5	78	-6.8	0	0	996.0	NA	0.0000		9999	9880	0	0	0
2019/04/22 07:44:00	BASE	4.84	114	6.43	107	-3.5	76	-7.1	0	0	996.0	NA	0.0000		9999	9810	0	0	0
2019/04/22 07:45:00	BASE	5.88	111	7.05	111	-3.5	75	-7.4	0	0	996.0	NA	0.0000		9999	5810	9780	0	0
2019/04/22 07:46:00	BASE	5.90	116	7.05	111	-3.5	73	-7.6	0	0	996.0	NA	0.0000		9999	5770	9710	0	0
2019/04/22 07:47:00	BASE	5.05	115	7.05	111	-3.5	72	-7.8	0	0	996.0	NA	0.0000		9999	5840	8430	9680	0
2019/04/22 07:48:00	BASE	5.47	113	7.05	120	-3.4	70	-8.1	0	0	996.0	NA	0.0000		9999	5870	9610	0	0
2019/04/22 07:49:00	BASE	6.13	116	7.05	120	-3.4	70	-8.2	0	0	996.0	NA	0.0000		9999	5870	8370	9550	0
2019/04/22 07:50:00	BASE	5.62	114	7.05	120	-3.4	69	-8.3	0	0	996.0	NA	0.0000		9999	8370	9550	0	0
2019/04/22 07:51:00	BASE	5.24	113	7.05	120	-3.4	68	-8.4	0	0	996.0	NA	0.0000		9999	8300	9480	0	0
2019/04/22 07:52:00	BASE	5.31	114	7.31	118	-3.4	68	-8.5	0	0	996.0	NA	0.0000		9999	5970	8270	9480	0
2019/04/22 07:53:00	BASE	5.94	117	7.31	118	-3.4	68	-8.6	0	0	996.0	NA	0.0000		9999	8240	9420	0	0
2019/04/22 07:54:00	BASE	6.68	118	7.72	122	-3.4	67	-8.6	0	0	996.0	NA	0.0000		9999	7740	9380	0	0
2019/04/22 07:55:00	BASE	5.81	117	7.72	122	-3.3	67	-8.6	0	0	996.0	NA	0.0000		9999	7710	8070	0	0
2019/04/22 07:56:00	BASE	5.55	118	7.72	122	-3.3	67	-8.5	0	0	996.0	NA	0.0000		9999	6040	7710	8100	0
2019/04/22 07:57:00	BASE	5.96	119	7.72	122	-3.2	67	-8.5	0	0	996.0	NA	0.0000		9999	7680	0	0	0
2019/04/22 07:58:00	BASE	5.39	123	7.72	122	-3.2	67	-8.4	0	0	996.0	NA	0.0000		9999	7640	0	0	0
2019/04/22 07:59:00	BASE	4.85	129	7.72	122	-3.2	67	-8.4	0	0	996.0	NA	0.0000		9999	7810	0	0	0
2019/04/22 08:00:00	BASE	4.48	129	7.72	122	-3.2	67	-8.4	0	0	996.0	NA	0.0000		9999	7610	8300	0	0
2019/04/22 08:01:00	BASE	5.06	127	7.72	122	-3.3	67	-8.5	0	0	996.0	NA	0.0000		9999	7610	8370	0	0
2019/04/22 08:02:00	BASE	5.55	125	7.72	122	-3.3	67	-8.5	0	0	996.0	NA	0.0000		9999	7610	0	0	0
2019/04/22 08:03:00	BASE	5.32	125	7.72	122	-3.3	67	-8.5	0	0	996.0	NA	0.0000		9999	7610	8370	0	0
2019/04/22 08:04:00	BASE	5.01	125	7.10	113	-3.3	67	-8.5	0	0	996.0	NA	0.0000		9999	7580	8100	0	0
2019/04/22 08:05:00	BASE	4.41	123	7.10	113	-3.2	67	-8.4	0	0	996.0	NA	0.0000		9999	7610	8240	8830	0
2019/04/22 08:06:00	BASE	4.68	125	7.10	113	-3.2	68	-8.3	0	0	996.0	NA	0.0000		9999	7580	8240	8790	0
2019/04/22 08:07:00	BASE	5.84	126	7.00	124	-3.2	68	-8.2	0	0	996.0	NA	0.0000		9999	7550	8200	0	0
2019/04/22 08:08:00	BASE	6.28	127	7.00	124	-3.1	69	-8.1	0	0	996.0	NA	0.0000		9999	8200	10500	0	0
2019/04/22 08:09:00	BASE	5.99	131	7.00	124	-3.1	69	-7.9	0	0	996.0	NA	0.0000		9999	7610	10270	0	0
2019/04/22 08:10:00	BASE	5.17	130	7.00	124	-3.1	71	-7.7	0	0	996.0	NA	0.0000		9999	5540	7640	0	0
2019/04/22 08:11:00	BASE	4.88	129	7.00	124	-3.1	72	-7.4	0	0	996.0	NA	0.0000		9999	5540	7580	8140	0
2019/04/22 08:12:00	BASE	4.76	131	7.00	124	-3.1	74	-7.2	0	0	996.0	NA	0.0000		9999	5540	7550	0	0
2019/04/22 08:13:00	BASE	5.02	129	7.00	124	-3.1	75	-7.0	0	0	996.0	NA	0.0000		9999	5540	7970	0	0
2019/04/22 08:14:00	BASE	5.78	130	7.00	124	-3.1	76	-6.7	0	0	996.0	NA	0.0000		9999	5540	7910	0	0
2019/04/22 08:15:00	BASE	5.43	137	7.00	124	-3.1	77	-6.5	0	0	996.0	NA	0.0000		9999	5580	7940	0	0
2019/04/22 08:16:00	BASE	4.90	138	7.00	124	-3.1	78	-6.3	0	0	996.0	NA	0.0000		9999	5580	0	0	0
2019/04/22 08:17:00	BASE	4.54	136	6.74	130	-3.1	79	-6.2	0	0	996.0	NA	0.0000		9999	5540	0	0	0
2019/04/22 08:18:00	BASE	4.57	131	6.43	132	-3.0	80	-6.0	0	0	996.0	NA	0.0000		9999	5540	0	0	0
2019/04/22 08:19:00	BASE	4.62	129	6.43	132	-3.0	80	-5.9	0	0	996.0	NA	0.0000		9999	5540	0	0	0
2019/04/22 08:20:00	BASE	4.22	133	6.43	132	-3.0	81	-5.8	0	0	996.0	NA	0.0000		9999	5580	0	0	0
2019/04/22 08:21:00	BASE	4.01	128	6.43	132	-3.0	81	-5.8	0	0	996.0	NA	0.0000		9999	5540	0	0	0
2019/04/22 08:22:00	BASE	4.48	126	6.43	132	-3.0	82	-5.7	0	0	996.0	NA	0.0000		9999	5680	7910	0	0
2019/04/22 08:23:00	BASE	5.04	131	6.28	132	-3.0	82	-5.6	0	0	996.0	NA	0.0000		9999	5540	0	0	0
2019/04/22 08:24:00	BASE	5.00	129	6.79	124	-3.0	83	-5.5	0	0	996.0	NA	0.0000		9999	5480	0	0	0
2019/04/22 08:25:00	BASE	5.04	123	6.79	124	-3.0	83	-5.5	0	0	996.0	NA	0.0000		9999	5450	0	0	0
2019/04/22 08:26:00	BASE	4.97	119	6.79	124	-3.0	83	-5.4	0	0	996.0	NA	0.0000		9999	5450	5840	7610	0
2019/04/22 08:27:00	BASE	5.15	119	6.79	124	-3.0	83	-5.4	0	0	996.0	NA	0.0000		9999	5450	0	0	0
2019/04/22 08:28:00	BASE	5.61	119	6.79	124	-2.9	83	-5.4	0	0	995.9	NA	0.0000		9999	5910	7480	0	0
2019/04/22 08:29:00	BASE	5.89	119	6.84	120	-2.9	83	-5.4	0	0	995.9	NA	0.0000		9999	5450	7450	0	0
2019/04/22 08:30:00	BASE	6.12	121	6.84	120	-2.9	83	-5.4	0	0	995.9	NA	0.0000		9999	5450	0	0	0
2019/04/22 08:31:00	BASE	6.08	122	6.84	120	-2.9	82	-5.4	0	0	995.9	NA	0.0000		9999	5410	0	0	0
2019/04/22 08:32:00	BASE	5.83	123	6.84	120	-2.8	82	-5.4	0	0	995.8	NA	0.0000		9999	5410	0	0	0
2019/04/22 08:33:00	BASE	5.57	123	6.84	120	-2.8	82	-5.4	0	0	995.8	NA	0.0000		9999	5350	0	0	0
2019/04/22 08:34:00	BASE	5.62	123	6.84	120	-2.8	82	-5.4	0	0	995.8	NA	0.0000		9999	5380	6170	0	0
2019/04/22 08:35:00	BASE	5.72	126	6.84	120	-2.8	82	-5.4	0	0	995.8	NA	0.0000		9999	5350	6170	0	0
2019/04/22 08:36:00	BASE	5.86	126	6.84	120	-2.8	82	-5.4	0	0	995.8	NA	0.0000		9999	5320	0	0	0
2019/04/22 08:37:00	BASE	5.78	124	6.84	120	-2.8	82	-5.5	0	0	995.8	NA	0.0000		9999	5280	0	0	0
2019/04/22 08:38:00	BASE	5.59	125	6.84	120	-2.8	82	-5.5	0	0	995.8	NA	0.0000		9999	5180	0	0	0
2019/04/22 08:39:00	BASE	5.67	126	6.69	129	-2.8	81	-5.5	0	0	995.9	NA	0.0000		9999	5180	0	0	0
2019/04/22 08:40:00	BASE	5.64	126	6.69	129	-2.8	81	-5.6	0	0	995.9	NA	0.0000		9999	5150	0	0	0
2019/04/22 08:41:00	BASE	5.52	127	6.69	129	-2.8	81	-5.6	0	0	995.8	NA	0.0000		9999	5120	0	0	0
2019/04/22 08:42:00	BASE	5.18	127	6.69	129	-2.8	81	-5.7	0	0	995.8	NA	0.0000		9999	5090	0	0	0
2019/04/22 08:43:00	BASE	4.68	126	6.69	129	-2.8	80	-5.7	0	0	995.8	NA	0.0000		9999	5050	0	0	0
2019/04/22 08:44:00	BASE	4.67	123	6.58	129	-2.8	80	-5.8	0	0	995.8	NA	0.0000		9999	5090	0	0	0
2019/04/22 08:45:00	BASE	4.77	122	6.58	129	-2.9	80	-5.9	0	0	995.8	NA	0.0000		9999	5020	0	0	0
2019/04/22 08:46:00	BASE	4.55	124	6.33	125	-2.9	79	-6.0	0	0	995.8	NA	0.0000		9999	4890	0	0	0
2019/04/22 08:47:00	BASE	4.06	128	6.33	125	-2.9	78	-6.2	0	0	995.8	NA	0.0000		9999	4790	0	0	0
2019/04/22 08:48:00	BASE	4.03	129	6.17	128	-2.8	76	-6.5	0	0	995.8	NA	0.0000		9999	4820	0	0	0
2019/04/22 08:49:00	BASE	4.12	128	5.92	118	-2.8	73	-6.9	0	0	995.8	NA	0.0000		9999	4990	0	0	0
2019/04/22 08:50:00	BASE	3.60	132	5.76	127	-2.8	71	-7.3	0	0	995.8	NA	0.0000		9999	5050	0	0	0
2019/04/22 08:51:00	BASE	3.15	135	5.45	128	-2.8	69	-7.7	0	0	995.8	NA	0.0000		9999	5120	0	0	0
2019/04/22 08:52:00	BASE	2.64	128	5.35	122	-2.8	68	-7.8	0	0	995.8	NA	0.0000		9999	4950	0	0	0
2019/04/22 08:53:00	BASE	3.00	117	5.35	122	-2.8	68	-7.9	0	0	995.8	NA	0.0000		9999	4790	0	0	0
2019/04/22 08:54:00	BASE	3.96	111	5.35	122	-2.8	67	-8.1	0	0	995.7	NA	0.0000		9999	4660	0	0	0
2019/04/22 08:55:00	BASE	4.34	110	5.25	125	-2.7	66	-8.2	0	0	995.7	NA	0.0000		9999	4590	0	0	0
2019/04/22 08:56:00	BASE	4.60	113	5.25	116	-2.7	65	-8.3	0	0	995.7	NA	0.0000		9999	4590	0	0	0
2019/04/22 08:57:00	BASE	4.47	120	5.25	116	-2.7	64	-8.5	0	0	995.7	NA	0.0000		9999	4560	0	0	0
2019/04/22 08:58:00	BASE	4.66	125	6.07	125	-2.6	63	-8.7	0	0	995.7	NA	0.0000		9999	4360	0	0	0
2019/04/22 08:59:00	BASE	5.40	124	6.33	125	-2.6	62	-8.8	0	0	995.7	NA	0.0000		9999	4360	0	0	0
2019/04/22 09:00:00	BASE	5.48	123	6.33	125	-2.6	63	-8.7	0	0	995.7	NA	0.0000		9999	4330	0	0	0
2019/04/22 09:01:00	BASE	5.36	126	6.33	129	-2.5	63	-8.6	0	0	995.6	NA	0.0000		9999	4400	0	0	0
2019/04/22 09:02:00	BASE	5.55	126	6.53	128	-2.5	64	-8.5	0	0	995.6	NA	0.0000		9999	4430	0	0	0
2019/04/22 09:03:00	BASE	5.74	125	6.58	130	-2.5	65	-8.3	0	0	995.5	NA	0.0000		9999	4360	0	0	0
2019/04/22 09:04:00	BASE	6.41	124	7.20	127	-2.5	66	-8.1	0	0	995.5	NA	0.0000		9999	4270	0	0	0
2019/04/22 09:05:00	BASE	6.96	125	7.56	125	-2.5	66	-8.0	0	0	995.5	NA	0.0000		9999	4230	0	0	0
2019/04/22 09:06:00	BASE	7.11	126	7.92	119	-2.6	66	-8.0	0	0	995.5	NA	0.0000		9999	4230	0	0	0
2019/04/22 09:07:00	BASE	7.36	125	8.28	125	-2.6	66	-8.0	0	0	995.4	NA	0.0000		9999	4100	0	0	0
2019/04/22 09:08:00	BASE	7.60	125	8.49	124	-2.6	66	-8.1	0	0	995.4	NA	0.0000		9999	4170	0	0	0
2019/04/22 09:09:00	BASE	7.83	123	8.49	124	-2.6	65	-8.2	0	0	995.4	NA	0.0000		9999	4170	0	0	0
2019/04/22 09:10:00	BASE	7.80	124	8.49	124	-2.5	65	-8.2	0	0	995.4	NA	0.0000		9999	4100	0	0	0
2019/04/22 09:11:00	BASE	7.68	126	8.49	124	-2.5	66	-8.0	0	0	995.4	NA	0.0000		9999	4100	0	0	0
2019/04/22 09:12:00	BASE	7.58	126	8.69	124	-2.5	67	-7.8	0	0	995.4	NA	0.0000		9999	4040	0	0	0
2019/04/22 09:13:01	BASE	7.53	127	8.69	124	-2.5	68	-7.6	0	0	995.4	NA	0.0000		9999	4630	0	0	0
2019/04/22 09:14:00	BASE	7.93	130	9.21	130	-2.5	69	-7.5	0	0	995.4	NA	0.0000		9999	4630	0	0	0
2019/04/22 09:15:00	BASE	8.23	130	9.21	130	-2.5	69	-7.4	0	0	995.4	NA	0.0000		9999	4130	0	0	0
2019/04/22 09:16:00	BASE	8.05	128	9.21	130	-2.5	70	-7.3	0	0	995.4	NA	0.0000		9999	4660	0	0	0
2019/04/22 09:17:00	BASE	7.85	129	9.21	130	-2.6	70	-7.3	0	0	995.4	NA	0.0000		9999	4630	0	0	0
2019/04/22 09:18:00	BASE	7.76	129	9.21	130	-2.6	70	-7.3	0	0	995.4	NA	0.0000		9999	4590	0	0	0
2019/04/22 09:19:00	BASE	7.80	128	9.21	130	-2.6	71	-7.2	0	0	995.4	NA	0.0000		9999	4560	0	0	0
2019/04/22 09:20:00	BASE	6.96	129	9.21	130	-2.6	71	-7.1	0	0	995.4	NA	0.0000		9999	4460	0	0	0
2019/04/22 09:21:00	BASE	6.60	134	9.21	130	-2.6	71	-7.1	0	0	995.4	NA	0.0000		9999	4270	0	0	0
2019/04/22 09:22:00	BASE	7.61	131	9.21	130	-2.6	72	-7.0	0	0	995.4	NA	0.0000		9999	4130	0	0	0
2019/04/22 09:23:00	BASE	7.19	123	9.21	130	-2.6	72	-6.9	0	0	995.4	NA	0.0000		9999	4170	0	0	0
2019/04/22 09:24:00	BASE	6.10	126	8.75	123	-2.6	72	-6.9	0	0	995.4	NA	0.0000		9999	4200	0	0	0
2019/04/22 09:25:00	BASE	6.81	131	8.75	123	-2.6	73	-6.8	0	0	995.4	NA	0.0000		9999	4200	0	0	0
2019/04/22 09:26:00	BASE	7.66	134	8.75	123	-2.6	73	-6.8	0	0	995.4	NA	0.0000		9999	4100	0	0	0
2019/04/22 09:27:00	BASE	7.36	140	8.75	123	-2.5	73	-6.7	0	0	995.4	NA	0.0000		9999	4040	0	0	0
2019/04/22 09:28:00	BASE	7.17	140	8.75	123	-2.5	73	-6.6	0	0	995.4	NA	0.0000		9999	4040	0	0	0
2019/04/22 09:29:00	BASE	7.25	140	8.75	123	-2.5	74	-6.6	0	0	995.4	NA	0.0000		9999	4070	0	0	0
2019/04/22 09:30:00	BASE	7.68	138	9.00	132	-2.5	74	-6.5	0	0	995.4	NA	0.0000		9999	3940	0	0	0
2019/04/22 09:31:00	BASE	7.32	137	9.00	132	-2.5	75	-6.4	0	0	995.4	NA	0.0000		9999	3900	0	0	0
2019/04/22 09:32:00	BASE	5.95	145	9.00	132	-2.5	75	-6.4	0	0	995.4	NA	0.0000		9999	4040	0	0	0
2019/04/22 09:33:00	BASE	5.93	145	9.00	132	-2.5	75	-6.3	0	0	995.4	NA	0.0000		9999	4040	0	0	0
2019/04/22 09:34:00	BASE	6.60	144	9.00	132	-2.5	76	-6.2	0	0	995.4	NA	0.0000		9999	3900	0	0	0
2019/04/22 09:35:00	BASE	6.73	146	9.00	132	-2.5	76	-6.1	0	0	995.4	NA	0.0000		9999	3770	0	0	0
2019/04/22 09:36:00	BASE	6.94	145	9.00	132	-2.5	77	-6.0	0	0	995.4	NA	0.0000		9999	3640	0	0	0
2019/04/22 09:37:00	BASE	6.98	142	9.00	132	-2.5	77	-5.9	0	0	995.3	NA	0.0000		9999	3710	0	0	0
2019/04/22 09:38:00	BASE	6.07	146	9.00	132	-2.5	78	-5.8	0	0	995.4	NA	0.0000		9999	3350	0	0	0
2019/04/22 09:39:00	BASE	5.09	152	9.00	132	-2.4	78	-5.8	0	0	995.4	NA	0.0000		9999	3450	0	0	0
2019/04/22 09:40:00	BASE	5.41	153	7.97	140	-2.4	78	-5.7	0	0	995.4	NA	0.0000		9999	3940	0	0	0
2019/04/22 09:41:00	BASE	6.38	151	7.97	140	-2.4	79	-5.6	0	0	995.4	NA	0.0000		9999	3940	0	0	0
2019/04/22 09:42:00	BASE	6.78	147	7.97	140	-2.4	79	-5.6	0	0	995.4	NA	0.0000		9999	4000	0	0	0
2019/04/22 09:43:00	BASE	6.12	142	7.97	140	-2.4	80	-5.5	0	0	995.4	NA	0.0000		9999	4100	0	0	0
2019/04/22 09:44:00	BASE	4.95	142	7.97	140	-2.4	80	-5.4	0	0	995.4	NA	0.0000		9999	3970	0	0	0
2019/04/22 09:45:00	BASE	4.44	143	7.97	140	-2.4	81	-5.3	0	0	995.4	NA	0.0000		9999	3940	0	0	0
2019/04/22 09:46:00	BASE	5.18	139	7.72	141	-2.4	81	-5.2	0	0	995.4	NA	0.0000		9999	3870	0	0	0
2019/04/22 09:47:00	BASE	5.86	134	7.25	149	-2.4	81	-5.1	0	0	995.4	NA	0.0000		9999	4000	0	0	0
2019/04/22 09:48:00	BASE	5.43	133	7.25	149	-2.4	82	-5.1	0	0	995.4	NA	0.0000		9999	4100	0	0	0
2019/04/22 09:49:00	BASE	4.62	139	7.25	149	-2.4	82	-5.1	0	0	995.4	NA	0.0000		9999	2820	0	0	0
2019/04/22 09:50:00	BASE	3.63	144	7.25	149	-2.4	82	-5.0	0	0	995.4	NA	0.0000		9999	2760	0	0	0
2019/04/22 09:51:00	BASE	3.01	138	7.20	143	-2.4	82	-5.0	0	0	995.4	NA	0.0000		9999	2760	0	0	0
2019/04/22 09:52:00	BASE	3.07	123	6.28	143	-2.4	82	-5.0	0	0	995.4	NA	0.0000		9999	2720	0	0	0
2019/04/22 09:53:00	BASE	2.76	106	6.17	130	-2.4	82	-5.0	0	0	995.4	NA	0.0000		9999	2760	0	0	0
2019/04/22 09:54:00	BASE	1.99	63	6.17	130	-2.4	82	-4.9	0	0	995.4	NA	0.0000		9999	3710	4330	0	0
2019/04/22 09:55:00	BASE	1.98	22	6.17	130	-2.4	83	-4.9	0	0	995.4	NA	0.0000		9999	3580	0	0	0
2019/04/22 09:56:00	BASE	2.54	356	6.17	130	-2.4	83	-4.8	0	0	995.4	NA	0.0000		9999	3450	0	0	0
2019/04/22 09:57:00	BASE	2.87	329	5.71	135	-2.4	84	-4.8	0	0	995.4	NA	0.0000		9999	3580	0	0	0
2019/04/22 09:58:00	BASE	2.77	319	4.78	143	-2.3	84	-4.7	0	0	995.4	NA	0.0000		9999	3610	0	0	0
2019/04/22 09:59:00	BASE	2.39	312	3.81	146	-2.3	84	-4.7	0	0	995.4	NA	0.0000		9999	3540	0	0	0
2019/04/22 10:00:00	BASE	2.04	312	3.81	146	-2.3	84	-4.6	0	0	995.4	NA	0.0000		9999	3410	0	0	0
2019/04/22 10:01:00	BASE	1.75	313	3.65	115	-2.3	84	-4.6	0	0	995.4	NA	0.0000		9999	3350	0	0	0
2019/04/22 10:02:00	BASE	2.24	327	3.45	338	-2.3	84	-4.6	0	0	995.4	NA	0.0000		9999	3180	0	0	0
2019/04/22 10:03:00	BASE	3.18	345	3.96	348	-2.3	84	-4.6	0	0	995.4	NA	0.0000		9999	3150	0	0	0
2019/04/22 10:04:00	BASE	4.00	342	4.99	333	-2.3	84	-4.6	0	0	995.4	NA	0.0000		9999	3120	0	0	0
2019/04/22 10:05:00	BASE	4.54	332	5.14	326	-2.3	84	-4.6	0	0	995.4	NA	0.0000		9999	3050	0	0	0
2019/04/22 10:06:00	BASE	4.44	330	5.14	326	-2.3	84	-4.6	0	0	995.4	NA	0.0000		9999	2850	0	0	0
2019/04/22 10:07:00	BASE	4.04	335	5.14	326	-2.3	84	-4.7	0	0	995.4	NA	0.0000		9999	2790	0	0	0
2019/04/22 10:08:00	BASE	3.73	339	5.14	326	-2.4	84	-4.7	0	0	995.4	NA	0.0000		9999	2790	0	0	0
2019/04/22 10:09:00	BASE	3.10	343	5.14	326	-2.4	84	-4.7	0	0	995.4	NA	0.0000		9999	2790	0	0	0
2019/04/22 10:10:00	BASE	2.57	347	5.14	326	-2.4	84	-4.8	0	0	995.4	NA	0.0000		9999	2690	0	0	0
2019/04/22 10:11:00	BASE	2.56	347	5.14	326	-2.5	84	-4.8	0	0	995.4	NA	0.0000		9999	2620	0	0	0
2019/04/22 10:12:00	BASE	2.71	346	5.14	326	-2.5	84	-4.8	0	0	995.4	NA	0.0000		9999	2660	0	0	0
2019/04/22 10:13:00	BASE	2.90	346	5.14	326	-2.5	84	-4.8	0	0	995.4	NA	0.0000		9999	2620	0	0	0
2019/04/22 10:14:00	BASE	2.94	350	5.14	326	-2.5	84	-4.8	0	0	995.3	NA	0.0000		9999	2590	0	0	0
2019/04/22 10:15:00	BASE	3.19	353	4.78	333	-2.5	84	-4.9	0	0	995.3	NA	0.0000		9999	2620	0	0	0
2019/04/22 10:16:00	BASE	3.36	347	4.42	336	-2.5	83	-4.9	0	0	995.3	NA	0.0000		9999	2660	0	0	0
2019/04/22 10:17:00	BASE	3.20	339	3.96	337	-2.4	83	-4.9	0	0	995.3	NA	0.0000		9999	2590	0	0	0
2019/04/22 10:18:00	BASE	3.41	335	4.12	340	-2.4	83	-4.9	0	0	995.3	NA	0.0000		9999	2620	0	0	0
2019/04/22 10:19:00	BASE	4.18	333	4.89	334	-2.4	83	-4.9	0	0	995.3	NA	0.0000		9999	2660	0	0	0
2019/04/22 10:20:00	BASE	4.69	333	4.99	333	-2.4	83	-4.8	0	0	995.3	NA	0.0000		9999	2660	0	0	0
2019/04/22 10:21:00	BASE	4.74	334	4.99	338	-2.4	84	-4.8	0	0	995.3	NA	0.0000		9999	2720	0	0	0
2019/04/22 10:22:00	BASE	4.59	334	4.99	338	-2.4	84	-4.7	0	0	995.3	NA	0.0000		9999	2790	0	0	0
2019/04/22 10:23:00	BASE	4.51	335	4.99	338	-2.4	85	-4.6	0	0	995.3	NA	0.0000		9999	2760	0	0	0
2019/04/22 10:24:00	BASE	4.59	338	4.99	338	-2.4	85	-4.6	0	0	995.3	NA	0.0000		9999	2720	0	0	0
2019/04/22 10:25:00	BASE	4.60	342	5.25	344	-2.4	85	-4.6	0	0	995.3	NA	0.0000		9999	2720	0	0	0
2019/04/22 10:26:00	BASE	4.68	346	5.25	344	-2.4	85	-4.5	0	0	995.3	NA	0.0000		9999	2720	0	0	0
2019/04/22 10:27:00	BASE	4.49	346	5.25	344	-2.4	86	-4.5	0	0	995.3	NA	0.0000		9999	2790	0	0	0
2019/04/22 10:28:00	BASE	4.44	347	5.25	344	-2.5	86	-4.5	0	0	995.3	NA	0.0000		9999	2790	0	0	0
2019/04/22 10:29:00	BASE	4.24	346	5.25	344	-2.5	86	-4.5	0	0	995.3	NA	0.0000		9999	2760	0	0	0
2019/04/22 10:30:00	BASE	3.76	342	5.25	344	-2.5	85	-4.6	0	0	995.3	NA	0.0000		9999	2760	0	0	0
2019/04/22 10:31:00	BASE	3.28	337	5.25	344	-2.4	85	-4.6	0	0	995.3	NA	0.0000		9999	2790	0	0	0
2019/04/22 10:32:00	BASE	2.82	333	5.25	344	-2.4	84	-4.7	0	0	995.3	NA	0.0000		9999	2760	0	0	0
2019/04/22 10:33:00	BASE	3.00	332	5.25	344	-2.4	84	-4.7	0	0	995.3	NA	0.0000		9999	2850	0	0	0
2019/04/22 10:34:00	BASE	3.08	334	5.25	344	-2.4	84	-4.7	0	0	995.3	NA	0.0000		9999	2850	0	0	0
2019/04/22 10:35:00	BASE	2.84	335	5.09	345	-2.3	83	-4.7	0	0	995.3	NA	0.0000		9999	2890	0	0	0
2019/04/22 10:36:00	BASE	2.56	336	5.09	345	-2.3	83	-4.7	0	0	995.3	NA	0.0000		9999	2890	0	0	0
2019/04/22 10:37:00	BASE	2.18	349	5.09	345	-2.2	83	-4.7	0	0	995.3	NA	0.0000		9999	2890	0	0	0
2019/04/22 10:38:00	BASE	1.43	17	4.17	340	-2.2	83	-4.7	0	0	995.3	NA	0.0000		9999	2890	0	0	0
2019/04/22 10:39:00	BASE	1.01	35	4.01	343	-2.1	83	-4.6	0	0	995.3	NA	0.0000		9999	2920	0	0	0
2019/04/22 10:40:00	BASE	1.08	42	3.55	344	-2.1	83	-4.6	0	0	995.3	NA	0.0000		9999	2950	0	0	0
2019/04/22 10:41:00	BASE	0.49	45	3.50	330	-2.1	83	-4.6	0	0	995.3	NA	0.0000		9999	3020	0	0	0
2019/04/22 10:42:00	BASE	0.00	46	3.50	330	-2.2	83	-4.6	0	0	995.3	NA	0.0000		9999	3050	0	0	0
2019/04/22 10:43:00	BASE	0.00	46	3.19	335	-2.2	84	-4.6	0	0	995.3	NA	0.0000		9999	3020	0	0	0
2019/04/22 10:44:00	BASE	0.00	46	3.14	330	-2.2	84	-4.5	0	0	995.3	NA	0.0000		9999	3050	0	0	0
2019/04/22 10:45:00	BASE	0.00	46	2.62	346	-2.1	84	-4.5	0	0	995.3	NA	0.0000		9999	3050	0	0	0
2019/04/22 10:46:00	BASE	0.00	46	2.52	346	-2.1	84	-4.5	0	0	995.3	NA	0.0000		9999	3020	0	0	0
2019/04/22 10:47:00	BASE	0.00	46	1.39	44	-2.1	83	-4.5	0	0	995.3	NA	0.0000		9999	3020	0	0	0
2019/04/22 10:48:00	BASE	0.00	46	1.39	44	-2.1	83	-4.6	0	0	995.3	NA	0.0000		9999	3050	0	0	0
2019/04/22 10:49:00	BASE	0.00	46	1.39	44	-2.1	83	-4.6	0	0	995.3	NA	0.0000		9999	2990	0	0	0
2019/04/22 10:50:00	BASE	0.00	45	M	M	-2.1	83	-4.6	0	0	995.3	NA	0.0000		9999	2950	0	0	0
2019/04/22 10:51:00	BASE	0.00	45	M	M	-2.1	83	-4.6	0	0	995.3	NA	0.0000		9999	2950	0	0	0
2019/04/22 10:52:00	BASE	0.00	45	M	M	-2.1	82	-4.7	0	0	995.2	NA	0.0000		9999	2950	0	0	0
2019/04/22 10:53:00	BASE	0.00	60	M	M	-2.1	82	-4.7	0	0	995.3	NA	0.0000		9999	2920	0	0	0
2019/04/22 10:54:00	BASE	0.00	197	M	M	-2.1	82	-4.7	0	0	995.3	NA	0.0000		9999	2920	0	0	0
2019/04/22 10:55:00	BASE	0.00	229	M	M	-2.1	83	-4.7	0	0	995.2	NA	0.0000		9999	2920	0	0	0
2019/04/22 10:56:00	BASE	0.21	256	1.39	273	-2.2	83	-4.7	0	0	995.2	NA	0.0000		9999	2920	0	0	0
2019/04/22 10:57:00	BASE	0.94	278	1.70	294	-2.2	83	-4.6	0	0	995.2	NA	0.0000		9999	2920	0	0	0
2019/04/22 10:58:00	BASE	1.38	281	1.70	294	-2.2	84	-4.6	0	0	995.3	NA	0.0000		9999	2950	0	0	0
2019/04/22 10:59:00	BASE	1.49	290	1.85	283	-2.2	84	-4.5	0	0	995.3	NA	0.0000		9999	2950	0	0	0
2019/04/22 11:00:00	BASE	1.81	297	2.21	299	-2.2	84	-4.6	0	0	995.2	NA	0.0000		9999	2890	0	0	0
2019/04/22 11:01:00	BASE	2.70	300	4.12	306	-2.2	84	-4.6	0	0	995.2	NA	0.0000		9999	2850	0	0	0
2019/04/22 11:02:00	BASE	3.64	305	4.22	309	-2.2	83	-4.7	0	0	995.2	NA	0.0000		9999	2920	0	0	0
2019/04/22 11:03:00	BASE	3.85	305	4.42	305	-2.2	83	-4.7	0	0	995.2	NA	0.0000		9999	2950	0	0	0
2019/04/22 11:04:00	BASE	3.50	304	4.42	305	-2.2	82	-4.8	0	0	995.2	NA	0.0000		9999	2920	0	0	0
2019/04/22 11:05:00	BASE	2.76	303	4.42	305	-2.2	82	-4.9	0	0	995.2	NA	0.0000		9999	2950	0	0	0
2019/04/22 11:06:00	BASE	2.05	301	4.42	305	-2.2	81	-5.0	0	0	995.2	NA	0.0000		9999	2920	0	0	0
2019/04/22 11:07:00	BASE	2.00	297	4.42	305	-2.2	81	-5.0	0	0	995.2	NA	0.0000		9999	2850	0	0	0
2019/04/22 11:08:00	BASE	2.36	296	4.42	305	-2.2	81	-5.0	0	0	995.3	NA	0.0000		9999	2790	0	0	0
2019/04/22 11:09:00	BASE	2.43	296	4.42	305	-2.2	81	-5.0	0	0	995.2	NA	0.0000		9999	2850	0	0	0
2019/04/22 11:10:00	BASE	2.52	294	4.42	305	-2.2	81	-5.0	0	0	995.3	NA	0.0000		9999	2850	0	0	0
2019/04/22 11:11:00	BASE	2.74	289	4.42	305	-2.2	82	-4.9	0	0	995.3	NA	0.0000		9999	2890	0	0	0
2019/04/22 11:12:00	BASE	3.18	283	4.42	305	-2.2	82	-4.9	0	0	995.3	NA	0.0000		9999	2920	0	0	0
2019/04/22 11:13:00	BASE	3.49	285	3.81	279	-2.2	82	-4.8	0	0	995.3	NA	0.0000		9999	2920	0	0	0
2019/04/22 11:14:00	BASE	3.30	288	3.81	279	-2.2	83	-4.8	0	0	995.3	NA	0.0000		9999	2950	0	0	0
2019/04/22 11:15:00	BASE	2.98	285	3.81	279	-2.2	83	-4.7	0	0	995.2	NA	0.0000		9999	2920	0	0	0
2019/04/22 11:16:00	BASE	2.58	277	3.81	279	-2.2	83	-4.7	0	0	995.2	NA	0.0000		9999	2950	0	0	0
2019/04/22 11:17:00	BASE	1.95	265	3.81	279	-2.2	83	-4.7	0	0	995.2	NA	0.0000		9999	2950	0	0	0
2019/04/22 11:18:00	BASE	1.89	263	3.81	279	-2.2	83	-4.7	0	0	995.2	NA	0.0000		9999	2890	0	0	0
2019/04/22 11:19:00	BASE	2.22	265	3.81	279	-2.2	83	-4.6	0	0	995.2	NA	0.0000		9999	2620	0	0	0
2019/04/22 11:20:00	BASE	2.39	261	3.81	279	-2.2	84	-4.6	0	0	995.2	NA	0.0000		9999	2820	0	0	0
2019/04/22 11:21:00	BASE	2.60	260	3.81	279	-2.2	84	-4.6	0	0	995.2	NA	0.0000		9999	2820	0	0	0
2019/04/22 11:22:00	BASE	2.53	258	3.70	285	-2.2	84	-4.5	0	0	995.2	NA	0.0000		9999	3050	0	0	0
2019/04/22 11:23:00	BASE	2.10	250	3.34	292	-2.2	84	-4.5	0	0	995.2	NA	0.0000		9999	2950	0	0	0
2019/04/22 11:24:00	BASE	1.74	244	3.09	282	-2.2	84	-4.5	0	0	995.2	NA	0.0000		9999	2990	0	0	0
2019/04/22 11:25:00	BASE	1.51	240	2.78	259	-2.2	84	-4.5	0	0	995.2	NA	0.0000		9999	2950	0	0	0
2019/04/22 11:26:00	BASE	1.34	238	2.78	259	-2.2	84	-4.5	0	0	995.2	NA	0.0000		9999	2990	0	0	0
2019/04/22 11:27:00	BASE	1.30	239	2.78	259	-2.2	85	-4.4	0	0	995.2	NA	0.0000		9999	2850	0	0	0
2019/04/22 11:28:00	BASE	0.83	238	2.78	259	-2.2	85	-4.4	0	0	995.2	NA	0.0000		9999	3020	0	0	0
2019/04/22 11:29:00	BASE	0.20	237	2.78	259	-2.2	85	-4.4	0	0	995.2	NA	0.0000		9999	2990	0	0	0
2019/04/22 11:30:00	BASE	0.00	252	2.78	259	-2.2	85	-4.4	0	0	995.2	NA	0.0000		9999	3020	0	0	0
2019/04/22 11:31:00	BASE	0.00	273	2.62	248	-2.3	85	-4.4	0	0	995.2	NA	0.0000		9999	2990	0	0	0
2019/04/22 11:32:00	BASE	0.00	279	2.31	244	-2.3	85	-4.4	0	0	995.2	NA	0.0000		9999	2950	0	0	0
2019/04/22 11:33:00	BASE	0.00	274	1.80	245	-2.3	85	-4.4	0	0	995.2	NA	0.0000		9999	2990	0	0	0
2019/04/22 11:34:00	BASE	0.00	269	1.44	240	-2.3	86	-4.4	0	0	995.2	NA	0.0000		9999	3020	0	0	0
2019/04/22 11:35:00	BASE	0.00	269	1.44	240	-2.3	86	-4.3	0	0	995.2	NA	0.0000		9999	3050	0	0	0
2019/04/22 11:36:00	BASE	0.00	270	1.34	240	-2.3	86	-4.3	0	0	995.2	NA	0.0000		9999	2890	0	0	0
2019/04/22 11:37:00	BASE	0.00	300	1.29	239	-2.2	86	-4.3	1	0	995.1	NA	0.0000		9999	2850	0	0	0
2019/04/22 11:38:00	BASE	0.26	13	1.13	34	-2.2	86	-4.3	1	0	995.2	NA	0.0000		9999	2790	0	0	0
2019/04/22 11:39:00	BASE	0.91	37	1.44	41	-2.2	86	-4.3	1	0	995.2	NA	0.0000		9999	2620	0	0	0
2019/04/22 11:40:00	BASE	1.37	41	1.54	48	-2.3	85	-4.4	1	0	995.2	NA	0.0000		9999	2430	0	0	0
2019/04/22 11:41:00	BASE	1.48	46	1.54	50	-2.3	85	-4.4	1	0	995.1	NA	0.0000		9999	2620	0	0	0
2019/04/22 11:42:00	BASE	1.45	57	1.54	50	-2.3	85	-4.4	1	0	995.1	NA	0.0000		9999	2590	0	0	0
2019/04/22 11:43:00	BASE	1.38	67	1.54	50	-2.3	85	-4.4	1	0	995.0	NA	0.0000		9999	2660	0	0	0
2019/04/22 11:44:00	BASE	1.31	73	1.54	50	-2.2	85	-4.4	1	0	995.0	NA	0.0000		9999	2560	0	0	0
2019/04/22 11:45:00	BASE	0.95	75	1.54	50	-2.2	85	-4.4	1	0	995.1	NA	0.0000		9999	2530	0	0	0
2019/04/22 11:46:00	BASE	0.32	75	1.54	50	-2.2	85	-4.4	1	0	995.1	NA	0.0000		9999	2460	0	0	0
2019/04/22 11:47:00	BASE	0.50	71	1.54	50	-2.2	85	-4.4	1	0	995.1	NA	0.0000		9999	2620	0	0	0
2019/04/22 11:48:00	BASE	1.10	63	1.54	50	-2.2	85	-4.4	1	0	995.1	NA	0.0000		9999	2490	0	0	0
2019/04/22 11:49:00	BASE	1.19	57	1.54	50	-2.2	85	-4.3	1	0	995.1	NA	0.0000		9999	2590	0	0	0
2019/04/22 11:50:00	BASE	1.18	55	1.54	50	-2.2	85	-4.3	1	0	995.1	NA	0.0000		9999	2590	0	0	0
2019/04/22 11:51:00	BASE	1.21	55	1.44	61	-2.2	85	-4.3	1	0	995.0	NA	0.0000		9999	2590	0	0	0
2019/04/22 11:52:00	BASE	1.04	61	1.39	75	-2.2	85	-4.4	1	0	995.1	NA	0.0000		9999	2590	0	0	0
2019/04/22 11:53:00	BASE	1.08	76	1.70	98	-2.2	85	-4.4	1	0	995.1	NA	0.0000		9999	2590	0	0	0
2019/04/22 11:54:00	BASE	1.61	95	2.01	105	-2.2	84	-4.5	1	0	995.1	NA	0.0000		9999	2560	0	0	0
2019/04/22 11:55:00	BASE	2.06	120	3.45	148	-2.2	84	-4.5	1	0	995.1	NA	0.0000		9999	2530	0	0	0
2019/04/22 11:56:00	BASE	2.48	142	3.45	148	-2.2	84	-4.5	1	0	995.1	NA	0.0000		9999	2560	0	0	0
2019/04/22 11:57:00	BASE	2.57	149	3.45	148	-2.2	84	-4.5	2	0	995.1	NA	0.0000		9999	2560	0	0	0
2019/04/22 11:58:00	BASE	2.71	149	3.70	144	-2.2	84	-4.5	2	0	995.0	NA	0.0000		9999	2660	0	0	0
2019/04/22 11:59:00	BASE	2.58	141	3.70	144	-2.2	84	-4.5	2	0	994.9	NA	0.0000		9999	2590	0	0	0
2019/04/22 12:00:00	BASE	2.60	131	4.68	130	-2.2	84	-4.5	2	0	994.9	NA	0.0000		9999	2530	0	0	0
2019/04/22 12:01:00	BASE	4.41	117	6.33	108	-2.2	84	-4.5	2	0	994.9	NA	0.0000		9999	2720	0	0	0
2019/04/22 12:02:00	BASE	5.41	107	6.33	108	-2.2	85	-4.4	2	0	994.9	NA	0.0000		9999	2820	0	0	0
2019/04/22 12:03:00	BASE	5.44	102	6.48	97	-2.1	85	-4.3	2	0	994.9	NA	0.0000		9999	2890	0	0	0
2019/04/22 12:04:00	BASE	5.47	98	6.58	98	-2.1	85	-4.2	2	0	994.8	NA	0.0000		9999	2890	0	0	0
2019/04/22 12:05:00	BASE	4.34	106	6.58	98	-2.1	85	-4.2	3	0	994.8	NA	0.0000		9999	2920	0	0	0
2019/04/22 12:06:00	BASE	3.44	111	6.58	98	-2.0	85	-4.1	3	0	994.7	NA	0.0000		9999	2920	0	0	0
2019/04/22 12:07:00	BASE	2.75	98	6.58	98	-2.0	85	-4.1	4	0	994.7	NA	0.0000		9999	3020	0	0	0
2019/04/22 12:08:00	BASE	1.87	70	6.58	98	-1.9	85	-4.2	4	0	994.7	NA	0.0000		9999	3050	0	0	0
2019/04/22 12:09:00	BASE	1.71	38	6.58	98	-1.9	83	-4.3	5	0	994.7	NA	0.0000		9999	2990	0	0	0
2019/04/22 12:10:00	BASE	1.81	15	6.58	98	-1.8	81	-4.6	5	0	994.7	NA	0.0000		9999	3020	0	0	0
2019/04/22 12:11:00	BASE	1.32	345	6.58	98	-1.6	78	-4.9	5	0	994.7	NA	0.0000		9999	2890	0	0	0
2019/04/22 12:12:00	BASE	0.61	5	6.58	98	-1.6	77	-5.2	5	0	994.7	NA	0.0000		9999	2890	0	0	0
2019/04/22 12:13:00	BASE	1.14	51	6.58	98	-1.5	75	-5.4	5	0	994.7	NA	0.0000		9999	2950	0	0	0
2019/04/22 12:14:00	BASE	3.29	74	5.81	98	-1.5	74	-5.5	5	0	994.7	NA	0.0000		9999	2920	0	0	0
2019/04/22 12:15:00	BASE	5.17	98	5.81	106	-1.5	73	-5.7	4	0	994.7	NA	0.0000		9999	2950	0	0	0
2019/04/22 12:16:00	BASE	5.46	107	5.81	106	-1.5	72	-5.8	4	0	994.7	NA	0.0000		9999	2990	0	0	0
2019/04/22 12:17:00	BASE	4.00	137	5.81	106	-1.5	71	-6.1	5	0	994.7	NA	0.0000		9999	3020	0	0	0
2019/04/22 12:18:00	BASE	2.20	190	5.81	106	-1.5	69	-6.4	5	0	994.7	NA	0.0000		9999	2990	0	0	0
2019/04/22 12:19:00	BASE	1.45	227	5.81	106	-1.5	68	-6.5	5	0	994.7	NA	0.0000		9999	3020	0	0	0
2019/04/22 12:20:00	BASE	1.53	254	5.81	106	-1.5	69	-6.5	5	0	994.7	NA	0.0000		9999	3050	0	0	0
2019/04/22 12:21:00	BASE	1.83	259	5.81	106	-1.5	70	-6.3	5	0	994.7	NA	0.0000		9999	2950	0	0	0
2019/04/22 12:22:00	BASE	1.91	260	5.81	106	-1.5	71	-6.1	6	0	994.6	NA	0.0000		9999	2920	0	0	0
2019/04/22 12:23:00	BASE	2.03	260	5.81	106	-1.5	71	-6.0	6	0	994.6	NA	0.0000		9999	2920	0	0	0
2019/04/22 12:24:00	BASE	2.10	261	5.81	106	-1.5	71	-6.1	6	0	994.6	NA	0.0000		9999	2920	0	0	0
2019/04/22 12:25:00	BASE	1.66	246	5.66	110	-1.4	70	-6.1	7	0	994.6	NA	0.0000		9999	2820	0	0	0
2019/04/22 12:26:00	BASE	1.21	219	3.81	127	-1.4	69	-6.3	7	0	994.5	NA	0.0000		9999	2760	0	0	0
2019/04/22 12:27:00	BASE	1.57	217	2.68	234	-1.3	68	-6.4	7	0	994.5	NA	0.0000		9999	2720	3410	0	0
2019/04/22 12:28:00	BASE	2.13	221	2.68	217	-1.3	67	-6.6	7	0	994.5	NA	0.0000		9999	2490	0	0	0
2019/04/22 12:29:00	BASE	2.06	220	2.68	217	-1.3	67	-6.6	7	0	994.5	NA	0.0000		9999	2620	3250	0	0
2019/04/22 12:30:00	BASE	1.66	227	2.68	217	-1.3	68	-6.5	7	0	994.5	NA	0.0000		9999	2660	0	0	0
2019/04/22 12:31:00	BASE	1.36	230	2.68	217	-1.3	68	-6.5	7	0	994.5	NA	0.0000		9999	2690	0	0	0
2019/04/22 12:32:00	BASE	1.38	233	2.68	217	-1.3	68	-6.4	7	0	994.5	NA	0.0000		9000	2590	0	0	0
2019/04/22 12:33:00	BASE	1.40	230	2.68	217	-1.2	68	-6.4	8	0	994.5	NA	0.0000		9000	2660	0	0	0
2019/04/22 12:34:00	BASE	1.05	233	2.68	217	-1.2	68	-6.4	8	0	994.5	NA	0.0000		9999	2690	0	0	0
2019/04/22 12:35:00	BASE	0.44	265	2.68	217	-1.2	67	-6.5	8	0	994.5	NA	0.0000		9999	2760	0	0	0
2019/04/22 12:36:00	BASE	0.00	283	2.68	217	-1.2	67	-6.6	9	0	994.5	NA	0.0000		9999	2790	0	0	0
2019/04/22 12:37:00	BASE	0.29	287	2.68	217	-1.2	67	-6.6	9	0	994.5	NA	0.0000		9999	2720	0	0	0
2019/04/22 12:38:00	BASE	0.95	15	2.11	40	-1.2	66	-6.7	10	0	994.5	NA	0.0000		9999	2690	0	0	0
2019/04/22 12:39:00	BASE	0.66	11	2.11	40	-1.1	64	-7.0	11	0	994.5	NA	0.0000		9999	2820	0	0	0
2019/04/22 12:40:00	BASE	0.09	53	2.11	40	-1.0	62	-7.3	11	0	994.5	NA	0.0000		9999	2820	0	0	0
2019/04/22 12:41:00	BASE	0.28	153	2.11	40	-0.8	60	-7.7	11	0	994.5	NA	0.0000		9999	2850	0	0	0
2019/04/22 12:42:00	BASE	1.12	185	3.45	191	-0.6	57	-8.2	11	0	994.5	NA	0.0000		9999	2990	0	0	0
2019/04/22 12:43:00	BASE	3.26	188	5.61	194	-0.6	55	-8.6	11	0	994.4	NA	0.0000		9999	2890	0	0	0
2019/04/22 12:44:00	BASE	4.96	179	5.86	175	-0.6	55	-8.6	12	0	994.4	NA	0.0000		9999	2760	0	0	0
2019/04/22 12:45:00	BASE	5.34	167	5.86	175	-0.7	56	-8.4	12	0	994.4	NA	0.0000		9999	2760	0	0	0
2019/04/22 12:46:00	BASE	5.55	163	6.43	165	-0.8	59	-7.8	12	0	994.4	NA	0.0000		9999	2820	0	0	0
2019/04/22 12:47:00	BASE	5.95	165	6.53	152	-1.0	63	-7.2	12	0	994.3	NA	0.0000		9999	2720	0	0	0
2019/04/22 12:48:00	BASE	5.32	168	6.53	152	-1.1	67	-6.5	12	0	994.3	NA	0.0000		9999	2790	0	0	0
2019/04/22 12:49:00	BASE	3.97	171	6.53	152	-1.2	70	-6.0	12	0	994.4	NA	0.0000		9999	2720	0	0	0
2019/04/22 12:50:00	BASE	3.26	169	6.53	152	-1.3	72	-5.7	12	0	994.4	NA	0.0000		9999	2660	0	0	0
2019/04/22 12:51:00	BASE	2.73	163	6.53	152	-1.3	74	-5.4	11	0	994.4	NA	0.0000		9999	2760	0	0	0
2019/04/22 12:52:00	BASE	2.01	159	6.53	152	-1.4	74	-5.3	11	0	994.4	NA	0.0000		9999	2690	0	0	0
2019/04/22 12:53:00	BASE	1.58	151	6.53	152	-1.4	75	-5.2	12	0	994.4	NA	0.0000		9999	2720	0	0	0
2019/04/22 12:54:00	BASE	1.17	177	6.53	152	-1.4	75	-5.2	12	0	994.3	NA	0.0000		9999	2720	0	0	0
2019/04/22 12:55:00	BASE	1.85	205	6.53	152	-1.4	75	-5.2	12	0	994.2	NA	0.0000		9999	2620	0	0	0
2019/04/22 12:56:00	BASE	3.45	204	6.53	152	-1.4	75	-5.2	13	0	994.2	NA	0.0000		9999	2620	0	0	0
2019/04/22 12:57:00	BASE	4.19	204	6.53	200	-1.4	76	-5.1	13	0	994.1	NA	0.0000		9999	2760	0	0	0
2019/04/22 12:58:00	BASE	3.93	195	6.53	200	-1.4	76	-5.1	13	0	994.1	NA	0.0000		9999	2620	0	0	0
2019/04/22 12:59:00	BASE	2.78	181	6.53	200	-1.4	77	-4.9	13	0	994.1	NA	0.0000		9999	2720	0	0	0
2019/04/22 13:00:00	BASE	2.39	167	6.53	200	-1.4	77	-4.9	14	0	994.1	NA	0.0000		9999	2590	0	0	0
2019/04/22 13:01:00	BASE	2.55	144	6.53	200	-1.4	77	-4.9	14	0	994.1	NA	0.0000		9999	2660	0	0	0
2019/04/22 13:02:00	BASE	3.16	124	6.53	200	-1.3	75	-5.1	14	0	994.1	NA	0.0000		9999	2690	0	0	0
2019/04/22 13:03:00	BASE	3.09	97	6.53	200	-1.2	73	-5.4	15	0	994.1	NA	0.0000		9999	2690	0	0	0
2019/04/22 13:04:00	BASE	2.34	67	6.53	200	-1.1	71	-5.7	15	0	994.1	NA	0.0000		9999	2790	0	0	0
2019/04/22 13:05:00	BASE	2.25	88	6.53	200	-1.0	70	-5.8	15	0	994.1	NA	0.0000		9999	2850	0	0	0
2019/04/22 13:06:00	BASE	2.10	133	6.53	200	-1.0	70	-5.8	15	0	994.1	NA	0.0000		9999	2950	0	0	0
2019/04/22 13:07:00	BASE	2.88	161	5.66	183	-1.1	71	-5.7	15	0	994.1	NA	0.0000		9999	2890	0	0	0
2019/04/22 13:08:00	BASE	3.62	147	5.71	147	-1.1	72	-5.5	16	0	994.1	NA	0.0000		9999	2890	0	0	0
2019/04/22 13:09:00	BASE	4.01	116	7.36	103	-1.1	73	-5.3	16	0	994.1	NA	0.0000		9999	2920	0	0	0
2019/04/22 13:10:00	BASE	4.00	85	7.36	103	-1.2	74	-5.1	17	0	994.0	NA	0.0000		9999	2950	0	0	0
2019/04/22 13:11:00	BASE	3.45	89	7.36	103	-1.2	75	-5.0	17	0	994.0	NA	0.0000		9999	2920	0	0	0
2019/04/22 13:12:00	BASE	4.97	126	8.18	138	-1.2	76	-4.9	17	0	993.9	NA	0.0000		9999	2950	0	0	0
2019/04/22 13:13:00	BASE	6.82	139	8.18	138	-1.3	77	-4.7	18	0	993.9	NA	0.0000		9999	3020	0	0	0
2019/04/22 13:14:00	BASE	6.90	133	8.18	138	-1.3	78	-4.6	18	0	994.0	NA	0.0000		9999	2950	0	0	0
2019/04/22 13:15:00	BASE	7.30	126	9.05	130	-1.4	79	-4.5	19	0	994.0	NA	0.0000		9999	2990	0	0	0
2019/04/22 13:16:00	BASE	8.17	125	9.41	123	-1.4	80	-4.4	20	0	993.9	NA	0.0000		9999	2950	0	0	0
2019/04/22 13:17:00	BASE	7.96	123	9.41	123	-1.4	81	-4.3	21	0	993.9	NA	0.0000		9999	2920	0	0	0
2019/04/22 13:18:00	BASE	5.57	100	9.41	123	-1.4	82	-4.1	21	0	993.9	NA	0.0000		9999	2890	0	0	0
2019/04/22 13:19:00	BASE	4.83	103	9.41	123	-1.4	83	-3.9	22	0	993.9	NA	0.0000		9999	2690	0	0	0
2019/04/22 13:20:00	BASE	6.19	128	9.41	123	-1.4	83	-3.8	22	0	993.8	NA	0.0000		9999	2720	0	0	0
2019/04/22 13:21:00	BASE	7.90	132	10.55	132	-1.4	84	-3.7	23	0	993.7	NA	0.0000	HZ	9999	2690	0	0	0
2019/04/22 13:22:00	BASE	8.98	134	10.55	132	-1.4	84	-3.7	23	0	993.6	NA	0.0000	HZ	9000	2690	0	0	0
2019/04/22 13:23:00	BASE	8.22	136	10.55	132	-1.4	85	-3.6	23	0	993.7	NA	0.0000	HZ	9000	2690	0	0	0
2019/04/22 13:24:00	BASE	7.24	128	10.55	132	-1.4	85	-3.6	24	0	993.8	NA	0.0000	BR	9999	2000	0	0	0
2019/04/22 13:25:00	BASE	5.54	119	10.55	132	-1.4	86	-3.5	24	0	993.9	NA	0.0000	BR	9000	2720	0	0	0
2019/04/22 13:26:00	BASE	3.53	84	10.55	132	-1.4	86	-3.4	24	0	993.8	NA	0.0000	BR	9000	1570	0	0	0
2019/04/22 13:27:00	BASE	3.52	35	10.55	132	-1.4	87	-3.3	23	0	993.8	NA	0.0000	BR	9999	1540	0	0	0
2019/04/22 13:28:00	BASE	2.42	347	10.55	132	-1.4	87	-3.3	23	0	993.9	NA	0.0000	BR	9999	1380	0	0	0
2019/04/22 13:29:00	BASE	1.19	262	10.55	132	-1.4	87	-3.3	23	0	993.8	NA	0.0000	BR	9999	2760	0	0	0
2019/04/22 13:30:00	BASE	1.36	222	10.55	132	-1.4	87	-3.2	24	0	993.9	NA	0.0000		9999	2790	0	0	0
2019/04/22 13:31:00	BASE	0.99	225	9.26	130	-1.3	87	-3.2	24	0	993.9	NA	0.0000		9999	2690	0	0	0
2019/04/22 13:32:00	BASE	1.44	253	8.33	119	-1.3	87	-3.2	24	0	993.9	NA	0.0000		9999	1350	0	0	0
2019/04/22 13:33:00	BASE	1.28	263	7.82	131	-1.3	87	-3.1	24	0	993.9	NA	0.0000		9999	1280	0	0	0
2019/04/22 13:34:00	BASE	1.50	220	6.64	26	-1.3	87	-3.2	23	0	993.9	NA	0.0000		9999	2760	0	0	0
2019/04/22 13:35:00	BASE	2.39	182	6.64	26	-1.3	87	-3.2	23	0	993.9	NA	0.0000		9999	1180	0	0	0
2019/04/22 13:36:00	BASE	3.22	161	6.64	26	-1.3	87	-3.2	22	0	993.8	NA	0.0000		9999	1380	0	0	0
2019/04/22 13:37:00	BASE	3.98	161	5.35	159	-1.3	87	-3.1	22	0	993.7	NA	0.0000		9000	2690	0	0	0
2019/04/22 13:38:00	BASE	4.30	158	5.76	146	-1.3	88	-3.1	21	0	993.7	NA	0.0000		9999	2720	21850	0	0
2019/04/22 13:39:00	BASE	4.85	148	5.92	149	-1.3	88	-3.0	21	0	993.7	NA	0.0000		9999	2790	0	0	0
2019/04/22 13:40:00	BASE	5.17	134	6.02	117	-1.2	88	-3.0	21	0	993.7	NA	0.0000		9999	2690	0	0	0
2019/04/22 13:41:00	BASE	4.65	122	6.02	117	-1.2	88	-3.0	21	0	993.7	NA	0.0000		9999	2690	0	0	0
2019/04/22 13:42:00	BASE	4.02	124	6.02	117	-1.2	87	-3.0	21	0	993.6	NA	0.0000		9000	2660	0	0	0
2019/04/22 13:43:00	BASE	3.95	117	6.02	117	-1.1	87	-3.0	20	0	993.6	NA	0.0000	BR	9999	2690	0	0	0
2019/04/22 13:44:00	BASE	3.00	110	6.02	117	-1.1	86	-3.1	20	0	993.6	NA	0.0000	BR	9000	2720	0	0	0
2019/04/22 13:45:00	BASE	1.93	102	6.02	117	-1.0	86	-3.2	20	0	993.6	NA	0.0000	BR	9000	2660	0	0	0
2019/04/22 13:46:00	BASE	2.74	76	6.02	117	-1.0	85	-3.2	20	0	993.6	NA	0.0000	BR	9000	2760	0	0	0
2019/04/22 13:47:00	BASE	2.80	83	6.02	117	-1.1	85	-3.2	20	0	993.6	NA	0.0000	BR	9000	2790	0	0	0
2019/04/22 13:48:00	BASE	2.55	106	6.02	117	-1.0	85	-3.2	20	0	993.6	NA	0.0000	BR	9999	2690	0	0	0
2019/04/22 13:49:00	BASE	2.62	95	6.02	117	-1.0	85	-3.2	20	0	993.6	NA	0.0000	HZ	9999	2620	0	0	0
2019/04/22 13:50:00	BASE	1.29	80	5.45	123	-0.9	84	-3.3	21	0	993.6	NA	0.0000	HZ	9999	2820	0	0	0
2019/04/22 13:51:00	BASE	1.24	185	4.99	108	-0.8	82	-3.5	21	0	993.6	NA	0.0000	HZ	9999	2890	0	0	0
2019/04/22 13:52:00	BASE	1.06	225	4.99	108	-0.7	79	-3.8	21	0	993.6	NA	0.0000		9999	1670	0	0	0
2019/04/22 13:53:00	BASE	0.37	259	4.73	62	-0.6	76	-4.3	21	0	993.6	NA	0.0000		9999	950	0	0	0
2019/04/22 13:54:00	BASE	1.23	258	4.73	62	-0.5	73	-4.8	22	0	993.6	NA	0.0000		9999	750	0	0	0
2019/04/22 13:55:00	BASE	1.85	254	4.73	62	-0.5	71	-5.2	22	0	993.6	NA	0.0000		9999	2790	0	0	0
2019/04/22 13:56:00	BASE	2.31	263	3.45	257	-0.5	70	-5.3	22	0	993.6	NA	0.0000		9999	2820	0	0	0
2019/04/22 13:57:00	BASE	3.01	257	4.01	251	-0.5	69	-5.5	23	0	993.6	NA	0.0000		9999	2820	0	0	0
2019/04/22 13:58:00	BASE	3.97	246	6.07	234	-0.5	68	-5.7	23	0	993.5	NA	0.0000		9999	2760	0	0	0
2019/04/22 13:59:00	BASE	4.82	226	7.15	201	-0.3	65	-6.1	23	0	993.5	NA	0.0000		9999	2790	0	0	0
2019/04/22 14:00:00	BASE	5.01	191	7.15	201	-0.2	62	-6.6	23	0	993.6	NA	0.0000		9000	2760	0	0	0
2019/04/22 14:01:00	BASE	4.44	169	7.15	201	-0.0	59	-7.2	24	0	993.6	NA	0.0000	UP	9000	1940	0	0	0
2019/04/22 14:02:00	BASE	3.64	162	7.15	201	0.2	56	-7.7	24	0	993.6	NA	0.0000	UP	9000	1380	0	0	0
2019/04/22 14:03:00	BASE	3.40	158	7.15	201	0.3	54	-7.9	24	0	993.6	NA	0.0000	UP	9000	2720	0	0	0
2019/04/22 14:04:00	BASE	2.78	161	7.15	201	0.5	54	-7.8	24	0	993.6	NA	0.0000	UP	9000	820	0	0	0
2019/04/22 14:05:00	BASE	1.99	171	7.15	201	0.5	54	-7.7	23	0	993.6	NA	0.0000	UP	9000	720	0	0	0
2019/04/22 14:06:00	BASE	1.65	203	7.15	201	0.5	54	-7.7	22	0	993.7	NA	0.0000	UP	9999	620	0	0	0
2019/04/22 14:07:00	BASE	0.75	253	7.15	201	0.3	56	-7.5	21	0	993.7	NA	0.0000	UP	9999	0	0	0	3050
2019/04/22 14:08:00	BASE	0.05	317	7.15	201	0.1	58	-7.2	19	0	993.7	NA	0.0000	UP	8000	0	0	0	2850
2019/04/22 14:09:00	BASE	0.00	17	5.81	188	-0.1	60	-7.0	19	0	993.7	NA	0.0000	UP	8000	0	0	0	2790
2019/04/22 14:10:00	BASE	0.67	23	5.04	151	-0.3	61	-6.9	19	0	993.7	NA	0.0000	UP	8000	520	0	0	0
2019/04/22 14:11:00	BASE	2.20	358	5.04	151	-0.4	63	-6.6	19	0	993.7	NA	0.0000	UP	7000	0	0	0	2720
2019/04/22 14:12:00	BASE	3.09	328	5.04	151	-0.4	64	-6.4	20	0	993.7	NA	0.0000	UP	5000	330	0	0	0
2019/04/22 14:13:00	BASE	3.02	319	3.50	1	-0.5	66	-6.1	23	0	993.7	NA	0.0000	UP	3800	260	0	0	0
2019/04/22 14:14:00	BASE	2.77	303	3.50	1	-0.6	68	-5.8	26	0	993.6	NA	0.0000	UP	3100	0	0	0	3020
2019/04/22 14:15:00	BASE	2.13	286	3.50	1	-0.7	71	-5.3	29	0	993.6	NA	0.0000	-SN	2900	0	0	0	3120
2019/04/22 14:16:00	BASE	0.82	284	3.50	1	-0.9	75	-4.8	33	0	993.6	NA	0.0000	-SN	3700	0	0	0	2620
2019/04/22 14:17:00	BASE	0.00	279	3.50	1	-1.0	78	-4.4	35	0	993.5	NA	0.0000	-SN	5000	0	0	0	2760
2019/04/22 14:18:00	BASE	0.00	269	3.50	1	-1.1	80	-4.1	37	0	993.5	NA	0.0000	-SN	6000	0	0	0	2490
2019/04/22 14:19:00	BASE	0.00	273	3.50	1	-1.1	81	-3.9	38	0	993.5	NA	0.0000	-SN	6000	0	0	0	2560
2019/04/22 14:20:00	BASE	0.16	267	3.50	1	-1.1	83	-3.7	39	0	993.5	NA	0.0000	-SN	5000	0	0	0	2850
2019/04/22 14:21:00	BASE	1.03	244	3.40	316	-1.2	84	-3.5	40	0	993.5	NA	0.0000	-SN	4600	300	2130	0	0
2019/04/22 14:22:00	BASE	2.21	239	3.34	318	-1.2	85	-3.4	42	0	993.6	NA	0.0000	-SN	5000	300	0	0	0
2019/04/22 14:23:00	BASE	2.94	238	3.55	230	-1.3	86	-3.4	43	0	993.6	NA	0.0000	-SN BR	5000	260	0	0	0
2019/04/22 14:24:00	BASE	3.40	230	3.91	227	-1.4	86	-3.3	45	0	993.6	NA	0.0000	-SN BR	4600	0	0	0	2890
2019/04/22 14:25:00	BASE	3.63	229	4.22	227	-1.4	87	-3.3	48	0	993.6	NA	0.0000	-SN BR	4000	0	0	0	3020
2019/04/22 14:26:00	BASE	3.41	239	4.22	227	-1.5	88	-3.2	51	0	993.6	NA	0.0000	-SN BR	3700	0	0	0	3050
2019/04/22 14:27:00	BASE	2.52	254	4.22	227	-1.5	88	-3.2	53	0	993.6	NA	0.0000	-SN BR	5000	0	0	0	3150
2019/04/22 14:28:00	BASE	1.83	270	4.22	227	-1.5	89	-3.1	54	0	993.5	NA	0.0000	-SN BR	8000	0	0	0	3220
2019/04/22 14:29:00	BASE	1.09	287	4.22	227	-1.6	90	-3.0	56	0	993.5	NA	0.0000	-SN BR	9000	0	0	0	3280
2019/04/22 14:30:00	BASE	0.21	290	4.22	227	-1.6	91	-2.9	57	0	993.5	NA	0.0000	-SN BR	9000	0	0	0	3280
2019/04/22 14:31:00	BASE	0.00	270	4.22	227	-1.6	92	-2.8	58	0	993.5	NA	0.0000	-SN BR	9000	0	0	0	3410
2019/04/22 14:32:00	BASE	0.00	260	4.22	227	-1.7	93	-2.7	56	0	993.5	NA	0.0000	-SN BR	8000	0	0	0	3380
2019/04/22 14:33:00	BASE	0.00	283	4.22	227	-1.7	93	-2.7	54	0	993.5	NA	0.0000	-SN BR	8000	0	0	0	3380
2019/04/22 14:34:00	BASE	0.00	300	4.22	227	-1.7	94	-2.6	50	0	993.5	NA	0.0000	-SN BR	7000	0	0	0	3480
2019/04/22 14:35:00	BASE	0.48	174	3.86	234	-1.7	94	-2.5	46	0	993.5	NA	0.0000	-SN BR	7000	390	0	0	0
2019/04/22 14:36:00	BASE	1.37	156	2.37	257	-1.7	95	-2.5	42	0	993.5	NA	0.0000	-SN BR	7000	390	0	0	0
2019/04/22 14:37:00	BASE	1.99	154	2.37	257	-1.7	95	-2.4	38	0	993.5	NA	0.0000	-SN BR	7000	360	0	0	0
2019/04/22 14:38:00	BASE	2.13	148	2.37	142	-1.8	96	-2.4	34	0	993.5	NA	0.0000	-SN BR	7000	390	0	0	0
2019/04/22 14:39:00	BASE	2.04	142	2.37	142	-1.8	96	-2.3	32	0	993.5	NA	0.0000	-SN BR	7000	390	0	0	0
2019/04/22 14:40:00	BASE	1.80	138	2.37	142	-1.8	97	-2.2	30	0	993.5	NA	0.0000	-SN BR	8000	360	0	0	0
2019/04/22 14:41:00	BASE	1.41	144	2.37	142	-1.9	98	-2.2	29	0	993.5	NA	0.0000	-SN BR	7000	390	0	0	0
2019/04/22 14:42:00	BASE	1.16	161	2.37	142	-1.9	98	-2.1	29	0	993.4	NA	0.0000	-SN BR	7000	390	0	0	0
2019/04/22 14:43:00	BASE	0.66	179	2.37	142	-1.9	99	-2.0	30	0	993.4	NA	0.0000	-SN BR	7000	0	0	0	3580
2019/04/22 14:44:00	BASE	0.31	191	2.37	142	-1.9	99	-2.0	31	0	993.5	NA	0.0000	-SN BR	8000	0	0	0	3480
2019/04/22 14:45:00	BASE	0.91	194	2.37	142	-1.9	100	-2.0	32	0	993.5	NA	0.0000	-SN BR	9000	460	3020	0	0
2019/04/22 14:46:00	BASE	1.63	192	2.37	142	-2.0	100	-2.0	34	0	993.5	NA	0.0000	-SN BR	6000	330	2920	0	0
2019/04/22 14:47:00	BASE	1.88	181	2.37	142	-2.0	100	-2.0	36	0	993.4	NA	0.0000	-SN BR	2500	260	0	0	0
2019/04/22 14:48:00	BASE	1.98	162	2.16	137	-2.0	100	-2.0	37	0	993.4	NA	0.0000	-SN BR	1600	360	0	0	0
2019/04/22 14:49:00	BASE	2.14	145	3.04	101	-2.0	100	-2.0	37	0	993.4	NA	0.0000	-SN BR	2000	2920	0	0	0
2019/04/22 14:50:00	BASE	2.14	123	3.04	101	-2.0	100	-2.0	38	0	993.4	NA	0.0000	-SN BR	3700	2850	0	0	0
2019/04/22 14:51:00	BASE	1.83	110	3.04	101	-2.0	100	-2.0	38	0	993.4	NA	0.0000	-SN BR	5000	2950	0	0	0
2019/04/22 14:52:00	BASE	1.76	116	3.04	101	-2.0	100	-2.0	38	0	993.4	NA	0.0000	-SN BR	4600	2850	0	0	0
2019/04/22 14:53:00	BASE	2.04	129	3.04	101	-2.0	100	-2.0	38	0	993.4	NA	0.0000	-SN BR	4700	2850	0	0	0
2019/04/22 14:54:00	BASE	2.24	132	3.04	101	-2.0	100	-2.0	38	0	993.4	NA	0.0000	-SN BR	5000	2990	0	0	0
2019/04/22 14:55:00	BASE	2.52	112	3.45	102	-2.0	100	-2.0	38	0	993.4	NA	0.0000	-SN BR	7000	2920	0	0	0
2019/04/22 14:56:00	BASE	2.59	86	3.45	102	-2.0	100	-2.0	37	0	993.4	NA	0.0000	-SN BR	9999	2850	0	0	0
2019/04/22 14:57:00	BASE	1.62	78	3.45	102	-1.9	100	-1.9	37	0	993.3	NA	0.0000	-SN BR	9999	3080	0	0	0
2019/04/22 14:58:00	BASE	0.53	111	3.45	102	-1.8	100	-1.8	37	0	993.3	NA	0.0000	-SN BR	9999	2990	0	0	0
2019/04/22 14:59:00	BASE	0.16	156	3.45	102	-1.6	100	-1.6	37	0	993.3	NA	0.0000	-SN BR	9999	2890	0	0	0
2019/04/22 15:00:00	BASE	0.04	133	3.45	102	-1.5	100	-1.5	37	0	993.3	NA	0.0000	-SN BR	9999	2850	0	0	0
2019/04/22 15:01:00	BASE	0.51	115	3.45	102	-1.4	100	-1.4	37	0	993.3	NA	0.0000	-SN BR	9999	2950	0	0	0
2019/04/22 15:02:00	BASE	0.98	98	3.45	102	-1.3	100	-1.3	36	0	993.3	NA	0.0000	-SN BR	9999	2920	0	0	0
2019/04/22 15:03:00	BASE	0.47	65	3.45	102	-1.3	100	-1.3	36	0	993.2	NA	0.0000	-SN	9999	2920	0	0	0
2019/04/22 15:04:00	BASE	0.05	134	3.45	102	-1.3	100	-1.3	36	0	993.2	NA	0.0000	-SN	9999	2950	0	0	0
2019/04/22 15:05:00	BASE	0.19	91	2.83	68	-1.3	100	-1.3	36	0	993.2	NA	0.0000	-SN	9999	3150	0	0	0
2019/04/22 15:06:00	BASE	0.14	48	1.75	115	-1.2	100	-1.2	36	0	993.2	NA	0.0000	-SN	6000	2990	0	0	0
2019/04/22 15:07:00	BASE	0.14	246	2.11	65	-1.2	100	-1.2	37	0	993.1	NA	0.0000	-SN	5000	2990	0	0	0
2019/04/22 15:08:00	BASE	0.87	32	2.11	59	-1.2	100	-1.2	38	0	993.0	NA	0.0000	-SN BR	5000	2130	3120	0	0
2019/04/22 15:09:00	BASE	1.88	68	4.42	97	-1.2	100	-1.2	39	0	993.0	NA	0.0000	-SN BR	5000	2200	3150	0	0
2019/04/22 15:10:00	BASE	3.63	81	6.22	84	-1.1	100	-1.1	40	0	993.0	NA	0.0000	-SN BR	7000	3080	0	0	0
2019/04/22 15:11:00	BASE	5.67	93	7.25	104	-1.0	100	-1.0	41	0	992.9	NA	0.0000	-SN BR	3900	3050	0	0	0
2019/04/22 15:12:00	BASE	6.07	105	7.25	104	-0.9	100	-0.9	42	0	992.9	NA	0.0000	-SN BR	4500	2990	0	0	0
2019/04/22 15:13:00	BASE	4.36	119	7.25	104	-0.9	100	-0.9	42	0	992.9	NA	0.0000	-SN BR	8000	3150	0	0	0
2019/04/22 15:14:00	BASE	3.16	122	7.25	104	-0.9	100	-0.9	41	0	992.9	NA	0.0000	-SN BR	9000	3120	0	0	0
2019/04/22 15:15:00	BASE	3.33	114	7.25	104	-0.9	100	-0.9	41	0	992.9	NA	0.0000	-SN BR	9999	2990	0	0	0
2019/04/22 15:16:00	BASE	2.95	108	7.25	104	-0.9	100	-0.9	40	0	992.9	NA	0.0000	-SN BR	9999	3020	0	0	0
2019/04/22 15:17:00	BASE	1.89	103	7.25	104	-0.9	100	-0.9	40	0	992.9	NA	0.0000	-SN BR	9999	3120	0	0	0
2019/04/22 15:18:00	BASE	1.47	283	7.25	104	-1.0	100	-1.0	41	0	992.9	NA	0.0000	-SN BR	9999	3020	0	0	0
2019/04/22 15:19:00	BASE	2.30	267	7.25	104	-1.0	100	-1.0	42	0	992.9	NA	0.0000	-SN BR	9999	3080	0	0	0
2019/04/22 15:20:00	BASE	3.27	248	7.25	104	-1.1	100	-1.1	42	0	992.9	NA	0.0000	-SN BR	9999	3120	0	0	0
2019/04/22 15:21:00	BASE	4.05	248	6.58	106	-1.1	100	-1.1	42	0	992.9	NA	0.0000	-SN BR	9999	3050	0	0	0
2019/04/22 15:22:00	BASE	3.88	248	6.02	120	-1.1	100	-1.1	42	0	992.9	NA	0.0000	-SN	9999	3120	0	0	0
2019/04/22 15:23:00	BASE	3.00	237	6.02	120	-1.1	100	-1.1	42	0	992.9	NA	0.0000	-SN	9999	2360	0	0	0
2019/04/22 15:24:00	BASE	3.52	222	5.56	248	-1.0	100	-1.0	43	0	992.9	NA	0.0000	-SN	9000	2530	0	0	0
2019/04/22 15:25:00	BASE	4.83	216	5.56	248	-1.0	100	-1.0	43	0	992.9	NA	0.0000	-SN	6000	2360	2990	0	0
2019/04/22 15:26:00	BASE	4.86	219	5.56	248	-0.9	100	-0.9	43	0	992.9	NA	0.0000	-SN BR	5000	0	0	0	3580
2019/04/22 15:27:00	BASE	3.83	210	5.56	248	-0.9	100	-0.9	43	0	992.9	NA	0.0000	-SN BR	7000	2560	0	0	0
2019/04/22 15:28:00	BASE	3.61	200	5.56	248	-0.9	100	-0.9	42	0	992.9	NA	0.0000	-SN BR	8000	2200	0	0	0
2019/04/22 15:29:00	BASE	4.65	156	8.28	113	-0.9	100	-0.9	42	0	992.9	NA	0.0000	-SN BR	9999	2230	0	0	0
2019/04/22 15:30:00	BASE	5.08	110	8.28	113	-0.7	100	-0.7	41	0	993.0	NA	0.0000	-SN BR	9999	0	0	0	3510
2019/04/22 15:31:00	BASE	3.86	119	8.28	113	-0.6	100	-0.6	39	0	993.0	NA	0.0000	-SN BR	9999	2260	0	0	0
2019/04/22 15:32:00	BASE	2.50	164	8.28	113	-0.5	100	-0.5	38	0	993.0	NA	0.0000	-SN BR	8000	2230	0	0	0
2019/04/22 15:33:00	BASE	1.36	162	8.28	113	-0.4	100	-0.4	36	0	993.0	NA	0.0000	-SN BR	9999	2300	23000	0	0
2019/04/22 15:34:00	BASE	1.62	28	8.28	113	-0.4	100	-0.4	35	0	992.9	NA	0.0000	-SN BR	9999	2400	0	0	0
2019/04/22 15:35:00	BASE	2.19	29	8.28	113	-0.5	100	-0.5	33	0	993.0	NA	0.0000	-SN BR	9999	1150	0	0	0
2019/04/22 15:36:00	BASE	3.78	76	8.28	113	-0.5	100	-0.5	31	0	993.0	NA	0.0000	-SN BR	7000	2300	0	0	0
2019/04/22 15:37:00	BASE	6.52	99	8.39	110	-0.3	100	-0.3	30	0	993.0	NA	0.0000	-SN BR	6000	2300	0	0	0
2019/04/22 15:38:00	BASE	8.04	113	9.72	117	-0.2	100	-0.2	28	0	992.9	NA	0.0000	-SN BR	6000	590	0	0	0
2019/04/22 15:39:00	BASE	8.95	125	9.72	117	-0.1	100	-0.1	27	0	992.9	NA	0.0000	-SN BR	6000	2170	0	0	0
2019/04/22 15:40:00	BASE	8.24	126	9.72	117	-0.0	100	-0.0	25	0	992.9	NA	0.0000	-SN BR	7000	2170	0	0	0
2019/04/22 15:41:00	BASE	7.21	123	9.72	117	0.0	100	0.0	23	0	992.9	NA	0.0000	-SN BR	9999	0	0	0	3310
2019/04/22 15:42:00	BASE	5.93	124	9.72	117	0.1	100	0.1	22	0	992.9	NA	0.0000	-SN BR	9000	2230	0	0	0
2019/04/22 15:43:00	BASE	3.62	122	9.72	117	0.0	100	0.0	21	0	992.9	NA	0.0000	-SN BR	9999	720	0	0	0
2019/04/22 15:44:00	BASE	1.52	107	9.72	117	-0.0	100	-0.0	20	0	993.0	NA	0.0000	-SN BR	9999	720	0	0	0
2019/04/22 15:45:00	BASE	0.54	148	9.72	117	-0.0	100	-0.0	19	0	993.0	NA	0.0000	-SN BR	9999	2100	0	0	0
2019/04/22 15:46:00	BASE	0.90	252	9.72	117	-0.0	100	-0.0	19	0	993.1	NA	0.0000	-SN BR	9999	2070	0	0	0
2019/04/22 15:47:00	BASE	0.81	277	9.72	117	-0.0	100	-0.0	19	0	993.1	NA	0.0000	-SN BR	9999	2030	0	0	0
2019/04/22 15:48:00	BASE	0.26	236	9.62	133	-0.0	100	-0.0	18	0	993.0	NA	0.0000	-SN BR	9999	2200	0	0	0
2019/04/22 15:49:00	BASE	0.73	237	8.69	129	-0.0	100	-0.0	19	0	993.0	NA	0.0000	-SN	9999	2230	0	0	0
2019/04/22 15:50:00	BASE	1.75	251	7.72	115	-0.1	100	-0.1	19	0	993.0	NA	0.0000	-SN	8000	2200	0	0	0
2019/04/22 15:51:00	BASE	2.59	251	5.66	130	-0.2	100	-0.2	20	0	993.0	NA	0.0000	-SN	8000	2000	0	0	0
2019/04/22 15:52:00	BASE	2.87	240	4.42	129	-0.3	100	-0.3	21	0	993.0	NA	0.0000	-SN	7000	390	0	0	0
2019/04/22 15:53:00	BASE	2.75	240	3.19	240	-0.3	100	-0.3	23	0	993.0	NA	0.0000	-SN BR	7000	390	0	0	0
2019/04/22 15:54:00	BASE	2.85	236	3.60	231	-0.4	100	-0.4	25	0	993.0	NA	0.0000	-SN BR	6000	2000	0	0	0
2019/04/22 15:55:00	BASE	3.48	232	4.12	240	-0.4	100	-0.4	27	0	993.0	NA	0.2540	-SN BR	7000	2200	0	0	0
2019/04/22 15:56:00	BASE	3.34	244	4.12	240	-0.3	100	-0.3	28	0	993.0	NA	0.0000	-SN BR	9999	2170	2820	0	0
2019/04/22 15:57:00	BASE	2.70	252	4.12	240	-0.3	100	-0.3	29	0	993.0	NA	0.0000	-SN BR	9999	2200	0	0	0
2019/04/22 15:58:00	BASE	2.29	259	4.12	240	-0.3	100	-0.3	30	0	993.2	NA	0.0000	-SN BR	9999	2030	0	0	0
2019/04/22 15:59:00	BASE	2.00	258	4.12	240	-0.3	100	-0.3	31	0	993.1	NA	0.0000	-SN BR	9999	2000	0	0	0
2019/04/22 16:00:00	BASE	1.75	252	4.12	240	-0.3	100	-0.3	32	0	993.1	NA	0.0000	-SN BR	9999	2200	0	0	0
2019/04/22 16:01:00	BASE	2.27	235	4.12	240	-0.3	100	-0.3	32	0	993.0	NA	0.0000	-SN BR	9000	2100	0	0	0
2019/04/22 16:02:00	BASE	3.51	201	4.58	186	-0.3	100	-0.3	32	0	993.0	NA	0.0000	-SN BR	9000	2170	0	0	0
2019/04/22 16:03:00	BASE	3.80	181	4.68	166	-0.3	100	-0.3	33	0	993.1	NA	0.0000	-SN BR	9000	2200	0	0	0
2019/04/22 16:04:00	BASE	3.26	178	4.68	166	-0.4	100	-0.4	33	0	993.2	NA	0.0000	BR	9000	2000	0	0	0
2019/04/22 16:05:00	BASE	2.95	182	4.68	166	-0.4	100	-0.4	35	0	993.1	NA	0.0000	BR	9000	2070	0	0	0
2019/04/22 16:06:00	BASE	2.82	188	4.68	166	-0.5	100	-0.5	35	0	993.0	NA	0.0000	BR	9000	2200	0	0	0
2019/04/22 16:07:00	BASE	2.85	196	4.68	166	-0.5	100	-0.5	36	0	993.0	NA	0.0000	BR	9000	2200	0	0	0
2019/04/22 16:08:00	BASE	3.36	203	4.68	166	-0.5	100	-0.5	37	0	993.0	NA	0.0000	BR	9000	2100	0	0	0
2019/04/22 16:09:00	BASE	4.02	199	5.14	184	-0.5	100	-0.5	38	0	993.0	NA	0.0000	BR	8000	2130	2850	0	0
2019/04/22 16:10:00	BASE	5.00	183	5.92	172	-0.5	100	-0.5	39	0	992.9	NA	0.0000	BR	8000	2000	3050	0	0
2019/04/22 16:11:00	BASE	5.75	171	6.38	160	-0.5	100	-0.5	40	0	993.0	NA	0.0000	BR	8000	2100	0	0	0
2019/04/22 16:12:00	BASE	6.42	166	7.41	162	-0.5	100	-0.5	40	0	993.0	NA	0.0000	BR	8000	2130	2990	0	0
2019/04/22 16:13:00	BASE	6.98	164	7.46	164	-0.5	100	-0.5	40	0	993.0	NA	0.0000	BR	8000	330	2230	0	0
2019/04/22 16:14:00	BASE	7.03	161	7.61	159	-0.6	100	-0.6	40	0	992.9	NA	0.0000	BR	8000	460	0	0	0
2019/04/22 16:15:00	BASE	6.87	163	7.61	159	-0.6	100	-0.6	41	0	992.9	NA	0.0000	BR	7000	560	1900	0	0
2019/04/22 16:16:00	BASE	6.31	168	7.61	159	-0.7	100	-0.7	42	0	992.9	NA	0.0000	BR	7000	1480	22340	0	0
2019/04/22 16:17:00	BASE	5.77	169	7.61	159	-0.8	100	-0.8	42	0	993.0	NA	0.0000	BR	9999	1150	0	0	0
2019/04/22 16:18:00	BASE	4.71	169	7.61	159	-1.0	100	-1.0	42	0	993.0	NA	0.0000	BR	9999	1870	0	0	0
2019/04/22 16:19:00	BASE	3.55	170	7.61	159	-1.1	100	-1.1	43	0	993.0	NA	0.0000	BR	9999	1770	0	0	0
2019/04/22 16:20:00	BASE	3.25	169	7.61	159	-1.1	100	-1.1	43	0	993.0	NA	0.0000	BR	9999	1280	0	0	0
2019/04/22 16:21:00	BASE	3.29	164	7.61	159	-1.2	100	-1.2	42	0	993.0	NA	0.0000	BR	9999	690	1610	0	0
2019/04/22 16:22:00	BASE	3.52	159	7.61	159	-1.2	100	-1.2	42	0	992.9	NA	0.0000		9999	660	0	0	0
2019/04/22 16:23:00	BASE	3.61	157	7.61	159	-1.2	100	-1.2	41	0	992.9	NA	0.0000		9999	620	2100	0	0
2019/04/22 16:24:00	BASE	3.23	153	7.31	168	-1.2	100	-1.2	41	0	992.9	NA	0.0000		9999	620	1440	0	0
2019/04/22 16:25:00	BASE	2.77	153	6.74	171	-1.2	100	-1.2	41	0	992.9	NA	0.0000		9999	620	0	0	0
2019/04/22 16:26:00	BASE	2.48	154	6.48	165	-1.2	100	-1.2	42	0	992.9	NA	0.0000		9999	590	2790	0	0
2019/04/22 16:27:00	BASE	2.19	146	4.89	160	-1.3	100	-1.3	41	0	992.9	NA	0.0000		9999	590	2790	0	0
2019/04/22 16:28:00	BASE	2.73	145	4.12	154	-1.3	100	-1.3	41	0	992.9	NA	0.0000		9999	590	2000	0	0
2019/04/22 16:29:00	BASE	3.47	149	4.12	154	-1.3	100	-1.3	40	0	992.9	NA	0.0000		9999	520	0	0	0
2019/04/22 16:30:00	BASE	3.59	155	4.12	154	-1.4	100	-1.4	39	0	992.9	NA	0.0000		9999	560	0	0	0
2019/04/22 16:31:00	BASE	4.49	162	5.71	162	-1.4	100	-1.4	39	0	992.8	NA	0.0000		9999	2130	2820	0	0
2019/04/22 16:32:00	BASE	5.37	169	5.71	175	-1.4	100	-1.4	39	0	992.8	NA	0.0000		9999	2260	0	0	0
2019/04/22 16:33:00	BASE	5.36	174	5.71	179	-1.4	100	-1.4	40	0	992.8	NA	0.0000		9999	2230	0	0	0
2019/04/22 16:34:00	BASE	4.83	169	5.71	179	-1.4	100	-1.4	40	0	992.8	NA	0.0000		9999	1870	2620	0	0
2019/04/22 16:35:00	BASE	3.86	153	5.71	179	-1.5	100	-1.5	40	0	992.9	NA	0.0000		7000	2690	0	0	0
2019/04/22 16:36:00	BASE	3.31	144	5.71	179	-1.5	100	-1.5	40	0	992.9	NA	0.0000	BR	5000	1970	2920	0	0
2019/04/22 16:37:00	BASE	3.23	153	5.71	179	-1.5	100	-1.5	40	0	992.9	NA	0.0000	BR	6000	2850	0	0	0
2019/04/22 16:38:00	BASE	2.88	163	5.71	179	-1.6	100	-1.6	39	0	992.9	NA	0.0000	BR	9000	1770	0	0	0
2019/04/22 16:39:00	BASE	2.12	154	5.71	179	-1.6	100	-1.6	40	0	992.9	NA	0.0000	BR	9999	3080	0	0	0
2019/04/22 16:40:00	BASE	1.75	155	5.71	179	-1.6	100	-1.6	40	0	992.9	NA	0.0000	BR	9999	1970	3050	0	0
2019/04/22 16:41:00	BASE	1.90	155	5.71	179	-1.6	100	-1.6	40	0	992.9	NA	0.0000	BR	9999	2100	3180	0	0
2019/04/22 16:42:00	BASE	2.20	146	5.71	179	-1.6	100	-1.6	41	0	992.9	NA	0.0000	BR	9999	1800	3150	0	0
2019/04/22 16:43:00	BASE	2.86	154	5.20	168	-1.5	100	-1.5	41	0	992.8	NA	0.0000	BR	9999	2920	0	0	0
2019/04/22 16:44:00	BASE	3.99	175	5.35	188	-1.5	100	-1.5	41	0	992.8	NA	0.0000	BR	9999	3050	0	0	0
2019/04/22 16:45:00	BASE	4.40	186	5.35	188	-1.5	100	-1.5	41	0	992.8	NA	0.0000		9999	1840	3080	0	0
2019/04/22 16:46:00	BASE	3.36	177	5.35	188	-1.5	100	-1.5	41	0	992.8	NA	0.0000		9999	2260	3120	0	0
2019/04/22 16:47:00	BASE	1.82	154	5.35	188	-1.4	100	-1.4	41	0	992.8	NA	0.0000		9999	3080	0	0	0
2019/04/22 16:48:00	BASE	0.51	126	5.35	188	-1.4	100	-1.4	41	0	992.8	NA	0.0000		9999	1970	2920	0	0
2019/04/22 16:49:00	BASE	0.59	193	5.35	188	-1.4	100	-1.4	42	0	992.8	NA	0.0000		9999	2130	3120	0	0
2019/04/22 16:50:00	BASE	2.10	160	5.35	188	-1.4	100	-1.4	43	0	992.8	NA	0.0000		9999	2950	0	0	0
2019/04/22 16:51:00	BASE	2.85	127	5.35	188	-1.3	100	-1.3	45	0	992.9	NA	0.0000		9999	3020	0	0	0
2019/04/22 16:52:00	BASE	2.30	108	5.35	188	-1.3	100	-1.3	45	0	992.8	NA	0.0000		9999	2920	0	0	0
2019/04/22 16:53:00	BASE	1.73	116	5.35	188	-1.3	100	-1.3	46	0	992.8	NA	0.0000		9999	1940	0	0	0
2019/04/22 16:54:00	BASE	2.30	136	4.78	192	-1.3	100	-1.3	46	0	992.8	NA	0.0000		9999	2000	3050	0	0
2019/04/22 16:55:00	BASE	3.32	145	3.70	142	-1.3	100	-1.3	44	0	992.8	NA	0.0000		9999	2070	2990	0	0
2019/04/22 16:56:00	BASE	3.36	144	3.70	142	-1.2	100	-1.2	43	0	992.8	NA	0.0000		9999	1840	0	0	0
2019/04/22 16:57:00	BASE	3.04	136	3.70	142	-1.2	100	-1.2	42	0	992.8	NA	0.0000		9999	2300	3120	0	0
2019/04/22 16:58:00	BASE	2.68	121	3.70	142	-1.2	100	-1.2	42	0	992.8	NA	0.0000		9999	1970	3180	0	0
2019/04/22 16:59:00	BASE	2.26	135	3.70	142	-1.2	100	-1.2	41	0	992.7	NA	0.0000		9999	1940	3020	0	0
2019/04/22 17:00:00	BASE	1.85	154	3.70	142	-1.1	100	-1.1	40	0	992.8	NA	0.0000		9999	1870	0	0	0
2019/04/22 17:01:00	BASE	1.38	164	3.70	142	-1.1	100	-1.1	40	0	992.8	NA	0.0000		9999	2000	2990	0	0
2019/04/22 17:02:00	BASE	1.71	182	3.70	142	-1.1	100	-1.1	40	0	992.8	NA	0.0000		9999	1940	3020	0	0
2019/04/22 17:03:00	BASE	2.88	193	4.06	210	-1.1	100	-1.1	39	0	992.7	NA	0.0000		9999	1870	0	0	0
2019/04/22 17:04:00	BASE	4.19	201	5.25	211	-1.1	100	-1.1	39	0	992.7	NA	0.0000		9999	2920	0	0	0
2019/04/22 17:05:00	BASE	5.19	205	5.61	204	-1.2	100	-1.2	39	0	992.7	NA	0.0000		9999	1970	2950	0	0
2019/04/22 17:06:00	BASE	5.18	197	5.61	204	-1.2	100	-1.2	39	0	992.7	NA	0.0000		9999	2990	0	0	0
2019/04/22 17:07:00	BASE	5.00	183	5.61	175	-1.2	100	-1.2	39	0	992.7	NA	0.0000		9999	2890	0	0	0
2019/04/22 17:08:00	BASE	5.73	173	6.79	170	-1.2	100	-1.2	39	0	992.7	NA	0.0000		9999	1970	2990	0	0
2019/04/22 17:09:00	BASE	5.84	165	6.79	170	-1.2	100	-1.2	39	0	992.7	NA	0.0000		9999	2000	2990	0	0
2019/04/22 17:10:00	BASE	4.27	154	6.79	170	-1.2	100	-1.2	40	0	992.7	NA	0.0000		9999	1940	3020	0	0
2019/04/22 17:11:00	BASE	3.44	148	6.79	170	-1.2	100	-1.2	40	0	992.7	NA	0.0000		9999	2790	0	0	0
2019/04/22 17:12:00	BASE	4.70	152	6.79	170	-1.1	100	-1.1	41	0	992.5	NA	0.0000		9999	2590	0	0	0
2019/04/22 17:13:01	BASE	6.18	158	7.15	153	-1.1	100	-1.1	41	0	992.5	NA	0.0000		9999	1940	2850	0	0
2019/04/22 17:14:00	BASE	6.88	155	7.36	154	-1.0	100	-1.0	42	0	992.6	NA	0.0000		9999	2720	0	0	0
2019/04/22 17:15:00	BASE	7.30	148	7.92	145	-1.0	100	-1.0	42	0	992.6	NA	0.0000		9999	2690	0	0	0
2019/04/22 17:16:00	BASE	6.84	141	7.92	145	-0.9	100	-0.9	42	0	992.7	NA	0.0000		9999	2030	2820	0	0
2019/04/22 17:17:00	BASE	4.81	138	7.92	145	-0.8	100	-0.8	42	0	992.7	NA	0.0000		9999	2760	0	0	0
2019/04/22 17:18:00	BASE	3.20	140	7.92	145	-0.8	100	-0.8	42	0	992.7	NA	0.0000		9999	2590	0	0	0
2019/04/22 17:19:00	BASE	3.04	139	7.92	145	-0.7	100	-0.7	42	0	992.7	NA	0.0000		9999	1940	2530	0	0
2019/04/22 17:20:00	BASE	3.47	126	7.92	145	-0.6	100	-0.6	42	0	992.7	NA	0.0000		9999	1940	2760	3670	0
2019/04/22 17:21:00	BASE	3.78	110	7.92	145	-0.5	100	-0.5	42	0	992.8	NA	0.0000		9999	2590	0	0	0
2019/04/22 17:22:00	BASE	2.85	95	7.92	145	-0.4	100	-0.4	41	0	992.8	NA	0.0000		9999	1900	2490	0	0
2019/04/22 17:23:00	BASE	1.53	92	7.92	145	-0.4	100	-0.4	41	0	992.8	NA	0.0000		9999	1800	0	0	0
2019/04/22 17:24:00	BASE	1.49	100	7.92	145	-0.3	100	-0.3	41	0	992.8	NA	0.0000		9999	1900	2920	0	0
2019/04/22 17:25:00	BASE	2.26	80	6.74	143	-0.2	100	-0.2	41	0	992.8	NA	0.0000		9999	2030	2920	0	0
2019/04/22 17:26:00	BASE	1.85	42	4.58	119	-0.2	100	-0.2	40	0	992.8	NA	0.0000		9999	2890	0	0	0
2019/04/22 17:27:00	BASE	0.85	62	4.22	116	-0.3	100	-0.3	40	0	992.8	NA	0.0000		9999	1870	2850	0	0
2019/04/22 17:28:00	BASE	1.26	127	4.22	116	-0.4	100	-0.4	39	0	992.8	NA	0.0000		9999	1870	0	0	0
2019/04/22 17:29:00	BASE	2.84	141	4.22	116	-0.5	100	-0.5	39	0	992.8	NA	0.0000		9999	1840	2950	0	0
2019/04/22 17:30:00	BASE	3.68	139	4.22	116	-0.6	100	-0.6	38	0	992.8	NA	0.0000		9999	1870	2890	0	0
2019/04/22 17:31:00	BASE	3.27	142	4.06	136	-0.7	100	-0.7	38	0	992.8	NA	0.0000		9999	2100	3050	0	0
2019/04/22 17:32:00	BASE	2.80	146	4.06	136	-0.7	100	-0.7	39	0	992.7	NA	0.0000		9999	1940	3150	0	0
2019/04/22 17:33:00	BASE	3.00	146	4.06	136	-0.7	100	-0.7	40	0	992.7	NA	0.0000		9999	2000	2920	0	0
2019/04/22 17:34:00	BASE	3.37	148	4.22	155	-0.8	100	-0.8	40	0	992.7	NA	0.0000		9999	1970	3080	0	0
2019/04/22 17:35:00	BASE	3.19	145	4.22	155	-0.8	100	-0.8	39	0	992.6	NA	0.0000		9999	1870	0	0	0
2019/04/22 17:36:00	BASE	2.91	133	4.22	155	-0.9	100	-0.9	39	0	992.7	NA	0.0000		9999	1800	0	0	0
2019/04/22 17:37:00	BASE	3.05	122	4.22	155	-0.9	100	-0.9	39	0	992.7	NA	0.0000		9999	1840	0	0	0
2019/04/22 17:38:00	BASE	3.31	111	4.22	155	-0.9	100	-0.9	39	0	992.6	NA	0.0000		9999	1840	0	0	0
2019/04/22 17:39:00	BASE	3.59	113	4.78	135	-0.9	100	-0.9	40	0	992.6	NA	0.0000		9999	1940	2990	0	0
2019/04/22 17:40:00	BASE	4.59	125	6.28	135	-0.8	100	-0.8	41	0	992.6	NA	0.0000		9999	2100	3080	0	0
2019/04/22 17:41:00	BASE	5.78	128	8.49	135	-0.8	100	-0.8	42	0	992.6	NA	0.0000		9999	1970	0	0	0
2019/04/22 17:42:00	BASE	6.53	130	8.49	135	-0.7	100	-0.7	44	0	992.6	NA	0.0000		9999	1840	0	0	0
2019/04/22 17:43:00	BASE	6.33	134	8.49	135	-0.7	100	-0.7	45	0	992.6	NA	0.0000		9999	1870	3180	0	0
2019/04/22 17:44:00	BASE	5.68	139	8.49	135	-0.6	100	-0.6	45	0	992.6	NA	0.0000		9999	1940	3150	0	0
2019/04/22 17:45:00	BASE	5.68	145	8.49	135	-0.6	100	-0.6	46	0	992.6	NA	0.0000		9999	1940	2820	0	0
2019/04/22 17:46:00	BASE	5.94	147	8.49	135	-0.6	100	-0.6	46	0	992.6	NA	0.0000		9999	2000	3080	0	0
2019/04/22 17:47:00	BASE	6.22	148	8.49	135	-0.6	100	-0.6	46	0	992.6	NA	0.0000		9999	1840	0	0	0
2019/04/22 17:48:00	BASE	5.78	147	8.49	135	-0.6	100	-0.6	45	0	992.6	NA	0.0000		9999	1770	0	0	0
2019/04/22 17:49:00	BASE	4.39	141	8.49	135	-0.6	100	-0.6	46	0	992.7	NA	0.0000		9999	1770	0	0	0
2019/04/22 17:50:00	BASE	4.10	136	8.49	135	-0.6	100	-0.6	46	0	992.6	NA	0.0000		9999	1770	0	0	0
2019/04/22 17:51:00	BASE	4.67	136	7.41	134	-0.6	100	-0.6	45	0	992.6	NA	0.0000		9999	1800	0	0	0
2019/04/22 17:52:00	BASE	4.13	144	6.94	150	-0.6	100	-0.6	46	0	992.6	NA	0.0000		9999	1870	0	0	0
2019/04/22 17:53:00	BASE	3.56	144	6.94	150	-0.6	100	-0.6	46	0	992.6	NA	0.0000		9999	1940	0	0	0
2019/04/22 17:54:00	BASE	3.72	128	6.94	150	-0.7	100	-0.7	48	0	992.6	NA	0.0000		9999	1840	0	0	0
2019/04/22 17:55:00	BASE	3.18	80	6.94	150	-0.7	100	-0.7	50	0	992.6	NA	0.0000		9999	1840	0	0	0
2019/04/22 17:56:00	BASE	2.95	15	6.94	150	-0.6	100	-0.6	49	0	992.6	NA	0.0000		9999	1940	0	0	0
2019/04/22 17:57:00	BASE	3.23	346	5.81	150	-0.6	100	-0.6	48	0	992.7	NA	0.0000		9999	1940	0	0	0
2019/04/22 17:58:00	BASE	2.44	330	5.56	126	-0.6	100	-0.6	47	0	992.7	NA	0.0000		9999	2000	0	0	0
2019/04/22 17:59:00	BASE	1.46	298	5.56	126	-0.6	100	-0.6	46	0	992.8	NA	0.0000		9999	1970	0	0	0
2019/04/22 18:00:00	BASE	0.79	263	5.56	126	-0.6	100	-0.6	46	0	992.8	NA	0.0000		9999	1940	0	0	0
2019/04/22 18:01:00	BASE	0.26	273	5.09	139	-0.6	100	-0.6	45	0	992.8	NA	0.0000		9999	1970	0	0	0
2019/04/22 18:02:00	BASE	0.05	292	4.48	105	-0.6	100	-0.6	44	0	992.8	NA	0.0000		9999	1970	0	0	0
2019/04/22 18:03:00	BASE	0.14	292	4.48	105	-0.6	100	-0.6	42	0	992.8	NA	0.0000		9999	2070	2850	0	0
2019/04/22 18:04:00	BASE	0.43	279	3.76	360	-0.6	100	-0.6	40	0	992.8	NA	0.0000		9999	2030	2820	0	0
2019/04/22 18:05:00	BASE	1.23	236	3.76	360	-0.6	100	-0.6	39	0	992.8	NA	0.0000		9999	2070	0	0	0
2019/04/22 18:06:00	BASE	2.02	210	3.60	342	-0.5	100	-0.5	39	0	992.8	NA	0.0000		9999	1900	0	0	0
2019/04/22 18:07:00	BASE	2.47	208	2.93	209	-0.5	100	-0.5	38	0	992.8	NA	0.0000		9999	2070	2850	0	0
2019/04/22 18:08:00	BASE	2.56	208	2.93	209	-0.5	100	-0.5	39	0	992.8	NA	0.0000		9999	2070	0	0	0
2019/04/22 18:09:00	BASE	2.07	209	2.93	209	-0.6	100	-0.6	41	0	992.8	NA	0.0000		9999	1940	0	0	0
2019/04/22 18:10:00	BASE	1.50	209	2.93	209	-0.6	100	-0.6	42	0	992.7	NA	0.0000		9999	1970	2620	0	0
2019/04/22 18:11:00	BASE	1.13	200	2.93	209	-0.6	100	-0.6	43	0	992.7	NA	0.0000		9999	2000	2660	0	0
2019/04/22 18:12:00	BASE	0.72	193	2.93	209	-0.7	100	-0.7	45	0	992.8	NA	0.0000		9999	1940	2660	0	0
2019/04/22 18:13:00	BASE	0.23	189	2.93	209	-0.7	100	-0.7	47	0	992.8	NA	0.0000		9999	1870	2720	0	0
2019/04/22 18:14:00	BASE	0.76	183	2.93	209	-0.7	100	-0.7	49	0	992.8	NA	0.0000		9999	1770	2690	0	0
2019/04/22 18:15:00	BASE	1.73	178	2.93	209	-0.7	100	-0.7	50	0	992.7	NA	0.0000		9999	1840	2620	0	0
2019/04/22 18:16:00	BASE	2.30	167	2.93	209	-0.7	100	-0.7	51	0	992.7	NA	0.0000		9999	1710	2620	0	0
2019/04/22 18:17:00	BASE	2.57	165	2.78	206	-0.7	100	-0.7	51	0	992.7	NA	0.0000		9999	1740	2660	0	0
2019/04/22 18:18:00	BASE	2.09	180	2.73	163	-0.7	100	-0.7	49	0	992.7	NA	0.0000		9999	1740	2590	0	0
2019/04/22 18:19:00	BASE	1.67	193	2.73	163	-0.7	100	-0.7	48	0	992.7	NA	0.0000	UP	9000	1640	2690	0	0
2019/04/22 18:20:00	BASE	1.80	182	2.73	163	-0.7	100	-0.7	48	0	992.7	NA	0.0000	UP	9999	1610	2660	0	0
2019/04/22 18:21:00	BASE	2.44	161	3.09	151	-0.7	100	-0.7	47	0	992.7	NA	0.0000	UP	9999	1570	2460	0	0
2019/04/22 18:22:00	BASE	2.71	144	3.09	151	-0.7	100	-0.7	45	0	992.7	NA	0.0000	UP	9999	1640	2590	0	0
2019/04/22 18:23:00	BASE	2.22	120	3.09	151	-0.7	100	-0.7	42	0	992.8	NA	0.0000	UP	9999	2590	0	0	0
2019/04/22 18:24:00	BASE	2.00	131	3.09	151	-0.7	100	-0.7	40	0	992.7	NA	0.0000	UP	9999	1710	2300	0	0
2019/04/22 18:25:00	BASE	2.12	169	3.09	151	-0.7	100	-0.7	39	0	992.7	NA	0.0000	UP	9999	1570	0	0	0
2019/04/22 18:26:00	BASE	2.28	183	3.09	151	-0.8	100	-0.8	38	0	992.7	NA	0.0000	UP	9999	1570	0	0	0
2019/04/22 18:27:00	BASE	2.08	180	3.09	151	-0.8	100	-0.8	37	0	992.7	NA	0.0000	UP	9999	1540	0	0	0
2019/04/22 18:28:00	BASE	1.41	169	3.09	151	-0.8	100	-0.8	36	0	992.7	NA	0.0000	UP	9999	1570	0	0	0
2019/04/22 18:29:00	BASE	0.74	174	3.09	151	-0.8	100	-0.8	35	0	992.7	NA	0.0000	UP	9999	1670	2850	0	0
2019/04/22 18:30:00	BASE	1.01	196	3.09	151	-0.8	100	-0.8	34	0	992.7	NA	0.0000	UP	9999	1540	0	0	0
2019/04/22 18:31:00	BASE	1.62	219	3.04	150	-0.8	100	-0.8	34	0	992.7	NA	0.0000	UP	9999	1570	0	0	0
2019/04/22 18:32:00	BASE	1.59	228	2.57	183	-0.8	100	-0.8	34	0	992.7	NA	0.0000		9999	1670	0	0	0
2019/04/22 18:33:00	BASE	1.80	208	2.62	187	-0.8	100	-0.8	33	0	992.6	NA	0.0000		9999	1640	2790	0	0
2019/04/22 18:34:00	BASE	2.29	189	2.68	188	-0.8	100	-0.8	31	0	992.6	NA	0.0000		9999	1670	2690	0	0
2019/04/22 18:35:00	BASE	2.57	191	2.98	196	-0.8	100	-0.8	28	0	992.6	NA	0.0000		9999	1740	2720	0	0
2019/04/22 18:36:00	BASE	2.65	195	2.98	192	-0.8	100	-0.8	26	0	992.6	NA	0.0000		9999	2760	0	0	0
2019/04/22 18:37:00	BASE	2.58	199	2.98	192	-0.7	100	-0.7	24	0	992.6	NA	0.0000		9999	2690	0	0	0
2019/04/22 18:38:00	BASE	2.50	202	2.98	192	-0.7	100	-0.7	23	0	992.6	NA	0.0000		9999	2760	0	0	0
2019/04/22 18:39:00	BASE	2.50	204	2.98	192	-0.7	100	-0.7	22	0	992.6	NA	0.0000		9999	2660	0	0	0
2019/04/22 18:40:00	BASE	2.59	198	3.09	189	-0.7	100	-0.7	22	0	992.6	NA	0.0000		9999	2660	0	0	0
2019/04/22 18:41:00	BASE	2.52	186	3.09	189	-0.7	100	-0.7	21	0	992.6	NA	0.0000		9999	2720	0	0	0
2019/04/22 18:42:00	BASE	2.59	177	3.34	177	-0.7	100	-0.7	21	0	992.6	NA	0.0000		9999	2690	0	0	0
2019/04/22 18:43:00	BASE	2.93	168	3.81	164	-0.7	100	-0.7	20	0	992.6	NA	0.0000		9999	1800	2690	0	0
2019/04/22 18:44:00	BASE	3.11	167	3.91	171	-0.7	100	-0.7	20	0	992.6	NA	0.0000		9999	1800	2720	0	0
2019/04/22 18:45:00	BASE	3.42	165	4.48	165	-0.7	100	-0.7	20	0	992.6	NA	0.0000		9999	2790	0	0	0
2019/04/22 18:46:00	BASE	3.67	155	4.48	159	-0.7	100	-0.7	19	0	992.5	NA	0.0000		9999	2660	0	0	0
2019/04/22 18:47:00	BASE	3.89	155	4.84	169	-0.6	100	-0.6	19	0	992.5	NA	0.0000		9999	2850	0	0	0
2019/04/22 18:48:00	BASE	4.21	154	5.04	153	-0.6	100	-0.6	19	0	992.5	NA	0.0000		9999	2850	0	0	0
2019/04/22 18:49:00	BASE	4.50	144	6.69	147	-0.6	100	-0.6	20	0	992.6	NA	0.0000		9999	2890	0	0	0
2019/04/22 18:50:00	BASE	5.22	142	6.69	147	-0.6	100	-0.6	20	0	992.6	NA	0.0000		9999	2920	0	0	0
2019/04/22 18:51:00	BASE	4.71	130	6.69	147	-0.6	100	-0.6	21	0	992.6	NA	0.0000		9999	2850	0	0	0
2019/04/22 18:52:00	BASE	3.79	117	6.69	147	-0.5	100	-0.5	21	0	992.6	NA	0.0000		9999	2890	0	0	0
2019/04/22 18:53:00	BASE	3.93	119	6.69	147	-0.5	100	-0.5	22	0	992.6	NA	0.0000		9999	2890	0	0	0
2019/04/22 18:54:00	BASE	3.46	108	6.69	147	-0.4	100	-0.4	22	0	992.6	NA	0.0000		9999	2890	0	0	0
2019/04/22 18:55:00	BASE	3.04	83	6.69	147	-0.4	100	-0.4	22	0	992.6	NA	0.0000		9999	2920	3710	0	0
2019/04/22 18:56:00	BASE	3.39	68	6.69	147	-0.4	100	-0.4	22	0	992.6	NA	0.0000		9999	2920	0	0	0
2019/04/22 18:57:00	BASE	3.09	62	6.69	147	-0.4	100	-0.4	21	0	992.6	NA	0.0000		9999	2890	0	0	0
2019/04/22 18:58:00	BASE	2.52	80	6.69	147	-0.4	100	-0.4	20	0	992.6	NA	0.0000		9999	1740	2920	0	0
2019/04/22 18:59:00	BASE	2.61	117	6.53	146	-0.5	100	-0.5	20	0	992.6	NA	0.0000		9999	1740	3020	0	0
2019/04/22 19:00:00	BASE	3.06	131	4.78	135	-0.5	100	-0.5	19	0	992.6	NA	0.0000		9999	1770	2950	0	0
2019/04/22 19:01:00	BASE	3.77	128	5.20	132	-0.6	100	-0.6	18	0	992.6	NA	0.0000		9999	1710	2850	0	0
2019/04/22 19:02:00	BASE	4.55	135	6.17	148	-0.6	100	-0.6	18	0	992.5	NA	0.0000		9999	1900	2890	0	0
2019/04/22 19:03:00	BASE	5.56	145	6.64	146	-0.7	100	-0.7	17	0	992.6	NA	0.0000		9999	1840	2920	0	0
2019/04/22 19:04:00	BASE	5.71	146	6.64	146	-0.7	100	-0.7	16	0	992.6	NA	0.0000		9999	1740	2920	0	0
2019/04/22 19:05:00	BASE	5.84	149	6.89	150	-0.7	100	-0.7	15	0	992.6	NA	0.0000		9999	2850	3580	0	0
2019/04/22 19:06:00	BASE	6.23	154	6.89	150	-0.7	100	-0.7	15	0	992.6	NA	0.0000		9999	1870	2820	0	0
2019/04/22 19:07:00	BASE	5.71	154	6.89	150	-0.7	100	-0.7	15	0	992.6	NA	0.0000		9999	1740	2950	0	0
2019/04/22 19:08:00	BASE	5.55	154	6.89	150	-0.6	100	-0.7	15	0	992.6	NA	0.0000		9999	1740	2890	0	0
2019/04/22 19:09:00	BASE	6.11	155	7.05	158	-0.6	99	-0.7	16	0	992.5	NA	0.0000		9999	2950	0	0	0
2019/04/22 19:10:00	BASE	6.46	157	7.05	158	-0.5	98	-0.8	15	0	992.5	NA	0.0000		9999	1800	2950	0	0
2019/04/22 19:11:00	BASE	6.27	158	7.05	158	-0.5	98	-0.8	15	0	992.4	NA	0.0000		9999	1840	2850	3450	0
2019/04/22 19:12:00	BASE	6.34	158	7.51	168	-0.5	97	-0.9	16	0	992.4	NA	0.0000		9999	2000	3020	0	0
2019/04/22 19:13:00	BASE	5.51	157	7.51	168	-0.4	96	-0.9	16	0	992.4	NA	0.0000		9999	1900	2890	0	0
2019/04/22 19:14:00	BASE	4.77	161	7.51	168	-0.4	96	-1.0	16	0	992.4	NA	0.0000		9999	1900	2920	0	0
2019/04/22 19:15:00	BASE	4.43	164	7.51	168	-0.3	95	-1.0	16	0	992.4	NA	0.0000		9999	2990	0	0	0
2019/04/22 19:16:00	BASE	4.35	158	7.51	168	-0.3	94	-1.1	16	0	992.4	NA	0.0000		9999	2030	2890	0	0
2019/04/22 19:17:00	BASE	4.98	149	7.51	168	-0.3	94	-1.1	15	0	992.4	NA	0.0000		9999	2000	2850	0	0
2019/04/22 19:18:00	BASE	5.44	142	7.51	131	-0.2	93	-1.2	15	0	992.4	NA	0.0000		9999	2950	0	0	0
2019/04/22 19:19:00	BASE	6.74	135	9.00	136	-0.2	93	-1.2	15	0	992.4	NA	0.0000		9999	2890	0	0	0
2019/04/22 19:20:00	BASE	7.40	132	9.00	136	-0.2	93	-1.2	14	0	992.4	NA	0.0000		9999	2820	0	0	0
2019/04/22 19:21:00	BASE	6.49	127	9.00	136	-0.2	93	-1.2	14	0	992.4	NA	0.0000		9999	2790	0	0	0
2019/04/22 19:22:00	BASE	5.26	125	9.00	136	-0.2	93	-1.2	13	0	992.4	NA	0.0000		9999	2000	2720	0	0
2019/04/22 19:23:00	BASE	3.97	128	9.00	136	-0.2	93	-1.2	13	0	992.4	NA	0.0000		9999	2000	2820	0	0
2019/04/22 19:24:00	BASE	2.92	121	9.00	136	-0.2	93	-1.2	12	0	992.4	NA	0.0000		9999	2760	0	0	0
2019/04/22 19:25:00	BASE	2.15	103	9.00	136	-0.2	93	-1.2	12	0	992.4	NA	0.0000		9999	2760	0	0	0
2019/04/22 19:26:00	BASE	1.44	113	9.00	136	-0.2	93	-1.2	11	0	992.4	NA	0.0000		9999	2760	0	0	0
2019/04/22 19:27:00	BASE	0.85	116	9.00	136	-0.2	93	-1.1	11	0	992.4	NA	0.0000		9999	2720	0	0	0
2019/04/22 19:28:00	BASE	1.53	111	9.00	136	-0.2	94	-1.1	11	0	992.4	NA	0.0000		9999	2660	0	0	0
2019/04/22 19:29:00	BASE	2.62	122	8.28	129	-0.2	94	-1.1	11	0	992.4	NA	0.0000		9999	2660	0	0	0
2019/04/22 19:30:00	BASE	2.71	113	7.31	128	-0.3	94	-1.1	11	0	992.4	NA	0.0000		9999	1840	2660	0	0
2019/04/22 19:31:00	BASE	2.26	101	5.25	127	-0.3	94	-1.1	11	0	992.3	NA	0.0000		9999	2690	0	0	0
2019/04/22 19:32:00	BASE	1.47	80	3.65	136	-0.3	95	-1.0	10	0	992.3	NA	0.0000		9999	2620	0	0	0
2019/04/22 19:33:00	BASE	0.63	75	3.55	120	-0.3	95	-1.0	10	0	992.3	NA	0.0000		9999	2660	0	0	0
2019/04/22 19:34:00	BASE	0.85	76	3.55	120	-0.2	95	-0.9	9	0	992.3	NA	0.0000		9999	2720	0	0	0
2019/04/22 19:35:00	BASE	1.67	64	3.55	120	-0.2	95	-0.9	9	0	992.3	NA	0.0000		9999	2660	0	0	0
2019/04/22 19:36:00	BASE	1.66	47	3.55	120	-0.2	95	-0.9	9	0	992.3	NA	0.0000		9999	1840	2760	0	0
2019/04/22 19:37:00	BASE	1.28	27	3.55	120	-0.2	95	-0.9	9	0	992.3	NA	0.0000		9999	2790	0	0	0
2019/04/22 19:38:00	BASE	0.49	17	3.09	112	-0.2	94	-1.0	9	0	992.2	NA	0.0000		9999	2720	0	0	0
2019/04/22 19:39:00	BASE	0.00	346	3.04	99	-0.2	94	-1.0	9	0	992.2	NA	0.0000		9999	2070	2760	0	0
2019/04/22 19:40:00	BASE	0.05	279	2.52	105	-0.2	94	-1.0	9	0	992.2	NA	0.0000		9999	2820	0	0	0
2019/04/22 19:41:00	BASE	0.27	222	2.01	70	-0.2	94	-1.0	9	0	992.2	NA	0.0000		9999	2760	0	0	0
2019/04/22 19:42:00	BASE	1.26	185	3.19	161	-0.2	94	-0.9	9	0	992.2	NA	0.0000		9999	2760	0	0	0
2019/04/22 19:43:00	BASE	1.87	162	3.19	161	-0.1	94	-0.9	9	0	992.2	NA	0.0000		9999	2760	0	0	0
2019/04/22 19:44:00	BASE	1.39	146	3.19	161	-0.1	94	-0.9	9	0	992.2	NA	0.0000		9999	2760	0	0	0
2019/04/22 19:45:00	BASE	0.91	133	3.19	161	-0.1	94	-0.9	9	0	992.3	NA	0.0000		9999	2820	0	0	0
2019/04/22 19:46:00	BASE	0.35	96	3.19	161	-0.1	94	-0.9	9	0	992.3	NA	0.0000		9999	2820	0	0	0
2019/04/22 19:47:00	BASE	0.00	36	3.19	161	-0.1	94	-0.9	9	0	992.3	NA	0.0000		9999	2890	0	0	0
2019/04/22 19:48:00	BASE	0.00	1	3.19	161	-0.1	94	-0.9	9	0	992.3	NA	0.0000		9999	2850	0	0	0
2019/04/22 19:49:00	BASE	0.34	314	3.19	161	-0.0	94	-0.9	8	0	992.3	NA	0.0000		9999	2890	0	0	0
2019/04/22 19:50:00	BASE	0.94	267	3.19	161	-0.0	94	-0.9	8	0	992.3	NA	0.0000		9999	2950	0	0	0
2019/04/22 19:51:00	BASE	0.69	247	3.19	161	-0.0	93	-1.0	8	0	992.3	NA	0.0000		9999	2920	0	0	0
2019/04/22 19:52:00	BASE	0.32	225	2.21	177	-0.0	93	-1.0	8	0	992.3	NA	0.0000		9999	2950	0	0	0
2019/04/22 19:53:00	BASE	0.36	196	1.54	159	-0.1	93	-1.0	8	0	992.3	NA	0.0000		9999	2820	0	0	0
2019/04/22 19:54:00	BASE	0.13	176	1.39	157	-0.1	93	-1.0	8	0	992.3	NA	0.0000		9999	2820	0	0	0
2019/04/22 19:55:00	BASE	0.00	163	1.34	249	-0.1	94	-1.0	8	0	992.3	NA	0.0000		9999	2820	0	0	0
2019/04/22 19:56:00	BASE	0.60	156	1.70	157	-0.1	94	-0.9	7	0	992.3	NA	0.0000		9999	2790	0	0	0
2019/04/22 19:57:00	BASE	1.49	164	2.31	174	-0.1	95	-0.9	7	0	992.3	NA	0.0000		9999	2790	0	0	0
2019/04/22 19:58:00	BASE	1.93	171	2.31	172	-0.1	95	-0.9	7	0	992.3	NA	0.0000		9999	2760	0	0	0
2019/04/22 19:59:00	BASE	1.88	170	2.31	172	-0.2	95	-0.8	7	0	992.3	NA	0.0000		9999	2720	0	0	0
2019/04/22 20:00:00	BASE	1.55	151	2.31	172	-0.2	96	-0.8	7	0	992.3	NA	0.0000		9999	2720	0	0	0
2019/04/22 20:01:00	BASE	1.33	132	2.31	172	-0.2	96	-0.8	6	0	992.3	NA	0.0000		9999	2690	0	0	0
2019/04/22 20:02:00	BASE	1.03	136	2.31	172	-0.3	97	-0.7	6	0	992.3	NA	0.0000		9999	2000	2620	0	0
2019/04/22 20:03:00	BASE	1.02	155	2.31	172	-0.3	97	-0.7	6	0	992.4	NA	0.0000		9999	2100	2690	0	0
2019/04/22 20:04:00	BASE	1.48	175	2.31	172	-0.3	98	-0.6	6	0	992.4	NA	0.0000		9999	2690	0	0	0
2019/04/22 20:05:00	BASE	1.69	176	2.31	172	-0.3	98	-0.6	5	0	992.4	NA	0.0000		9999	2030	2820	0	0
2019/04/22 20:06:00	BASE	1.43	152	2.31	172	-0.3	98	-0.5	5	0	992.5	NA	0.0000		9999	1870	2660	0	0
2019/04/22 20:07:00	BASE	0.97	128	2.31	172	-0.3	98	-0.5	5	0	992.5	NA	0.0000		9999	1870	2720	0	0
2019/04/22 20:08:00	BASE	0.37	106	2.11	170	-0.2	98	-0.5	4	0	992.4	NA	0.0000		9999	1800	0	0	0
2019/04/22 20:09:00	BASE	0.00	93	1.85	176	-0.2	98	-0.4	4	0	992.4	NA	0.0000		9999	1770	0	0	0
2019/04/22 20:10:00	BASE	0.00	146	1.85	176	-0.2	98	-0.5	4	0	992.4	NA	0.0000		9999	1770	0	0	0
2019/04/22 20:11:00	BASE	0.17	203	1.85	176	-0.2	98	-0.5	4	0	992.4	NA	0.0000		9999	1740	0	0	0
2019/04/22 20:12:00	BASE	0.17	222	1.85	176	-0.2	98	-0.5	4	0	992.4	NA	0.0000		9999	1800	2690	0	0
2019/04/22 20:13:00	BASE	0.00	238	1.85	176	-0.2	98	-0.5	3	0	992.4	NA	0.0000		9999	1770	2560	0	0
2019/04/22 20:14:00	BASE	0.00	277	1.85	176	-0.2	98	-0.5	3	0	992.4	NA	0.0000		9999	1900	2620	0	0
2019/04/22 20:15:00	BASE	0.00	298	1.44	141	-0.3	98	-0.5	3	0	992.4	NA	0.0000		9999	1870	2690	0	0
2019/04/22 20:16:00	BASE	0.00	233	1.39	146	-0.3	99	-0.5	3	0	992.4	NA	0.0000		9999	2590	0	0	0
2019/04/22 20:17:00	BASE	0.00	195	1.08	215	-0.4	99	-0.5	3	0	992.5	NA	0.0000		9999	1770	2460	0	0
2019/04/22 20:18:00	BASE	0.60	193	1.29	196	-0.4	99	-0.4	3	0	992.5	NA	0.0000		9999	1770	2690	0	0
2019/04/22 20:19:00	BASE	1.19	189	1.39	186	-0.4	100	-0.4	3	0	992.5	NA	0.0000		9999	1770	2620	0	0
2019/04/22 20:20:00	BASE	1.30	184	1.49	180	-0.3	100	-0.3	3	0	992.4	NA	0.0000		9999	2720	3250	0	0
2019/04/22 20:21:00	BASE	1.53	178	1.85	168	-0.3	100	-0.3	3	0	992.4	NA	0.0000		9999	2720	3220	0	0
2019/04/22 20:22:00	BASE	1.83	171	2.11	170	-0.3	100	-0.3	2	0	992.4	NA	0.0000		9999	2760	0	0	0
2019/04/22 20:23:00	BASE	2.09	169	2.57	172	-0.3	100	-0.3	2	0	992.4	NA	0.0000		9999	1800	2820	0	0
2019/04/22 20:24:00	BASE	2.29	170	2.57	172	-0.3	100	-0.3	2	0	992.4	NA	0.0000		9999	2850	0	0	0
2019/04/22 20:25:00	BASE	2.08	164	2.57	172	-0.3	100	-0.3	2	0	992.4	NA	0.0000		9999	1640	2720	0	0
2019/04/22 20:26:00	BASE	1.53	144	2.57	172	-0.3	100	-0.3	2	0	992.3	NA	0.0000		9999	2950	0	0	0
2019/04/22 20:27:00	BASE	0.93	103	2.57	172	-0.4	100	-0.4	2	0	992.3	NA	0.0000		9999	2990	0	0	0
2019/04/22 20:28:00	BASE	1.45	60	2.83	40	-0.4	100	-0.4	2	0	992.3	NA	0.0000		9999	3020	0	0	0
2019/04/22 20:29:00	BASE	2.13	41	2.83	40	-0.5	100	-0.5	2	0	992.3	NA	0.0000		9999	1670	3020	0	0
2019/04/22 20:30:00	BASE	1.20	61	2.83	40	-0.5	100	-0.5	2	0	992.4	NA	0.0000		9999	3020	0	0	0
2019/04/22 20:31:00	BASE	0.89	102	2.83	40	-0.5	100	-0.5	1	0	992.4	NA	0.0000		9999	1710	2990	0	0
2019/04/22 20:32:00	BASE	1.35	130	2.83	40	-0.5	100	-0.5	1	0	992.4	NA	0.0000		9999	1640	2920	0	0
2019/04/22 20:33:00	BASE	1.06	131	2.83	40	-0.5	100	-0.5	1	0	992.4	NA	0.0000		9999	1640	2950	0	0
2019/04/22 20:34:00	BASE	0.45	93	2.83	40	-0.4	100	-0.4	1	0	992.4	NA	0.0000		9999	1540	2990	0	0
2019/04/22 20:35:00	BASE	0.76	54	2.83	40	-0.4	100	-0.4	1	0	992.4	NA	0.0000		9999	1610	0	0	0
2019/04/22 20:36:00	BASE	1.53	53	2.83	40	-0.4	100	-0.4	1	0	992.4	NA	0.0000		9999	1570	0	0	0
2019/04/22 20:37:00	BASE	1.73	72	2.83	40	-0.4	100	-0.4	1	0	992.4	NA	0.0000		9999	1570	2990	0	0
2019/04/22 20:38:00	BASE	1.41	79	2.78	40	-0.4	100	-0.4	1	0	992.4	NA	0.0000		9999	1610	2990	0	0
2019/04/22 20:39:00	BASE	0.54	61	1.95	69	-0.4	100	-0.4	1	0	992.4	NA	0.0000		9999	1670	3050	0	0
2019/04/22 20:40:00	BASE	0.00	25	1.95	69	-0.3	100	-0.3	1	0	992.4	NA	0.0000		9999	1640	3050	0	0
2019/04/22 20:41:00	BASE	0.00	3	1.95	69	-0.3	100	-0.3	1	0	992.4	NA	0.0000		9999	1640	3080	0	0
2019/04/22 20:42:00	BASE	0.00	1	1.95	69	-0.3	100	-0.3	1	0	992.4	NA	0.0000		9999	1640	3020	0	0
2019/04/22 20:43:00	BASE	0.14	2	1.95	69	-0.4	100	-0.4	1	0	992.4	NA	0.0000		9999	1640	3020	0	0
2019/04/22 20:44:00	BASE	0.92	5	1.95	69	-0.4	100	-0.4	1	0	992.4	NA	0.0000		9999	3020	0	0	0
2019/04/22 20:45:00	BASE	1.75	6	2.06	9	-0.4	100	-0.4	1	0	992.4	NA	0.0000		9999	2990	0	0	0
2019/04/22 20:46:00	BASE	1.97	10	2.16	14	-0.4	100	-0.4	1	0	992.4	NA	0.0000		9999	2890	0	0	0
2019/04/22 20:47:00	BASE	1.41	14	2.16	14	-0.5	100	-0.5	1	0	992.4	NA	0.0000		9999	3080	0	0	0
2019/04/22 20:48:00	BASE	0.42	14	2.16	14	-0.5	100	-0.5	1	0	992.4	NA	0.0000		9999	3020	0	0	0
2019/04/22 20:49:00	BASE	0.05	23	2.16	14	-0.5	100	-0.5	0	0	992.4	NA	0.0000		9999	3020	0	0	0
2019/04/22 20:50:00	BASE	0.39	36	2.16	14	-0.5	100	-0.5	0	0	992.4	NA	0.0000		9999	3050	0	0	0
2019/04/22 20:51:00	BASE	1.04	31	2.16	14	-0.5	100	-0.5	0	0	992.4	NA	0.0000		9999	3050	0	0	0
2019/04/22 20:52:00	BASE	1.54	13	2.16	14	-0.5	100	-0.5	0	0	992.4	NA	0.0000		9999	2990	0	0	0
2019/04/22 20:53:00	BASE	1.37	5	2.16	14	-0.5	100	-0.5	0	0	992.4	NA	0.0000		9999	3050	0	0	0
2019/04/22 20:54:00	BASE	0.52	1	2.16	14	-0.5	100	-0.5	0	0	992.4	NA	0.0000		9999	2990	0	0	0
2019/04/22 20:55:00	BASE	0.00	313	2.16	14	-0.5	100	-0.5	0	0	992.4	NA	0.0000		9999	2950	0	0	0
2019/04/22 20:56:00	BASE	0.14	207	1.75	1	-0.3	100	-0.3	0	0	992.4	NA	0.0000		9999	2920	0	0	0
2019/04/22 20:57:00	BASE	0.87	185	1.75	1	-0.2	100	-0.3	0	0	992.4	NA	0.0000		9999	2920	0	0	0
2019/04/22 20:58:00	BASE	0.90	185	1.75	1	-0.2	99	-0.3	0	0	992.4	NA	0.0000		9999	2820	0	0	0
2019/04/22 20:59:00	BASE	0.26	156	1.75	1	-0.1	99	-0.3	0	0	992.4	NA	0.0000		9999	2850	0	0	0
2019/04/22 21:00:00	BASE	0.51	102	1.75	1	-0.1	98	-0.4	0	0	992.4	NA	0.0000		9999	2820	0	0	0
2019/04/22 21:01:00	BASE	0.63	75	1.75	1	-0.2	98	-0.5	0	0	992.4	NA	0.0000		9999	2820	0	0	0
2019/04/22 21:02:00	BASE	0.23	50	1.65	187	-0.3	97	-0.6	0	0	992.4	NA	0.0000		9999	2850	0	0	0
2019/04/22 21:03:00	BASE	0.00	24	1.65	187	-0.3	98	-0.6	0	0	992.4	NA	0.0000		9999	2820	3810	0	0
2019/04/22 21:04:00	BASE	0.38	18	1.65	187	-0.3	98	-0.6	0	0	992.4	NA	0.0000		9999	2850	3900	0	0
2019/04/22 21:05:00	BASE	0.64	25	1.65	187	-0.4	98	-0.6	0	0	992.4	NA	0.0000		9999	3540	0	0	0
2019/04/22 21:06:00	BASE	0.50	17	1.65	187	-0.4	99	-0.6	0	0	992.4	NA	0.0000		9999	3280	0	0	0
2019/04/22 21:07:00	BASE	0.36	14	1.75	31	-0.4	99	-0.6	0	0	992.5	NA	0.0000		9999	3120	0	0	0
2019/04/22 21:08:00	BASE	1.48	23	2.88	29	-0.4	99	-0.5	0	0	992.6	NA	0.0000		9999	3080	0	0	0
2019/04/22 21:09:00	BASE	2.57	29	2.88	33	-0.4	99	-0.5	0	0	992.6	NA	0.0000		9999	3150	0	0	0
2019/04/22 21:10:00	BASE	1.48	20	2.88	33	-0.4	100	-0.5	0	0	992.6	NA	0.0000		9999	3150	0	0	0
2019/04/22 21:11:00	BASE	0.49	14	2.88	33	-0.4	100	-0.4	0	0	992.6	NA	0.0000		9999	2950	0	0	0
2019/04/22 21:12:00	BASE	1.47	16	2.88	33	-0.4	100	-0.4	0	0	992.5	NA	0.0000		9999	2430	0	0	0
2019/04/22 21:13:00	BASE	2.24	35	2.88	33	-0.4	100	-0.4	0	0	992.4	NA	0.0000		9999	2260	2850	0	0
2019/04/22 21:14:00	BASE	1.34	88	2.88	33	-0.3	100	-0.4	0	0	992.4	NA	0.0000		9999	2170	0	0	0
2019/04/22 21:15:00	BASE	0.34	162	2.88	33	-0.2	100	-0.3	0	0	992.4	NA	0.0000		9999	2300	2890	0	0
2019/04/22 21:16:00	BASE	0.68	256	2.88	33	-0.1	99	-0.2	0	0	992.4	NA	0.0000		9999	2130	0	0	0
2019/04/22 21:17:00	BASE	0.85	300	2.88	33	-0.0	98	-0.2	0	0	992.4	NA	0.0000		9999	2130	0	0	0
2019/04/22 21:18:00	BASE	1.07	349	2.88	33	0.0	98	-0.3	0	0	992.4	NA	0.0000		9999	2100	0	0	0
2019/04/22 21:19:00	BASE	1.84	33	2.62	3	0.0	97	-0.4	0	0	992.4	NA	0.0000		9999	2130	0	0	0
2019/04/22 21:20:00	BASE	1.34	71	2.62	3	-0.1	97	-0.5	0	0	992.3	NA	0.0000		9999	2130	0	0	0
2019/04/22 21:21:00	BASE	1.37	130	2.62	3	-0.2	97	-0.6	0	0	992.3	NA	0.0000		9999	2000	0	0	0
2019/04/22 21:22:00	BASE	1.97	169	2.52	38	-0.2	97	-0.6	0	0	992.3	NA	0.0000		9999	2070	3020	0	0
2019/04/22 21:23:00	BASE	1.76	178	2.52	38	-0.2	97	-0.5	0	0	992.3	NA	0.0000		9999	2030	3050	0	0
2019/04/22 21:24:00	BASE	1.35	163	2.52	38	-0.1	97	-0.5	0	0	992.3	NA	0.0000		9999	2000	3150	0	0
2019/04/22 21:25:00	BASE	1.28	146	2.52	38	-0.1	97	-0.5	0	0	992.3	NA	0.0000		9999	1970	3410	0	0
2019/04/22 21:26:00	BASE	1.64	147	2.52	38	-0.0	97	-0.4	0	0	992.3	NA	0.0000		9999	1740	0	0	0
2019/04/22 21:27:00	BASE	1.82	163	2.52	38	0.0	97	-0.4	0	0	992.2	NA	0.0000		9999	1940	0	0	0
2019/04/22 21:28:00	BASE	1.76	168	2.52	38	0.0	97	-0.5	0	0	992.2	NA	0.0000		9999	1670	3670	0	0
2019/04/22 21:29:00	BASE	1.83	167	2.37	152	0.1	96	-0.5	0	0	992.2	NA	0.0000		9999	1870	0	0	0
2019/04/22 21:30:00	BASE	2.02	164	2.37	168	0.1	96	-0.5	0	0	992.2	NA	0.0000		9999	1770	0	0	0
2019/04/22 21:31:00	BASE	2.38	163	2.78	169	0.1	96	-0.5	0	0	992.2	NA	0.0000		9999	1970	0	0	0
2019/04/22 21:32:00	BASE	2.64	162	2.88	163	0.1	96	-0.5	0	0	992.2	NA	0.0000		9999	1940	0	0	0
2019/04/22 21:33:00	BASE	2.50	156	3.04	162	0.1	96	-0.4	0	0	992.2	NA	0.0000		9999	1900	0	0	0
2019/04/22 21:34:00	BASE	1.89	142	3.04	162	0.1	96	-0.4	0	0	992.2	NA	0.0000		9999	1940	0	0	0
2019/04/22 21:35:00	BASE	1.16	116	3.04	162	0.1	96	-0.4	0	0	992.2	NA	0.0000		9999	2100	0	0	0
2019/04/22 21:36:00	BASE	0.81	89	3.04	162	0.2	96	-0.4	0	0	992.2	NA	0.0000		9999	2000	0	0	0
2019/04/22 21:37:00	BASE	0.39	106	3.04	162	0.2	96	-0.3	0	0	992.2	NA	0.0000		9999	1940	0	0	0
2019/04/22 21:38:00	BASE	0.42	127	3.04	162	0.2	97	-0.3	0	0	992.2	NA	0.0000		9999	2070	0	0	0
2019/04/22 21:39:00	BASE	1.82	103	3.55	76	0.3	97	-0.2	0	0	992.2	NA	0.0000		9999	2030	0	0	0
2019/04/22 21:40:00	BASE	2.53	79	3.55	76	0.3	97	-0.2	0	0	992.2	NA	0.0000		9999	2170	0	0	0
2019/04/22 21:41:00	BASE	1.17	54	3.55	76	0.4	97	-0.1	0	0	992.2	NA	0.0000		9999	2030	2790	0	0
2019/04/22 21:42:00	BASE	0.50	104	3.55	76	0.4	96	-0.1	0	0	992.2	NA	0.0000		9999	2200	2850	0	0
2019/04/22 21:43:00	BASE	0.88	161	3.55	76	0.4	96	-0.2	0	0	992.2	NA	0.0000		9999	2230	0	0	0
2019/04/22 21:44:00	BASE	1.20	130	3.55	76	0.4	96	-0.2	0	0	992.2	NA	0.0000		9999	2170	0	0	0
2019/04/22 21:45:00	BASE	1.47	119	3.55	76	0.4	96	-0.2	0	0	992.2	NA	0.0000		9999	2170	2690	0	0
2019/04/22 21:46:00	BASE	0.84	101	3.55	76	0.3	96	-0.2	0	0	992.2	NA	0.0000		9999	2230	0	0	0
2019/04/22 21:47:00	BASE	0.15	21	3.55	76	0.3	96	-0.2	0	0	992.2	NA	0.0000		9999	2230	2690	0	0
2019/04/22 21:48:00	BASE	1.03	20	3.55	68	0.2	96	-0.3	0	0	992.2	NA	0.0000		9999	2260	0	0	0
2019/04/22 21:49:00	BASE	2.95	58	4.68	73	0.2	97	-0.3	0	0	992.1	NA	0.0000		9999	2690	0	0	0
2019/04/22 21:50:00	BASE	3.95	82	5.86	99	0.1	97	-0.3	0	0	992.1	NA	0.0000		9999	2660	0	0	0
2019/04/22 21:51:00	BASE	3.57	103	5.86	99	0.1	97	-0.3	0	0	992.1	NA	0.0000		9999	2690	0	0	0
2019/04/22 21:52:00	BASE	2.42	126	5.86	99	0.2	97	-0.2	0	0	992.1	NA	0.0000		9999	2820	3640	4760	0
2019/04/22 21:53:00	BASE	1.68	127	5.86	99	0.2	97	-0.2	0	0	992.1	NA	0.0000		9999	2920	3740	4720	0
2019/04/22 21:54:00	BASE	1.74	126	5.86	99	0.3	97	-0.1	0	0	992.1	NA	0.0000		9999	2990	4720	0	0
2019/04/22 21:55:00	BASE	1.73	140	5.86	99	0.3	97	-0.1	0	0	992.1	NA	0.0000		9999	2790	3670	4720	0
2019/04/22 21:56:00	BASE	1.51	139	5.86	99	0.4	97	-0.1	0	0	992.1	NA	0.0000		9999	2790	4720	13190	0
2019/04/22 21:57:00	BASE	1.45	115	5.86	99	0.4	96	-0.1	0	0	992.1	NA	0.0000		9999	2790	4720	0	0
2019/04/22 21:58:00	BASE	1.58	120	5.86	99	0.3	96	-0.2	0	0	992.1	NA	0.0000		9999	2790	4720	13030	0
2019/04/22 21:59:00	BASE	1.67	161	5.86	99	0.3	96	-0.2	0	0	992.0	NA	0.0000		9999	2820	4720	0	0
2019/04/22 22:00:00	BASE	1.88	191	4.84	101	0.3	96	-0.3	0	0	992.0	NA	0.0000		9999	2890	4760	0	0
2019/04/22 22:01:00	BASE	1.75	189	3.04	180	0.3	96	-0.3	0	0	992.1	NA	0.0000		9999	2890	0	0	0
2019/04/22 22:02:00	BASE	1.27	159	3.04	180	0.2	96	-0.3	0	0	992.1	NA	0.0000		9999	2820	0	0	0
2019/04/22 22:03:00	BASE	0.73	130	3.04	180	0.2	96	-0.3	0	0	992.1	NA	0.0000		9999	2790	0	0	0
2019/04/22 22:04:00	BASE	0.14	107	3.04	180	0.2	96	-0.4	0	0	992.1	NA	0.0000		9999	2790	0	0	0
2019/04/22 22:05:00	BASE	0.05	44	3.04	180	0.2	96	-0.4	0	0	992.2	NA	0.0000		9999	2720	0	0	0
2019/04/22 22:06:00	BASE	0.05	22	3.04	180	0.2	96	-0.4	0	0	992.2	NA	0.0000		9999	2660	0	0	0
2019/04/22 22:07:00	BASE	0.00	54	3.04	180	0.2	96	-0.4	0	0	992.2	NA	0.0000		9999	2590	0	0	0
2019/04/22 22:08:00	BASE	0.13	81	3.04	180	0.2	96	-0.4	0	0	992.2	NA	0.0000		9999	2460	0	0	0
2019/04/22 22:09:00	BASE	0.29	94	3.04	180	0.2	96	-0.4	0	0	992.2	NA	0.0000		9999	2430	0	0	0
2019/04/22 22:10:00	BASE	0.15	115	2.06	163	0.2	96	-0.4	0	0	992.2	NA	0.0000		9999	2430	0	0	0
2019/04/22 22:11:00	BASE	0.49	128	2.06	163	0.2	96	-0.4	0	0	992.2	NA	0.0000		9999	2260	0	0	0
2019/04/22 22:12:00	BASE	1.31	126	2.21	115	0.2	96	-0.4	0	0	992.2	NA	0.0000		9999	2230	0	0	0
2019/04/22 22:13:00	BASE	1.55	128	2.21	115	0.3	96	-0.4	0	0	992.2	NA	0.0000		9999	2300	0	0	0
2019/04/22 22:14:00	BASE	0.92	156	2.21	115	0.3	95	-0.4	0	0	992.2	NA	0.0000		9999	2230	0	0	0
2019/04/22 22:15:00	BASE	0.49	149	2.21	115	0.3	95	-0.4	0	0	992.2	NA	0.0000		9999	2300	0	0	0
2019/04/22 22:16:00	BASE	0.72	110	2.21	115	0.4	95	-0.3	0	0	992.2	NA	0.0000		9999	2230	0	0	0
2019/04/22 22:17:00	BASE	0.96	112	2.21	111	0.4	95	-0.3	0	0	992.2	NA	0.0000		9999	2260	0	0	0
2019/04/22 22:18:00	BASE	1.43	119	2.21	111	0.5	95	-0.3	0	0	992.2	NA	0.0000		9999	2300	0	0	0
2019/04/22 22:19:00	BASE	1.11	101	2.21	111	0.5	95	-0.2	0	0	992.2	NA	0.0000		9999	2000	0	0	0
2019/04/22 22:20:00	BASE	0.90	59	2.21	47	0.6	94	-0.2	0	0	992.3	NA	0.0000		9999	2070	0	0	0
2019/04/22 22:21:00	BASE	1.31	33	2.21	47	0.5	94	-0.3	0	0	992.3	NA	0.0000		9999	2360	0	0	0
2019/04/22 22:22:00	BASE	0.64	38	2.21	47	0.5	94	-0.3	0	0	992.3	NA	0.0000		9999	2330	0	0	0
2019/04/22 22:23:00	BASE	0.00	24	2.21	47	0.4	95	-0.3	0	0	992.3	NA	0.0000		9999	2330	0	0	0
2019/04/22 22:24:00	BASE	0.00	34	2.21	47	0.3	95	-0.4	0	0	992.3	NA	0.0000		9999	1800	2300	0	0
2019/04/22 22:25:00	BASE	0.00	211	2.21	47	0.3	96	-0.3	0	0	992.3	NA	0.0000		9999	1800	2260	0	0
2019/04/22 22:26:00	BASE	0.04	238	2.21	47	0.3	96	-0.2	0	0	992.3	NA	0.0000		9999	1740	2330	0	0
2019/04/22 22:27:00	BASE	0.18	138	2.21	47	0.4	97	-0.1	0	0	992.3	NA	0.0000		9999	1670	2260	0	0
2019/04/22 22:28:00	BASE	0.50	148	2.21	47	0.4	97	-0.0	0	0	992.3	NA	0.0000		9999	1540	2070	0	0
2019/04/22 22:29:00	BASE	0.58	162	2.21	47	0.5	97	0.1	0	0	992.3	NA	0.0000		9999	1610	0	0	0
2019/04/22 22:30:00	BASE	0.53	168	2.06	59	0.6	97	0.1	0	0	992.3	NA	0.0000		9999	1640	2330	0	0
2019/04/22 22:31:00	BASE	1.30	182	3.40	184	0.6	96	0.1	0	0	992.3	NA	0.0000		9999	2170	0	0	0
2019/04/22 22:32:00	BASE	2.87	179	4.68	170	0.7	96	0.1	0	0	992.3	NA	0.0000		9999	2260	0	0	0
2019/04/22 22:33:00	BASE	4.11	174	4.73	170	0.7	96	0.1	0	0	992.2	NA	0.0000		9999	2260	0	0	0
2019/04/22 22:34:00	BASE	4.57	170	5.71	169	0.7	95	-0.0	0	0	992.2	NA	0.0000		9999	2260	0	0	0
2019/04/22 22:35:00	BASE	6.31	164	8.69	157	0.7	95	-0.1	0	0	992.2	NA	0.0000		9999	2300	0	0	0
2019/04/22 22:36:00	BASE	7.79	159	9.05	156	0.6	94	-0.2	0	0	992.2	NA	0.0000		9999	2230	0	0	0
2019/04/22 22:37:00	BASE	6.92	154	9.05	156	0.5	95	-0.3	0	0	992.2	NA	0.0000		9999	2330	0	0	0
2019/04/22 22:38:00	BASE	5.64	142	9.05	156	0.4	95	-0.3	0	0	992.2	NA	0.0000		9999	2360	0	0	0
2019/04/22 22:39:00	BASE	4.18	131	9.05	156	0.3	96	-0.3	0	0	992.2	NA	0.0000		9999	2400	0	0	0
2019/04/22 22:40:00	BASE	3.81	141	9.05	156	0.2	97	-0.2	0	0	992.2	NA	0.0000		9999	2400	0	0	0
2019/04/22 22:41:00	BASE	5.20	163	9.05	156	0.2	98	-0.1	0	0	992.2	NA	0.0000		9999	2490	0	0	0
2019/04/22 22:42:00	BASE	5.89	169	9.05	156	0.1	99	0.0	0	0	992.2	NA	0.0000		9999	2490	0	0	0
2019/04/22 22:43:00	BASE	6.37	158	9.05	156	0.1	100	0.1	0	0	992.2	NA	0.0000		9999	2400	0	0	0
2019/04/22 22:44:00	BASE	6.90	140	9.05	156	0.1	100	0.1	0	0	992.2	NA	0.0000		9999	2460	0	0	0
2019/04/22 22:45:00	BASE	6.76	129	9.05	156	0.1	100	0.1	0	0	992.2	NA	0.0000		9999	2430	0	0	0
2019/04/22 22:46:00	BASE	5.11	121	7.46	128	0.1	100	0.1	0	0	992.2	NA	0.0000		9999	2430	0	0	0
2019/04/22 22:47:00	BASE	2.72	105	7.46	128	0.2	100	0.2	0	0	992.2	NA	0.0000		9999	2560	0	0	0
2019/04/22 22:48:00	BASE	3.11	100	7.46	128	0.3	100	0.3	0	0	992.2	NA	0.0000		9999	2560	0	0	0
2019/04/22 22:49:00	BASE	4.59	121	7.46	128	0.4	100	0.4	0	0	992.2	NA	0.0000		9999	2490	0	0	0
2019/04/22 22:50:00	BASE	5.18	148	7.46	128	0.5	100	0.5	0	0	992.1	NA	0.0000		9999	2490	0	0	0
2019/04/22 22:51:00	BASE	5.80	157	7.46	128	0.6	100	0.6	0	0	992.1	NA	0.0000		9999	2490	0	0	0
2019/04/22 22:52:00	BASE	6.11	155	7.46	128	0.5	100	0.5	0	0	992.2	NA	0.0000		9999	2530	0	0	0
2019/04/22 22:53:00	BASE	6.36	145	7.46	128	0.4	100	0.4	0	0	992.2	NA	0.0000		9999	2690	4040	0	0
2019/04/22 22:54:00	BASE	6.72	140	7.46	140	0.3	99	0.2	0	0	992.2	NA	0.0000		9999	2620	0	0	0
2019/04/22 22:55:00	BASE	6.83	144	7.97	155	0.2	99	0.1	0	0	992.1	NA	0.0000		9999	2620	0	0	0
2019/04/22 22:56:00	BASE	7.35	152	8.18	157	0.1	99	0.0	0	0	992.1	NA	0.0000		9999	3050	0	0	0
2019/04/22 22:57:00	BASE	7.25	152	8.23	153	0.0	100	-0.0	0	0	992.1	NA	0.0000		9999	3350	3970	0	0
2019/04/22 22:58:00	BASE	6.49	139	8.23	153	-0.0	100	-0.0	0	0	992.1	NA	0.0000		9999	4000	0	0	0
2019/04/22 22:59:00	BASE	6.45	132	8.23	153	-0.0	100	-0.0	0	0	992.1	NA	0.0000		9999	4040	0	0	0
2019/04/22 23:00:00	BASE	5.97	128	8.23	153	-0.1	100	-0.1	0	0	992.1	NA	0.0000		9999	4100	0	0	0
2019/04/22 23:01:00	BASE	3.59	116	8.23	153	-0.0	100	-0.0	0	0	992.2	NA	0.0000		9999	4000	0	0	0
2019/04/22 23:02:00	BASE	1.38	77	8.23	153	0.0	100	0.0	0	0	992.2	NA	0.0000		9999	3180	4300	0	0
2019/04/22 23:03:00	BASE	0.63	28	8.23	153	0.1	100	0.1	0	0	992.2	NA	0.0000		9999	4360	0	0	0
2019/04/22 23:04:00	BASE	0.24	52	8.23	153	0.2	100	0.2	0	0	992.2	NA	0.0000		9999	4660	0	0	0
2019/04/22 23:05:00	BASE	1.29	147	8.23	153	0.2	100	0.2	0	0	992.1	NA	0.0000		9999	4990	0	0	0
2019/04/22 23:06:00	BASE	2.47	178	8.23	153	0.3	100	0.3	0	0	992.1	NA	0.0000		9999	5120	0	0	0
2019/04/22 23:07:00	BASE	2.93	161	7.31	130	0.3	99	0.2	0	0	992.1	NA	0.0000		9999	0	0	0	0
2019/04/22 23:08:00	BASE	2.92	149	7.31	130	0.3	99	0.2	0	0	992.1	NA	0.0000		9999	0	0	0	0
2019/04/22 23:09:00	BASE	3.06	118	6.79	127	0.5	99	0.4	0	0	992.2	NA	0.0000		9999	1670	0	0	0
2019/04/22 23:10:00	BASE	3.99	124	6.38	115	0.5	99	0.4	0	0	992.2	NA	0.0000		9999	0	0	0	0
2019/04/22 23:11:00	BASE	4.72	139	6.38	115	0.5	98	0.3	0	0	992.2	NA	0.0000		9999	0	0	0	0
2019/04/22 23:12:00	BASE	5.11	136	6.38	115	0.5	98	0.3	0	0	992.2	NA	0.0000		9999	14900	0	0	0
2019/04/22 23:13:00	BASE	5.57	143	6.53	136	0.4	98	0.1	0	0	992.1	NA	0.0000		9999	14900	0	0	0
2019/04/22 23:14:00	BASE	5.97	139	6.53	136	0.3	97	-0.1	0	0	992.1	NA	0.0000		9999	1610	4720	0	0
2019/04/22 23:15:00	BASE	4.85	119	6.53	136	0.2	97	-0.2	0	0	992.1	NA	0.0000		9999	1640	0	0	0
2019/04/22 23:16:00	BASE	3.21	103	6.53	136	0.3	98	-0.0	0	0	992.2	NA	0.0000		9999	1770	5020	14930	0
2019/04/22 23:17:00	BASE	2.22	95	6.53	136	0.4	98	0.1	0	0	992.2	NA	0.0000		9999	4950	0	0	0
2019/04/22 23:18:00	BASE	2.41	108	6.53	136	0.5	99	0.3	0	0	992.1	NA	0.0000		9999	5090	0	0	0
2019/04/22 23:19:00	BASE	3.99	149	6.69	171	0.5	99	0.3	0	0	992.0	NA	0.0000		9999	1440	5120	0	0
2019/04/22 23:20:00	BASE	4.79	160	6.69	171	0.6	99	0.4	0	0	992.0	NA	0.0000		9999	1740	0	0	0
2019/04/22 23:21:00	BASE	4.41	151	6.69	171	0.6	99	0.4	0	0	992.0	NA	0.0000		9999	1610	0	0	0
2019/04/22 23:22:00	BASE	4.28	131	6.69	171	0.6	99	0.4	0	0	992.0	NA	0.0000		9999	1710	0	0	0
2019/04/22 23:23:00	BASE	5.20	118	7.05	128	0.7	99	0.5	0	0	991.9	NA	0.0000		9999	1570	0	0	0
2019/04/22 23:24:00	BASE	5.56	117	7.05	128	0.9	99	0.7	0	0	991.8	NA	0.0000		9999	0	0	0	0
2019/04/22 23:25:00	BASE	6.01	97	8.08	75	1.1	99	0.9	0	0	991.8	NA	0.0000		9999	1670	0	0	0
2019/04/22 23:26:00	BASE	6.86	83	8.08	75	1.4	99	1.3	0	0	991.7	NA	0.0000		9999	1710	0	0	0
2019/04/22 23:27:00	BASE	6.79	95	8.08	75	1.6	99	1.5	0	0	991.7	NA	0.0000		9999	1710	0	0	0
2019/04/22 23:28:00	BASE	6.53	101	8.08	75	1.9	99	1.8	0	0	991.7	NA	0.0000		9999	19100	0	0	0
2019/04/22 23:29:00	BASE	6.31	106	8.08	75	2.1	99	1.9	0	0	991.7	NA	0.0000		9999	14500	0	0	0
2019/04/22 23:30:01	BASE	6.12	110	8.08	75	2.1	99	1.9	0	0	991.7	NA	0.0000		9999	1380	0	0	0
2019/04/22 23:31:01	BASE	5.39	94	8.08	75	2.0	98	1.7	0	0	991.7	NA	0.0000		9999	1640	0	0	0
2019/04/22 23:32:01	BASE	4.09	99	8.08	75	1.9	98	1.6	0	0	991.7	NA	0.0000		9999	1610	0	0	0
2019/04/22 23:33:01	BASE	3.68	125	8.08	75	1.7	98	1.4	0	0	991.7	NA	0.0000		9999	1540	0	0	0
2019/04/22 23:34:01	BASE	4.04	136	8.08	75	1.6	98	1.3	0	0	991.7	NA	0.0000		9999	1350	0	0	0
2019/04/22 23:35:01	BASE	4.23	148	7.97	91	1.6	98	1.3	0	0	991.7	NA	0.0000		9999	1480	0	0	0
2019/04/22 23:36:01	BASE	3.40	170	7.92	67	1.5	98	1.1	0	0	991.7	NA	0.0000		9999	1410	0	0	0
2019/04/22 23:37:01	BASE	3.04	189	7.92	67	1.2	97	0.9	0	0	991.7	NA	0.0000		9999	1440	0	0	0
2019/04/22 23:38:01	BASE	3.61	164	7.92	67	1.1	97	0.7	0	0	991.7	NA	0.0000		9999	1540	4200	0	0
2019/04/22 23:39:01	BASE	3.41	147	7.92	67	0.9	98	0.6	0	0	991.7	NA	0.0000		9999	1510	0	0	0
2019/04/22 23:40:10	BASE	2.64	149	7.92	67	0.8	98	0.6	0	0	991.7	NA	0.0000		9999	1570	4170	0	0
2019/04/22 23:41:01	BASE	1.24	161	5.14	155	0.7	98	0.5	0	0	991.7	NA	0.0000		9999	1540	4170	0	0
2019/04/22 23:42:01	BASE	1.11	179	5.14	155	0.6	99	0.5	0	0	991.7	NA	0.0000		9999	1440	4130	0	0
2019/04/22 23:43:01	BASE	1.99	186	5.14	155	0.6	99	0.5	0	0	991.7	NA	0.0000		9999	4130	0	0	0
2019/04/22 23:44:01	BASE	2.11	162	5.09	159	0.5	99	0.4	0	0	991.7	NA	0.0000		9999	4230	0	0	0
2019/04/22 23:45:01	BASE	2.47	117	5.56	87	0.5	100	0.5	0	0	991.7	NA	0.0000		9999	4270	0	0	0
2019/04/22 23:46:01	BASE	3.14	121	5.56	87	0.8	100	0.8	0	0	991.7	NA	0.0000		9999	4300	0	0	0
2019/04/22 23:47:01	BASE	2.98	117	5.56	87	1.3	100	1.3	0	0	991.7	NA	0.0000		9999	4300	14600	0	0
2019/04/22 23:48:01	BASE	1.94	83	5.56	87	1.7	100	1.7	0	0	991.8	NA	0.0000		9999	1540	0	0	0
2019/04/22 23:49:01	BASE	3.70	33	12.35	348	2.1	100	2.1	0	0	991.7	NA	0.0000		9999	1480	0	0	0
2019/04/22 23:50:01	BASE	8.93	346	13.43	334	2.5	100	2.5	0	0	991.7	NA	0.0000		9999	0	0	0	0
2019/04/22 23:51:01	BASE	7.96	328	13.43	334	2.7	100	2.7	0	0	991.7	NA	0.0000		9999	4360	0	0	0
2019/04/22 23:52:01	BASE	4.55	292	13.43	334	2.8	100	2.8	0	0	991.6	NA	0.0000		9999	1350	4400	0	0
2019/04/22 23:53:01	BASE	4.62	277	13.43	334	2.9	99	2.8	0	0	991.6	NA	0.0000		9999	1480	0	0	0
2019/04/22 23:54:01	BASE	5.91	316	13.43	334	2.8	99	2.6	0	0	991.6	NA	0.0000		9999	1440	0	0	0
2019/04/22 23:55:01	BASE	6.65	337	13.43	334	2.6	98	2.3	0	0	991.6	NA	0.0000		9999	1410	3810	0	0
2019/04/22 23:56:01	BASE	5.95	321	13.43	334	2.4	97	2.0	0	0	991.6	NA	0.0000		9999	1410	0	0	0
2019/04/22 23:57:01	BASE	5.31	308	13.43	334	2.3	97	1.9	0	0	991.7	NA	0.0000		9999	1380	0	0	0
2019/04/22 23:58:01	BASE	4.09	349	13.43	334	2.2	97	1.7	0	0	991.7	NA	0.0000		9999	1570	3740	0	0
2019/04/22 23:59:01	BASE	3.91	26	13.43	334	2.2	97	1.8	0	0	991.7	NA	0.0000		9999	1510	3670	0	0